[[{"header":{"parameterUnit":"m.s-1","parameterCategory":1,"la1":30.6,"la2":29.2853,"lo1":-89.7004,"lo2":-87.6739,"dy":0.0162,"dx":0.0183,"nx":112,"ny":82,"refTime":"2023-07-15T12:00:00:Z","depth":0,"parameterNumber":2,"parameterNumberName":"U-component_of_WINDS"},"data":[0.0,0.0,0.0,0.0,0.0,0.0,0.0,0.0,0.0,0.0,0.0,0.0,0.0,0.0,0.0,0.0,0.0,0.0,0.0,0.0,0.0,0.0,0.0,0.0,0.0,0.0,0.0,0.0,0.0,0.0,0.0,0.0,0.0,0.0,0.0,0.0,0.0,0.0,0.0,0.0,0.0,0.0,0.0,0.0,0.0,0.0,0.0,0.0,0.0,0.0,0.0,0.0,0.0,0.0,0.0,0.0,0.0,0.0,0.0,0.0,0.0,0.0,0.0,0.0,0.0,0.0,0.0,0.0,0.0,0.0,0.0,0.0,0.0,0.0,0.0,0.0,0.0,0.0,0.0,0.0,0.0,0.0,0.0,0.0,0.0,0.0,0.0,0.0,0.0,0.0,0.0,0.1591,0.2292,0.266,0.2636,0.2621,0.255,0.2317,0.0,0.0,0.0,0.0,0.0,0.0,0.0,0.0,0.0,0.0,0.0,0.0,0.0,0.0,0.0,0.0,0.0,0.0,0.0,0.0,0.0,0.0,0.0,0.0,0.0,0.0,0.0,0.0,0.0,0.0,0.0,0.0,0.0,0.0,0.0,0.0,0.0,0.0,0.0,0.0,0.0,0.0,0.0,0.0,0.0,0.0,0.0,0.0,0.0,0.0,0.0,0.0,0.0,0.0,0.0,0.0,0.0,0.0,0.0,0.0,0.0,0.0,0.0,0.0,0.0,0.0,0.0,0.0,0.0,0.0,0.0,0.0,0.0,0.0,0.0,0.0,0.0,0.0,0.0,0.0,0.0,0.0,0.0,0.0,0.0,0.0,0.0,0.0,0.0,0.0,0.0,0.0,0.0,0.0,0.0,0.0,0.0,0.0,0.0,0.0,0.0,0.0,0.0,0.0,0.1173,0.2136,0.2503,0.2685,0.267,0.254,0.2442,0.2399,0.0,0.0,0.0,0.0,0.0,0.0,0.0,0.0,0.0,0.0,0.0,0.0,0.0,0.0,0.0,0.0,0.0,0.0,0.0,0.0,0.0,0.0,0.0,0.0,0.0,0.0,0.0,0.0,0.0,0.0,0.0,0.0,0.0,0.0,0.0,0.0,0.0,0.0,0.0,0.0,0.0,0.0,0.0,0.0,0.0,0.0,0.0,0.0,0.0,0.0,0.0,0.0,0.0,0.0,0.0,0.0,0.0,0.0,0.0,0.0,0.0,0.0,0.0,0.0,0.0,0.0,0.0,0.0,0.0,0.0,0.0,0.0,0.0,0.0,0.0,0.0,0.0,0.0,0.0,0.0,0.0,0.0,0.0,0.0,0.0,0.0,0.0,0.0,0.0,0.0,0.0,0.0,0.0,0.0,0.0,0.0,0.0,0.0,0.0,0.0,0.0,0.0,0.0,0.104,0.153,0.2299,0.2625,0.2744,0.2695,0.2568,0.2491,0.2491,0.2358,0.0,0.0,0.0,0.0,0.0,0.0,0.0,0.0,0.0,0.0,0.0,0.0,0.0,0.0,0.0,0.0,0.0,0.0,0.0,0.0,0.0,0.0,0.0,0.0,0.0,0.0,0.0,0.0,0.0,0.0,0.0,0.0,0.0,0.0,0.0,0.0,0.0,0.0,0.0,0.0,0.0,0.0,0.0,0.0,0.0,0.0,0.0,0.0,0.0,0.0,0.0,0.0,0.0,0.0,0.0,0.0,0.0,0.0,0.0,0.0,0.0,0.0,0.0,0.0,0.0,0.0,0.0,0.0,0.0,0.0,0.0,0.0,0.0,0.0,0.0,0.0,0.0,0.0,0.0,0.0,0.0,0.0,0.0,0.0,0.0,0.0,0.0,0.0,0.0,0.0,0.0,0.0,0.0,0.0,0.0,0.0,0.0,0.0,0.0,0.0,0.0,0.0,0.1545,0.1952,0.2359,0.2644,0.2758,0.2666,0.2649,0.2599,0.2576,0.2391,0.0,0.0,0.0,0.0,0.0,0.0,0.0,0.0,0.0,0.0,0.0,0.0,0.0,0.0,0.0,0.0,0.0,0.0,0.0,0.0,0.0,0.0,0.0,0.0,0.0,0.0,0.0,0.0,0.0,0.0,0.0,0.0,0.0,0.0,0.0,0.0,0.0,0.0,0.0,0.0,0.0,0.0,0.0,0.0,0.0,0.0,0.0,0.0,0.0,0.0,0.0,0.0,0.0,0.0,0.0,0.0,0.0,0.0,0.0,0.0,0.0,0.0,0.0,0.0,0.0,0.0,0.0,0.0,0.0,0.0,0.0,0.0,0.0,0.0,0.0,0.0,0.0,0.0,0.0,0.0,0.0,0.0,0.0,0.0,0.0,0.0,0.0,0.0,0.0,0.0,0.0,0.0,0.0,0.0,0.0,0.0,0.0,0.0,0.0,0.0,0.0,0.0,0.1676,0.2361,0.2415,0.2587,0.2664,0.2626,0.2611,0.2569,0.2432,0.2415,0.0,0.0,0.0,0.0,0.0,0.0,0.0,0.0,0.0,0.0,0.0,0.0,0.0,0.0,0.0,0.0,0.0,0.0,0.0,0.0,0.0,0.0,0.0,0.0,0.0,0.0,0.0,0.0,0.0,0.0,0.0,0.0,0.0,0.0,0.0,0.0,0.0,0.0,0.0,0.0,0.0,0.0,0.0,0.0,0.0,0.0,0.0,0.0,0.0,0.0,0.0,0.0,0.0,0.0,0.0,0.0,0.0,0.0,0.0,0.0,0.0,0.0,0.0,0.0,0.0,0.0,0.0,0.0,0.0,0.0,0.0,0.0,0.0,0.0,0.0,0.0,0.0,0.0,0.0,0.0,0.0,0.0,0.0,0.0,0.0,0.0,0.0,0.0,0.0,0.0,0.0,0.0,0.0,0.0,0.0,0.0,0.0,0.0,0.0,0.0,0.0,0.0,0.0846,0.1215,0.0,0.1987,0.2191,0.2472,0.2468,0.2478,0.2501,0.0,0.0,0.0,0.0,0.0,0.0,0.0,0.0,0.0,0.0,0.0,0.0,0.0,0.0,0.0,0.0,0.0,0.0,0.0,0.0,0.0,0.0,0.0,0.0,0.0,0.0,0.0,0.0,0.0,0.0,0.0,0.0,0.0,0.0,0.0,0.0,0.0,0.0,0.0,0.0,0.0,0.0,0.0,0.0,0.0,0.0,0.0,0.0,0.0,0.0,0.0,0.0,0.0,0.0,0.0,0.0,0.0,0.0,0.0,0.0,0.0,0.0,0.0,0.0,0.0,0.0,0.0,0.0,0.0,0.0,0.0,0.0,0.0,0.0,0.0,0.0,0.0,0.0,0.0,0.0,0.0,0.0,0.0,0.0,0.0,0.0,0.0,0.0,0.0,0.0,0.0,0.0,0.0,0.0,0.0,0.0,0.0,0.0,0.0,0.0,0.0,0.0,0.0367,0.0382,0.0587,0.0,0.1444,0.1631,0.2116,0.2188,0.2332,0.2603,0.0,0.0,0.0,0.0,0.0,0.0,0.0,0.0,0.0,0.0,0.0,0.0,0.0,0.0,0.0,0.0,0.0,0.0,0.0,0.0,0.0,0.0,0.0,0.0,0.0,0.0,0.0,0.0,0.0,0.0,0.0,0.0,0.0,0.0,0.0,0.0,0.0,0.0,0.0,0.0,0.0,0.0,0.0,0.0,0.0,0.0,0.0,0.0,0.0,0.0,0.0,0.0,0.0,0.0,0.0,0.0,0.0,0.0,0.0,0.0,0.0,0.0,0.0,0.0,0.0,0.0,0.0,0.0,0.0,0.0,0.0,0.0,0.0,0.0,0.0,0.0,0.0,0.0,0.0,0.0,0.0,0.0,0.0,0.0,0.0,0.0,0.0,0.0,0.0,0.0,0.0,0.0,0.0,0.0,0.0,0.0,0.0,0.0,0.0,0.0,0.0,0.0,-0.0,0.0458,0.0829,0.0864,0.0867,0.1101,0.1665,0.1769,0.2018,0.0,0.0,0.0,0.0,0.0,0.0,0.0,0.0,0.0,0.0,0.0,0.0,0.0,0.0,0.0,0.0,0.0,0.0,0.0,0.0,0.0,0.0,0.0,0.0,0.0,0.0,0.0,0.0,0.0,0.0,0.0,0.0,0.0,0.0,0.0,0.0,0.0,0.0,0.0,0.0,0.0,0.0,0.0,0.0,0.0,0.0,0.0,0.0,0.0,0.0,0.0,0.0,0.0,0.0,0.0,0.0,0.0,0.0,0.0,0.0,0.0,0.0,0.0,0.0,0.0,0.0,0.0,0.0,0.0,0.0,0.0,0.0,0.0,0.0,0.0,0.0,0.0,0.0,0.0,0.0,0.0,0.0,0.0,0.0,0.0,0.0,0.0,0.0,0.0,0.0,0.0,0.0,0.0,0.0,0.0,0.0,0.0,0.0,0.0,0.0,0.0,0.0,0.0,-0.01,-0.0202,-0.0203,0.0149,0.0202,0.0561,0.1463,0.1666,0.1965,0.2554,0.0,0.0,0.0,0.0,0.0,0.0,0.0,0.0,0.0,0.0,0.0,0.0,0.0,0.0,0.0,0.0,0.0,0.0,0.0,0.0,0.0,0.0,0.0,0.0,0.0,0.0,0.0,0.0,0.0,0.0,0.0,0.0,0.0,0.0,0.0,0.0,0.0,0.0,0.0,0.0,0.0,0.0,0.0,0.0,0.0,0.0,0.0,0.0,0.0,0.0,0.0,0.0,0.0,0.0,0.0,0.0,0.0,0.0,0.0,0.0,0.0,0.0,0.0,0.0,0.0,0.0,0.0,0.0,0.0,0.0,0.0,0.0,0.0,0.0,0.0,0.0,0.0,0.0,0.0,0.0,0.0,0.0,0.0,0.0,0.0,0.0,0.0,0.0,0.0,0.0,0.0,0.0,0.0,0.0,0.0,0.0,0.0,0.0,0.0,0.0,0.0,0.0,-0.0466,-0.047,-0.0364,-0.0051,0.0153,0.067,0.1546,0.168,0.1978,0.2607,0.0,0.0,0.0,0.0,0.0,0.0,0.0,0.0,0.0,0.0,0.0,0.0,0.0,0.0,0.0,0.0,0.0,0.0,0.0,0.0,0.0,0.0,0.0,0.0,0.0,0.0,0.0,0.0,0.0,0.0,0.0,0.0,0.0,0.0,0.0,0.0,0.0,0.0,0.0,0.0,0.0,0.0,0.0,0.0,0.0,0.0,0.0,0.0,0.0,0.0,0.0,0.0,0.0,0.0,0.0,0.0,0.0,0.0,0.0,0.0,0.0,0.0,0.0,0.0,0.0,0.0,0.0,0.0,0.0,0.0,0.0,0.0,0.0,0.0,0.0,0.0,0.0,0.0,0.0,0.0,0.0,0.0,0.0,0.0,0.0,0.0,0.0,0.0,0.0,0.0,0.0,0.0,0.0,0.0,0.0,0.0,0.0,0.0,0.0,0.0,0.0,0.0,-0.0913,-0.0385,-0.0,0.0103,0.0577,0.1123,0.1762,0.1815,0.2057,0.2685,0.0,0.0,0.0,0.0,0.0,0.0,0.0,0.0,0.0,0.0,0.0,0.0,0.0,0.0,0.0,0.0,0.0,0.0,0.0,0.0,0.0,0.0,0.0,0.0,0.0,0.0,0.0,0.0,0.0,0.0,0.0,0.0,0.0,0.0,0.0,0.0,0.0,0.0,0.0,0.0,0.0,0.0,0.0,0.0,0.0,0.0,0.0,0.0,0.0,0.0,0.0,0.0,0.0,0.0,0.0,0.0,0.0,0.0,0.0,0.0,0.112,0.0,0.0,0.0,0.0,0.0,0.0,0.0,0.0,0.0,0.0,0.0,0.0,0.0,0.0,0.0,0.0,0.0,0.0,0.0,0.0,0.0,0.0,0.0,0.0,0.0,0.0,0.0,0.0,0.0,0.0,0.0,0.0,0.0,0.0,0.0,0.0,0.0,0.0,0.0,0.0,0.0,-0.0889,-0.0391,-0.0,-0.0,0.0551,0.1162,0.177,0.1826,0.2055,0.2689,0.2691,0.0,0.0,0.0,0.0,0.0,0.0,0.0,0.0,0.0,0.0,0.0,0.0,0.0,0.0,0.0,0.0,0.0,0.0,0.0,0.0,0.0,0.0,0.0,0.0,0.0,0.0,0.0,0.0,0.0,0.0,0.0,0.0,0.0,0.0,0.0,0.0,0.0,0.0,0.0,0.0,0.0,0.0,0.0,0.0,0.0,0.0,0.0,0.0,0.0,0.0,0.0,0.0,0.0,0.0,0.0,0.0,0.0,0.0,0.0,0.0,0.1259,0.0,0.0,0.0,0.0,0.0,0.0,0.0,0.0,0.0,0.0,0.0,0.0,0.0,0.0,0.0,0.0,0.0,0.0,0.0,0.0,0.0,0.0,0.0,0.0,0.0,0.0,0.0,0.0,0.0,0.0,0.0,0.0,0.0,0.0,0.0,0.0,0.0,0.0,0.0,0.0,-0.0505,0.0056,0.056,0.084,0.1399,0.1902,0.2184,0.224,0.2352,0.2691,0.2691,0.0,0.0,0.0,0.0,0.0,0.0,0.0,0.0,0.0,0.0,0.0,0.0,0.0,0.0,0.0,0.0,0.0,0.0,0.0,0.0,0.0,0.0,0.0,0.0,0.0,0.0,0.0,0.0,0.0,0.0,0.0,0.0,0.0,0.0,0.0,0.0,0.0,0.0,0.0,0.0,0.0,0.0,0.0,0.0,0.0,0.0,0.0,0.0,0.0,0.0,0.0,0.0,0.0,0.3126,0.3489,0.3546,0.3546,0.3554,0.3475,0.1848,0.1175,0.1212,0.0,0.0,0.0,0.0,0.0,0.0,0.0,0.0,0.0,0.0,0.0,0.0,0.0,0.0,0.0,0.0,0.0,0.0,0.0,0.0,0.0,0.0,0.0,0.0,0.0,-0.0698,-0.0571,0.0,0.0,0.0,0.0,0.0,0.0,0.0,0.0,0.0,0.0,0.0,0.0,-0.0056,0.0615,0.1229,0.1734,0.2352,0.2691,0.2691,0.2691,0.2691,0.2691,0.2691,0.2691,0.0,0.0,0.0,0.0,0.0,0.0,0.0,0.0,0.0,0.0,0.0,0.0,0.0,0.0,0.0,0.0,0.0,0.0,0.0,0.0,0.0,0.0,0.0,0.0,0.0,0.0,0.0,0.0,0.0,0.0,0.0,0.0,-0.0695,-0.0169,0.0,0.0,0.0,0.0,0.0,0.0,0.0,0.0,0.0,0.0,0.0,0.0,0.0,0.2382,0.2421,0.317,0.3603,0.3615,0.3785,0.3793,0.3728,0.3728,0.3771,0.3844,0.3545,0.0,0.3005,0.2141,0.0,0.0,0.0,0.0,0.0,0.0,0.0,0.0,0.0,0.0,0.0,0.0,0.0,0.0,0.0,0.0,0.0,0.0,0.0,0.0,0.0,0.0,0.0588,0.0121,-0.0061,0.0182,0.0,-0.0,-0.0898,-0.0898,-0.0898,0.0,0.0,0.0,0.0,0.0,0.0,0.0,-0.0,0.1008,0.1734,0.179,0.2352,0.2691,0.2691,0.2691,0.2691,0.2691,0.2691,0.2691,0.2691,0.2691,0.0,0.0,0.0,0.0,0.0,0.0,0.0,0.0,0.0,0.0,0.0,0.0,0.0,0.0,0.0,0.0,0.0,0.0,0.0,0.0,0.0,0.0,0.0,0.0,0.0,0.0,0.0,0.0,0.0,-0.041,0.0059,-0.0,0.0293,0.0592,0.0,0.0,0.0,0.0,0.0,0.0,0.0,0.0,0.0,0.2657,0.3065,0.3315,0.3387,0.3184,0.3176,0.3134,0.2597,0.2364,0.237,0.237,0.2382,0.2403,0.2403,0.2338,0.2213,0.2777,0.2656,0.2116,0.0,0.0,0.0,0.0,0.1194,0.1467,0.1021,0.1085,0.0,0.0645,0.0,0.0,0.0,0.0,0.0,0.0,0.0,0.0,0.0,0.0,-0.0256,-0.0527,-0.0589,-0.0455,-0.0132,-0.0571,-0.0848,0.0,-0.0642,-0.0923,-0.0923,0.0,0.0,0.0,0.0,0.0,-0.0,0.1064,0.179,0.179,0.2352,0.2691,0.2691,0.2691,0.2691,0.2691,0.2691,0.2691,0.2691,0.2691,0.2691,0.0,0.0,0.0,0.0,0.0,0.0,0.0,0.0,0.0,0.0,0.0,0.0,0.0,0.0,0.0,0.0,0.0,0.0,0.0,0.0,0.0,0.0,0.0,0.0,0.0,0.0,0.0,0.0,-0.012,0.0245,-0.0,0.0366,0.0688,0.0,0.0,0.0,0.0,0.0,0.0,0.2652,0.2576,0.2838,0.3321,0.3292,0.322,0.3275,0.258,0.2288,0.2347,0.1619,0.1349,0.1362,0.1362,0.1358,0.1353,0.1353,0.1337,0.1396,0.2525,0.2565,0.1835,0.1798,0.1415,0.0908,0.0971,0.1338,0.1658,0.1082,0.122,0.1568,0.0425,0.0138,0.0067,-0.0448,0.0,0.0,0.0,0.0,-0.0786,-0.0798,-0.0673,-0.0615,-0.0774,-0.0836,-0.0759,-0.0634,-0.0823,-0.0856,0.0,-0.0608,-0.0954,-0.0954,0.0,0.0,0.0,0.0,-0.0,-0.0,0.0907,0.1637,0.1792,0.2184,0.2521,0.2691,0.2691,0.2691,0.2691,0.2691,0.2691,0.2691,0.2691,0.2691,0.2691,0.0,0.0,0.0,0.0,0.0,0.0,0.0,0.0,0.0,0.0,0.0,0.0,0.0,0.0,0.0,0.0,0.0,0.0,0.0,0.0,0.0,0.0,0.0,0.0,0.0,0.0,0.0,0.0,0.0,-0.0057,0.0066,0.0,0.0,0.0,0.0,0.2429,0.3056,0.3559,0.373,0.2927,0.2551,0.2751,0.1815,0.1415,0.1497,0.15,0.1529,0.1582,0.1477,0.157,0.1546,0.1546,0.1634,0.1609,0.1609,0.1592,0.1457,0.1164,0.0937,0.0828,0.0696,0.061,0.0543,0.0606,0.061,0.0545,0.0546,0.0614,0.0682,0.0793,0.0858,0.0813,0.0686,0.0201,0.0,0.0,0.0205,-0.0272,-0.0286,0.0213,0.0633,-0.0,-0.0145,0.0073,0.0725,-0.0217,-0.1134,0.0,-0.0944,-0.0986,-0.0986,0.0,-0.0984,-0.0984,-0.0491,-0.0061,-0.0,0.0528,0.1158,0.174,0.1846,0.2071,0.2635,0.2691,0.2691,0.2691,0.2691,0.2691,0.2691,0.2691,0.2691,0.2691,0.2691,0.0,0.0,0.0,0.0,0.0,0.0,0.0,0.0,0.0,0.0,0.0,0.0,0.0,0.0,0.0,0.0,0.0,0.0,0.0,0.0,0.0,0.0,0.0,0.0,0.0,0.0,0.0,0.0,-0.0275,-0.0226,0.0,0.1676,0.2152,0.2352,0.2386,0.266,0.2606,0.2004,0.1841,0.1728,0.1873,0.1606,0.1432,0.1461,0.0731,0.042,0.0426,-0.0213,-0.053,-0.0527,-0.0521,-0.052,-0.0522,-0.051,-0.0506,-0.0609,-0.0683,-0.0,0.107,0.1046,0.0946,0.0854,0.0932,0.0942,0.0873,0.0262,0.0087,0.0172,-0.0335,-0.0488,-0.0551,-0.0604,-0.0745,-0.0896,-0.0678,-0.0759,-0.092,-0.0936,-0.0709,-0.0555,-0.08,-0.0882,-0.0802,-0.0561,-0.0871,-0.1239,-0.1187,-0.1106,-0.1039,-0.102,-0.1001,-0.0988,-0.0988,-0.0493,-0.0245,-0.0608,0.0242,0.0784,0.0596,0.0952,0.124,0.1504,0.1849,0.2063,0.213,0.2465,0.2691,0.2691,0.2691,0.2691,0.2691,0.2691,0.2691,0.0,0.0,0.0,0.0,0.0,0.0,0.0,0.0,0.0,0.0,0.0,0.0,0.0,0.0,0.0,0.0,0.0,0.0,0.0,0.0,0.0,0.0,0.0,0.0,0.0,0.0,-0.1009,-0.0388,-0.0337,0.0174,0.157,0.1762,0.1881,0.1906,0.1987,0.1777,0.1152,0.0903,0.0826,0.0941,0.0634,0.0426,0.0429,-0.0322,-0.0647,-0.065,-0.141,-0.1729,-0.1719,-0.1701,-0.1696,-0.1702,-0.1663,-0.1658,-0.1675,-0.1654,-0.0902,0.0192,0.0284,0.0188,0.0187,0.0185,0.0187,0.019,-0.0473,-0.0661,-0.0655,-0.1153,-0.1379,-0.1357,-0.1326,-0.131,-0.1304,-0.1314,-0.1318,-0.132,-0.1329,-0.134,-0.1263,-0.1263,-0.1263,-0.1263,-0.1263,-0.1332,-0.1306,-0.1265,-0.1184,-0.1112,-0.1083,-0.1053,-0.1033,-0.1033,-0.0703,-0.0569,-0.0942,-0.0313,0.0125,-0.0062,0.0246,0.061,0.0837,0.1433,0.1709,0.1482,0.2278,0.2608,0.241,0.2577,0.2691,0.2691,0.2732,0.2817,0.2896,0.0,0.0,0.0,0.0,0.0,0.0,0.0,0.0,0.0,0.0,0.0,0.0,0.0,0.0,0.0,0.0,0.0,0.0,0.0,0.0,0.0,0.0,0.0,-0.1089,-0.1264,-0.1202,-0.0494,-0.0366,-0.0096,0.0635,0.0951,0.1081,0.1082,0.1221,0.135,0.1352,0.0423,-0.0107,-0.0107,-0.1174,-0.1722,-0.1752,-0.1751,-0.1765,-0.1795,-0.1795,-0.178,-0.1751,-0.175,-0.1734,-0.1707,-0.1705,-0.1705,-0.1705,-0.1705,-0.1688,-0.1656,-0.1597,-0.1592,-0.1613,-0.1583,-0.1592,-0.1613,-0.1583,-0.1573,-0.1563,-0.1503,-0.1483,-0.1478,-0.1447,-0.1417,-0.14,-0.1429,-0.1397,-0.1359,-0.1386,-0.1372,-0.1267,-0.1267,-0.1267,-0.1267,-0.1267,-0.1267,-0.1333,-0.1273,-0.1238,-0.1206,-0.1172,-0.1142,-0.1123,-0.1123,-0.1097,0.0,-0.104,-0.0971,-0.0768,-0.0186,-0.0123,0.0123,0.0678,0.1419,0.1582,0.0884,0.2061,0.2441,0.1855,0.2359,0.2699,0.2699,0.2813,0.3019,0.3202,0.0,0.0,0.0,0.0,0.0,0.0,0.0,0.0,0.0,0.0,0.0,0.0,0.0,0.0,0.0,0.0,0.0,0.0,0.0,0.0,0.0,0.0,-0.1313,-0.1305,-0.141,-0.1413,-0.1362,-0.1319,-0.0932,-0.0,0.0206,0.0209,0.0212,0.0321,-0.0,-0.0894,-0.1236,-0.1359,-0.1376,-0.1588,-0.1807,-0.1815,-0.1793,-0.1787,-0.1795,-0.1795,-0.1791,-0.1782,-0.176,-0.1757,-0.1767,-0.1723,-0.1717,-0.1735,-0.1713,-0.1688,-0.166,-0.1644,-0.1629,-0.1615,-0.1607,-0.1609,-0.1615,-0.1607,-0.1605,-0.1598,-0.156,-0.1547,-0.154,-0.151,-0.1495,-0.1491,-0.1499,-0.1489,-0.1474,-0.1459,-0.145,-0.1439,-0.1416,-0.1411,-0.1411,-0.1411,-0.1411,-0.1399,-0.1361,-0.1346,-0.1303,-0.1187,-0.1159,-0.1154,-0.1154,-0.1147,0.0,-0.1101,-0.1097,-0.1017,-0.0856,-0.0854,-0.0717,-0.0511,0.0064,0.0377,0.0183,0.0911,0.1514,0.1862,0.2042,0.2342,0.2881,0.2974,0.2999,0.0,0.0,0.0,0.0,0.0,0.0,0.0,0.0,0.0,0.0,0.0,0.0,0.0,0.0,0.0,0.0,0.0,0.0,0.0,0.0,0.0,0.0,-0.1467,-0.1488,-0.1551,-0.1594,-0.1649,-0.1727,-0.1763,-0.1557,-0.089,-0.089,-0.0893,-0.0902,-0.0903,-0.1138,-0.1857,-0.1859,-0.1868,-0.1885,-0.1868,-0.1853,-0.184,-0.1823,-0.1808,-0.1795,-0.1795,-0.1795,-0.1794,-0.1777,-0.1778,-0.1793,-0.1757,-0.1752,-0.1767,-0.175,-0.1718,0.0,0.0,0.0,0.0,0.0,-0.1617,-0.1617,-0.1617,-0.1617,-0.1614,-0.1596,-0.159,-0.1587,-0.1569,-0.1555,-0.1545,-0.1545,-0.1536,-0.1519,-0.1489,-0.148,-0.1473,-0.1442,-0.1436,-0.1436,-0.1436,-0.1436,-0.1426,-0.1396,-0.139,0.0,-0.1243,-0.1213,-0.12,-0.1187,-0.1174,-0.116,-0.1142,-0.1129,-0.1114,-0.1097,-0.1083,-0.1069,-0.1052,-0.0459,0.0,0.0,0.0,0.1186,0.185,0.191,0.0,0.0,0.0,0.3093,0.3198,0.0,0.0,0.0,0.3732,0.3712,0.0,0.0,0.0,0.0,0.0,0.0,0.0,0.0,0.0,0.0,0.0,0.0,0.0,0.0,0.0,0.0,-0.1553,-0.1647,-0.179,-0.1787,-0.1789,-0.1839,-0.1872,-0.1889,-0.1886,-0.1886,-0.1887,-0.1891,-0.1888,-0.1889,-0.1896,0.0,0.0,0.0,0.0,-0.1878,-0.1851,-0.1847,-0.183,-0.18,-0.18,-0.1798,-0.1795,-0.1795,-0.1793,-0.179,-0.1793,-0.1793,-0.179,-0.1793,-0.1759,-0.1701,-0.1669,-0.1641,-0.1617,-0.1617,-0.1617,-0.1617,-0.1617,0.0,0.0,-0.1617,-0.1617,-0.1617,-0.1617,-0.1598,-0.1577,-0.1577,-0.1557,-0.1529,-0.1499,-0.1489,-0.1479,-0.1452,-0.144,-0.1436,-0.144,-0.1438,-0.1427,-0.14,-0.1395,-0.1376,-0.1318,-0.1282,-0.1252,-0.1221,-0.1194,-0.1176,-0.1172,-0.1148,-0.1129,-0.1122,0.0,0.0,-0.1076,-0.047,-0.0399,-0.0975,0.013,0.1087,0.1682,0.1868,0.2271,0.2988,0.312,0.3228,0.3515,0.371,0.3845,0.3976,0.3827,0.3781,0.0,0.0,0.0,0.0,0.0,0.0,0.0,0.0,0.0,0.0,0.0,0.0,0.0,0.0,0.0,-0.1571,-0.1681,-0.1788,-0.189,-0.19,-0.1892,-0.1879,-0.1904,-0.1913,-0.1888,-0.1886,-0.1896,-0.1921,-0.19,-0.1907,-0.1956,-0.1936,-0.1934,-0.1958,-0.1935,-0.1919,-0.1913,-0.1889,-0.1862,-0.1832,0.0,0.0,-0.1795,-0.1795,-0.1782,-0.176,-0.1784,-0.1781,-0.1761,-0.1785,-0.1759,-0.1699,-0.1646,-0.1622,-0.1617,-0.1617,-0.1617,-0.1617,-0.1617,-0.1617,-0.1617,-0.1617,-0.1617,-0.1617,-0.1617,-0.1613,0.0,-0.1608,-0.1604,-0.1592,-0.1562,-0.1536,-0.1516,-0.151,-0.1471,-0.1442,-0.1467,-0.1453,-0.1433,-0.1427,-0.1427,-0.1408,-0.135,-0.1314,-0.1284,-0.1253,-0.1243,-0.123,-0.1206,-0.1198,-0.1175,-0.1126,-0.1116,-0.1102,-0.1078,-0.0941,-0.0939,-0.1068,-0.0267,0.0199,0.033,0.1519,0.2209,0.2478,0.3033,0.3388,0.3407,0.3749,0.3887,0.3951,0.4095,0.4177,0.0,0.0,0.0,0.0,0.0,0.0,0.0,0.0,0.0,0.0,0.0,-0.1324,0.0,0.0,-0.1633,-0.1755,-0.1824,-0.1889,-0.1964,-0.1975,-0.1964,-0.1934,-0.1945,-0.1948,-0.1932,-0.1931,-0.1937,-0.1953,-0.194,-0.1945,-0.1975,-0.1962,-0.1961,-0.1976,-0.1962,-0.1947,-0.1931,-0.1916,-0.1893,-0.1863,-0.1848,-0.1832,-0.1817,-0.1802,-0.1787,-0.1773,-0.1789,-0.1787,-0.1772,-0.1772,-0.1746,-0.17,-0.1656,-0.163,-0.1617,-0.1617,-0.1617,-0.1617,-0.1617,-0.1617,-0.1617,-0.1617,-0.1617,-0.1617,-0.1617,-0.1617,-0.1617,-0.1617,-0.1617,-0.161,-0.1579,-0.156,-0.1545,-0.153,-0.1491,-0.1462,-0.1478,-0.1457,-0.1436,-0.1436,-0.1436,-0.1421,-0.1376,-0.1345,-0.131,-0.1264,-0.1335,-0.1251,-0.1236,-0.1221,-0.12,-0.117,-0.1153,-0.1138,-0.1123,-0.1107,-0.1105,-0.112,-0.0761,-0.0414,-0.007,0.1049,0.1899,0.2211,0.3072,0.3432,0.3432,0.3712,0.3923,0.3996,0.4227,0.4341,0.0,0.0,0.0,0.0,0.0,0.0,0.0,0.0,-0.165,-0.1578,-0.1498,-0.15,-0.1605,-0.1697,-0.1799,-0.1927,-0.1953,-0.1971,-0.2012,-0.2018,-0.2008,-0.198,-0.1981,-0.1982,-0.1977,-0.1977,-0.1977,-0.1977,-0.1977,-0.1977,-0.1977,-0.1977,-0.1977,-0.1977,-0.1977,-0.1964,-0.194,-0.194,-0.1925,-0.1894,-0.1864,-0.1846,-0.1839,-0.1809,-0.1792,-0.1787,-0.1787,-0.1789,-0.1792,-0.1756,-0.1726,-0.1701,-0.1667,-0.1639,-0.1617,-0.1617,-0.1617,-0.1617,-0.1617,-0.1617,-0.1617,-0.1617,-0.1617,-0.1617,-0.1617,-0.1617,-0.1617,-0.1617,-0.1617,-0.1611,-0.1586,-0.1576,-0.1567,-0.1548,-0.1516,-0.1491,-0.1497,-0.147,-0.1444,-0.1444,-0.144,-0.1425,-0.1395,-0.1367,-0.1329,-0.1274,-0.1261,-0.1335,-0.1335,-0.1236,-0.1218,-0.1213,-0.1189,-0.1172,-0.1167,-0.1144,-0.114,-0.1165,-0.1143,-0.0855,-0.0364,0.0509,0.1312,0.1979,0.2862,0.3377,0.3524,0.3741,0.3958,0.4108,0.4254,0.446,-0.3832,-0.2673,-0.1923,-0.176,-0.1571,-0.1492,0.0,0.0,-0.1518,-0.1631,-0.1705,-0.1762,-0.1803,-0.1885,-0.196,-0.2002,-0.2031,-0.2042,-0.2021,-0.2018,-0.2008,-0.198,-0.1999,-0.2004,-0.1979,-0.1977,-0.1977,-0.1977,-0.1977,-0.1977,-0.1977,-0.1977,-0.1977,-0.1977,-0.1977,-0.1975,-0.1972,-0.1971,-0.1956,-0.1926,-0.1895,-0.1866,-0.1839,-0.1809,-0.178,-0.1755,-0.1755,-0.177,-0.1791,-0.1733,-0.1707,-0.1699,-0.1643,-0.162,-0.1617,-0.1617,-0.1617,-0.1617,-0.1617,-0.1617,-0.1617,-0.1617,-0.1617,-0.1617,-0.1617,-0.1617,-0.1617,-0.1617,-0.1617,-0.1616,-0.1613,-0.1592,-0.1577,-0.1601,-0.1563,-0.1528,-0.1555,-0.1516,-0.1476,-0.1476,-0.1454,-0.1425,-0.1395,-0.1367,-0.1337,-0.1303,-0.1275,-0.1335,-0.1335,-0.1254,-0.1242,-0.1215,-0.1209,-0.1196,-0.1169,-0.1164,-0.1163,-0.1166,-0.1164,-0.1163,-0.1093,-0.0364,0.0442,0.1353,0.2107,0.2861,0.3612,0.3764,0.3991,0.4293,0.4438,0.4533,-0.4915,-0.3573,0.0,0.0,-0.1881,-0.191,-0.179,-0.183,-0.1763,-0.1762,-0.1818,-0.1857,-0.1887,-0.1967,-0.2031,0.0,-0.2056,-0.2059,-0.2047,-0.2016,-0.1983,-0.1954,-0.196,-0.197,-0.1976,-0.1977,-0.1977,-0.1977,-0.1977,-0.1977,-0.1977,-0.1977,-0.1977,-0.1977,-0.1977,-0.1977,-0.1977,-0.1977,-0.197,-0.1958,-0.1926,-0.1896,-0.1866,-0.1835,-0.1805,-0.1776,-0.1776,-0.1783,-0.1793,-0.1767,-0.1746,-0.1727,-0.1684,-0.1667,-0.1664,-0.1629,-0.1617,-0.1617,-0.1617,-0.1617,-0.1617,-0.1617,-0.1617,-0.1617,-0.1617,-0.1617,-0.1617,-0.1617,-0.1617,-0.1617,-0.1617,-0.1607,-0.1601,-0.1613,-0.1584,-0.1556,-0.1568,-0.1523,-0.1486,-0.1504,-0.1468,-0.1437,-0.1442,-0.1403,-0.1363,-0.1333,-0.1288,-0.1335,-0.1335,-0.1335,-0.1252,-0.124,-0.1239,-0.1233,-0.122,-0.1203,-0.12,-0.1218,-0.1202,-0.12,-0.1295,-0.0457,0.0153,0.054,0.1776,0.2626,0.2934,0.3552,0.4015,0.4323,0.4397,0.4602,-0.5392,0.0,0.0,-0.2396,-0.2295,-0.2353,-0.2238,-0.218,-0.2237,-0.2224,-0.2145,-0.2047,-0.2062,-0.2134,0.0,-0.2052,-0.2059,-0.2061,-0.2052,-0.2008,-0.1962,-0.1923,-0.1911,-0.1915,-0.1937,-0.1954,-0.1967,-0.1976,-0.1977,-0.1977,-0.1977,-0.1977,-0.1977,-0.1977,-0.1977,-0.1977,-0.1977,-0.1977,-0.1977,-0.1976,-0.1937,-0.1907,-0.1884,-0.1846,-0.1816,-0.1795,-0.1795,-0.1795,-0.1794,-0.1786,-0.177,-0.1746,-0.1716,-0.1704,-0.1698,-0.1648,-0.1629,-0.1628,-0.162,-0.1617,-0.1617,-0.1617,-0.1617,-0.1617,-0.1617,-0.1617,-0.1617,-0.1617,-0.1617,-0.1617,-0.1617,-0.1617,-0.1617,-0.1617,-0.16,-0.1584,-0.1584,-0.1543,-0.1512,-0.1534,-0.1496,-0.1465,-0.1478,-0.1437,-0.1393,-0.1364,-0.1308,-0.1266,-0.1337,-0.1335,-0.1335,-0.1335,-0.1335,-0.1335,-0.1335,-0.1237,-0.1234,-0.1334,-0.1236,-0.1234,-0.1335,-0.0706,-0.0235,-0.0,0.1175,0.2038,0.2511,0.3137,0.3761,0.4309,0.4384,0.4621,0.0,0.0,-0.2567,-0.2781,-0.269,-0.2762,-0.2784,-0.285,-0.2909,-0.3002,-0.277,-0.2507,-0.2471,-0.2275,-0.2054,-0.2024,-0.2045,-0.2053,-0.2024,-0.1994,-0.1954,-0.1894,-0.1861,-0.1843,0.0,-0.1898,-0.1945,-0.1975,-0.1977,-0.1977,-0.1977,-0.1977,-0.1977,-0.1977,-0.1977,-0.1977,-0.1977,-0.1977,-0.1977,-0.1976,-0.1916,-0.1887,-0.1883,-0.1823,-0.1796,-0.1795,-0.1795,-0.1795,-0.1793,-0.1763,-0.175,-0.1746,-0.1716,-0.1704,-0.1701,-0.1671,-0.1661,-0.1656,-0.1627,-0.1617,-0.1617,-0.1617,-0.1617,-0.1617,-0.1617,-0.1617,-0.1617,-0.1617,-0.1617,-0.1617,-0.1617,-0.1617,-0.1617,-0.1617,-0.1616,-0.1615,-0.1615,-0.1591,-0.1569,-0.157,-0.1545,-0.1514,-0.1485,-0.1455,-0.1424,-0.1393,-0.1339,-0.1291,-0.1261,-0.1335,-0.1335,-0.1335,-0.1335,-0.1335,-0.1335,-0.1335,-0.1335,-0.1335,-0.1335,-0.1335,-0.1335,-0.1257,-0.0863,-0.0,0.0078,0.0862,0.2511,0.2511,0.3059,0.4079,0.4309,0.454,0.0,0.0,-0.4608,-0.3424,-0.3166,-0.3202,-0.3139,-0.3015,-0.2992,-0.2771,-0.269,-0.2482,-0.2093,-0.2106,-0.2132,-0.1926,-0.1956,-0.1986,-0.2014,-0.1994,-0.1954,-0.1893,-0.1877,0.0,0.0,0.0,0.0,-0.1943,-0.1947,-0.1955,-0.1975,-0.1977,-0.1977,-0.1977,-0.1977,-0.1977,-0.1977,-0.1977,-0.1977,-0.1976,-0.1915,-0.1886,-0.1883,-0.1823,-0.1795,-0.1795,-0.1795,-0.1795,-0.1794,-0.1784,-0.178,-0.1777,-0.1746,-0.1747,-0.1756,-0.1688,-0.1674,-0.1683,-0.1634,-0.1617,-0.1617,-0.1617,-0.1617,-0.1617,-0.1617,-0.1617,-0.1617,-0.1617,-0.1617,-0.1617,-0.1617,-0.1617,-0.1617,-0.1617,-0.1617,-0.1617,-0.1617,-0.1593,-0.1577,-0.1598,-0.156,-0.1529,-0.1539,-0.1499,-0.1448,-0.1397,-0.134,-0.1292,-0.1261,-0.1335,-0.1335,-0.1335,-0.1335,-0.1335,-0.1335,-0.1335,-0.1335,-0.1335,-0.1335,-0.1335,-0.1335,-0.1335,-0.1178,-0.0863,0.0235,0.0862,0.0862,0.2665,0.3528,0.3446,0.4229,0.4701,0.0,-0.6634,-0.6285,-0.4622,-0.4343,-0.4241,-0.3632,-0.3454,-0.3371,-0.3087,-0.2944,-0.2689,-0.2284,-0.2164,-0.2075,-0.1909,-0.1839,-0.1891,-0.1961,-0.1956,-0.193,-0.189,-0.1877,0.0,0.0,0.0,0.0,-0.1926,-0.1941,-0.1956,-0.1975,-0.1977,-0.1977,-0.1977,-0.1977,-0.1977,-0.1977,-0.1977,-0.1971,-0.196,-0.1921,-0.1891,-0.1868,-0.1829,-0.1805,-0.1795,-0.1795,-0.1907,-0.1908,-0.1795,-0.1908,-0.2129,-0.1884,-0.1889,-0.1898,-0.1826,-0.1705,-0.171,-0.1641,-0.1617,-0.1617,-0.1617,-0.1617,-0.1617,-0.1617,-0.1617,-0.1617,-0.1617,-0.1617,-0.1617,-0.1617,-0.1617,-0.1617,-0.1617,-0.1617,-0.1617,-0.1617,-0.1601,-0.1594,-0.1613,-0.1585,-0.1562,-0.157,-0.1521,-0.146,-0.1399,-0.1358,-0.1323,-0.1294,-0.129,-0.1286,-0.1275,-0.1273,-0.1269,-0.1337,-0.1267,-0.1273,-0.1273,-0.1284,-0.129,-0.129,-0.129,-0.129,-0.129,-0.0161,0.0402,0.0482,0.2309,0.3252,0.3491,0.4325,0.4779,-0.7865,-0.788,-0.7522,-0.6321,-0.6175,-0.6044,-0.4637,-0.4154,-0.3906,-0.3899,-0.338,-0.2992,0.0,0.0,-0.1921,-0.1959,-0.1923,-0.1784,-0.1875,-0.1889,-0.189,0.0,0.0,0.0,0.0,0.0,0.0,-0.1927,0.0,-0.1975,-0.1977,-0.1977,-0.1977,-0.1977,-0.1977,-0.1977,-0.1977,-0.1977,-0.1962,-0.1934,-0.193,-0.1898,-0.1842,-0.1839,-0.1822,-0.1795,-0.1795,-0.1908,-0.2132,-0.1907,-0.2132,-0.2581,-0.202,-0.202,-0.2127,-0.1871,-0.1859,-0.1845,-0.165,-0.1619,-0.1619,-0.1617,-0.1617,-0.1617,-0.1617,-0.1617,-0.1617,-0.1617,-0.1617,-0.1617,-0.1617,-0.1617,-0.1617,-0.1617,-0.1617,-0.1617,-0.1617,-0.1617,-0.1617,-0.1617,-0.1617,-0.1607,-0.1577,-0.1522,-0.1463,-0.1403,-0.1393,-0.1382,-0.1267,-0.1263,-0.1337,-0.1308,-0.1305,-0.1293,-0.1264,-0.1288,-0.1305,-0.1305,-0.1332,-0.1263,-0.1263,-0.1263,-0.1263,-0.1263,-0.1263,-0.0421,0.1176,0.1478,0.2436,0.4068,0.453,0.4716,-0.8948,-0.9142,-0.9226,-0.8055,-0.7722,-0.7571,-0.7065,-0.6052,-0.5167,-0.4604,-0.3727,-0.2864,0.0,0.0,0.0,-0.1879,-0.1807,0.0,-0.1907,-0.1939,0.0,0.0,0.0,-0.1899,-0.1877,-0.1895,0.0,0.0,-0.1939,-0.1952,-0.1975,-0.1977,-0.1977,-0.1977,-0.1977,-0.1977,-0.1977,-0.1977,-0.1973,-0.1964,-0.1919,-0.1889,-0.1872,-0.1827,-0.1802,-0.1795,-0.1795,-0.1795,-0.1907,-0.1795,-0.1907,-0.202,-0.1907,-0.202,-0.2239,-0.2091,-0.2188,-0.2393,-0.23,-0.1959,-0.1647,-0.1624,-0.1617,-0.1617,-0.1617,-0.1617,-0.1617,-0.1617,-0.1617,-0.1617,-0.1617,-0.1617,-0.1617,-0.1617,-0.1617,-0.1617,-0.1617,-0.1617,-0.1617,-0.1617,-0.1617,-0.1607,-0.1577,-0.154,-0.1502,-0.1463,-0.1438,-0.1405,-0.127,-0.1263,-0.1261,-0.1337,-0.1337,-0.1333,-0.1326,-0.1332,-0.1337,-0.1337,-0.126,-0.1263,-0.1263,-0.1263,-0.1263,-0.1263,-0.0673,-0.0504,-0.0673,0.1667,0.2742,0.2578,0.438,0.5197,-1.0465,-1.0749,-1.089,-0.9582,-0.916,-0.8761,-0.7696,-0.6413,-0.5277,-0.4547,-0.3534,0.0,0.0,0.0,0.0,0.0,0.0,0.0,-0.1875,-0.1929,-0.1955,0.0,-0.1951,0.0,-0.1945,-0.196,-0.1975,0.0,-0.1966,-0.1958,-0.1975,-0.1977,-0.1977,-0.1977,-0.1977,-0.1977,-0.1977,-0.1977,-0.1977,-0.1976,-0.1942,-0.1919,-0.1904,-0.1856,-0.1827,-0.1814,0.0,-0.1907,-0.202,-0.202,-0.2131,-0.2354,-0.2131,-0.2132,-0.2353,-0.2109,-0.2102,-0.2204,-0.2251,-0.2019,-0.1797,-0.1737,-0.1727,-0.1635,-0.1621,-0.1617,-0.1617,-0.1617,-0.1617,-0.1617,-0.1617,-0.1617,-0.1617,-0.1617,-0.1617,-0.1617,-0.1617,-0.1617,-0.1617,-0.1617,-0.1617,-0.1607,-0.1577,-0.1557,-0.1531,-0.1487,-0.1466,-0.1438,-0.1393,-0.1386,-0.1381,-0.1368,-0.1367,-0.1361,-0.1265,-0.1359,-0.1367,-0.1367,-0.1379,-0.1386,-0.1386,-0.1386,-0.1386,-0.1386,-0.0865,-0.0692,-0.0693,0.1198,0.2297,0.2636,0.4552,0.5457,-1.1776,-1.2235,-1.2298,-1.0838,-1.0499,-0.9848,-0.7621,-0.6243,-0.5138,-0.4228,0.0,0.0,-0.2406,0.0,-0.1861,-0.194,0.0,-0.1669,-0.1819,-0.1889,-0.1938,-0.1973,-0.1979,-0.1992,-0.2016,-0.2022,-0.2034,-0.2056,-0.2015,-0.1986,-0.1982,-0.1982,-0.198,-0.1977,-0.1977,-0.1977,-0.1977,-0.1977,-0.1977,-0.1977,-0.1973,-0.1956,-0.193,-0.1896,-0.1866,-0.1838,-0.1808,0.0,-0.2244,-0.2244,-0.2579,-0.3026,-0.2468,-0.2468,-0.2693,-0.2132,-0.1907,-0.2014,-0.187,-0.1859,-0.1844,-0.196,-0.1846,-0.1656,-0.1626,-0.162,-0.1623,-0.1623,-0.1623,-0.1623,-0.1623,-0.162,-0.1617,-0.1617,-0.1617,-0.1617,-0.1617,-0.1617,-0.1617,-0.1617,-0.1617,-0.1609,-0.1582,-0.1575,-0.1553,-0.15,-0.1486,-0.1471,-0.1444,-0.1438,-0.1425,-0.1399,-0.1396,-0.1386,-0.1276,-0.1382,-0.1396,-0.1396,-0.1421,-0.1436,-0.1436,-0.1436,-0.1436,-0.1436,-0.1436,-0.0987,-0.0179,0.0528,0.1654,0.3303,0.4787,0.551,-1.2292,-1.2605,-1.2616,-1.2302,-1.1811,-1.126,-1.0025,-0.7918,0.0,0.0,0.0,-0.2285,-0.2214,-0.2147,0.0,-0.1901,0.0,0.0,0.0,0.0,-0.1915,0.0,0.0,0.0,0.0,0.0,0.0,0.0,0.0,-0.2037,-0.2012,-0.2011,-0.2001,-0.1977,-0.1977,-0.1977,-0.1977,-0.1977,-0.1977,-0.1976,-0.1951,-0.1937,-0.1929,-0.1874,-0.196,-0.2184,-0.2147,0.0,-0.2581,-0.2581,-0.2693,-0.2805,-0.2693,-0.2805,-0.3026,-0.2692,-0.2691,-0.2795,-0.253,-0.2297,-0.2066,-0.1885,-0.1762,-0.1656,-0.1626,-0.1635,-0.1654,-0.1654,-0.1654,-0.1654,-0.1654,-0.1636,-0.1617,-0.1617,-0.1617,-0.1617,-0.1617,-0.1617,-0.1617,-0.1617,-0.1617,-0.1615,-0.161,-0.1588,-0.1568,-0.1557,-0.1513,-0.1479,-0.1473,-0.1451,-0.1433,-0.1428,-0.1427,-0.1425,-0.1421,-0.1425,-0.1427,-0.1427,-0.1432,-0.1436,-0.1436,-0.1436,-0.1436,-0.1436,-0.1436,-0.1345,-0.1166,0.0891,0.2044,0.2399,0.461,0.5673,-1.2442,-1.2698,-1.2747,-1.2377,-1.1886,-1.104,-0.9376,0.0,0.0,0.0,0.0,-0.2189,-0.2227,0.0,0.0,0.0,0.0,0.0,0.0,0.0,0.0,0.0,0.0,0.0,0.0,0.0,0.0,0.0,0.0,-0.2078,-0.2001,-0.1996,-0.199,-0.1977,-0.1977,-0.1977,-0.1977,-0.1977,-0.1977,-0.1976,-0.1962,-0.2076,-0.2195,-0.2145,-0.2229,-0.2559,-0.2517,0.0,-0.2693,-0.2805,-0.2915,-0.2915,-0.2915,-0.3027,-0.3026,-0.2806,-0.279,-0.2767,-0.2549,-0.2301,-0.2044,-0.1799,-0.1674,-0.166,-0.1645,-0.1651,-0.1662,-0.1662,-0.1662,-0.1659,-0.1643,-0.1628,-0.1617,-0.1617,-0.1617,-0.1617,-0.1617,-0.1617,-0.1617,-0.1617,-0.1617,-0.1617,-0.1617,-0.1605,-0.159,-0.1574,-0.1533,-0.1504,-0.1504,-0.1464,-0.1436,-0.1436,-0.1436,-0.1436,-0.1436,-0.1436,-0.1436,-0.1436,-0.1436,-0.1436,-0.1436,-0.1436,-0.1436,-0.1436,-0.1436,-0.1436,-0.1436,0.0537,0.1697,0.2144,0.4567,0.5738,-1.2414,-1.2641,-1.2657,-1.2154,-1.1565,-1.0594,-0.8509,-0.6873,0.0,0.0,0.0,-0.2202,-0.2202,0.0,0.0,0.0,0.0,0.0,0.0,0.0,0.0,0.0,0.0,0.0,0.0,0.0,0.0,0.0,0.0,0.0,-0.2,-0.1984,-0.1977,-0.1977,-0.1977,-0.1977,-0.1977,-0.1977,-0.1977,-0.1977,-0.1977,-0.2222,-0.2466,-0.2427,-0.2628,-0.294,-0.2893,0.0,0.0,-0.3138,-0.325,-0.325,-0.325,-0.325,-0.3138,-0.2917,-0.2781,-0.2643,-0.2336,-0.2193,-0.2035,-0.1813,-0.1685,-0.1661,-0.1654,-0.1657,-0.1662,-0.1662,-0.1662,-0.1656,-0.1633,-0.1622,-0.1617,-0.1617,-0.1617,-0.1617,-0.1617,-0.1617,-0.1617,-0.1617,-0.1617,-0.1617,-0.1617,-0.1617,-0.1609,-0.1585,-0.1555,-0.1534,-0.1527,-0.1484,-0.145,-0.1437,-0.1436,-0.1436,-0.1436,-0.1436,-0.1436,-0.1436,-0.1436,-0.1436,-0.1436,-0.1436,-0.1436,-0.1436,-0.1436,-0.1436,-0.1436,0.0358,0.1519,0.2144,0.4569,0.5741,-1.2231,-1.2458,-1.2499,-1.2121,-1.1378,-1.0404,-0.9023,0.0,0.0,0.0,-0.3033,-0.2135,-0.2135,-0.217,0.0,0.0,0.0,0.0,0.0,0.0,0.0,0.0,0.0,0.0,0.0,0.0,0.0,0.0,0.0,0.0,-0.2055,-0.2005,-0.1977,-0.1977,-0.1977,-0.1977,-0.1977,-0.1977,-0.1977,-0.1977,-0.1977,-0.2222,-0.2466,-0.2427,-0.2748,-0.3293,-0.324,0.0,0.0,-0.3587,-0.3587,-0.3587,-0.3587,-0.3587,-0.3475,-0.3138,-0.3023,-0.3014,-0.2423,-0.2188,-0.2177,-0.1821,-0.1685,-0.1657,-0.1629,-0.164,-0.1662,-0.1662,-0.1662,-0.1662,-0.1659,-0.1637,-0.1617,-0.1617,-0.1617,-0.1617,-0.1617,-0.1617,-0.1617,-0.1617,-0.1617,-0.1617,-0.1617,-0.1617,-0.1615,-0.1613,-0.1587,-0.1557,-0.153,-0.1521,-0.1496,-0.1441,-0.1436,-0.1436,-0.1436,-0.1436,-0.1436,-0.1436,-0.1436,-0.1436,-0.1436,-0.1436,-0.1436,-0.1436,-0.1436,-0.1436,-0.1436,0.0894,0.2054,0.2144,0.4563,0.5735,-1.1634,-1.2109,-1.2296,-1.1825,-1.1037,-0.9864,-0.7813,0.0,0.0,-0.3305,-0.2578,-0.2183,-0.2183,-0.2157,-0.2237,0.0,0.0,0.0,0.0,0.0,0.0,0.0,0.0,0.0,0.0,0.0,0.0,0.0,0.0,0.0,-0.2035,-0.1999,-0.1977,-0.1977,-0.1977,-0.1977,-0.1977,-0.1977,-0.1977,-0.1977,-0.2222,-0.2468,-0.2836,-0.2914,-0.3228,-0.3647,-0.3473,0.0,0.0,-0.3587,-0.3587,-0.3587,-0.3587,-0.3587,-0.3587,-0.3474,-0.334,-0.3314,-0.2882,-0.2629,-0.2371,-0.2054,-0.1818,-0.1685,-0.1673,-0.1678,-0.1684,-0.1667,-0.1662,-0.1658,-0.1639,-0.1626,-0.1617,-0.1617,-0.1617,-0.1617,-0.1617,-0.1617,-0.1617,-0.1617,-0.1617,-0.1617,-0.1617,-0.1617,-0.1617,-0.1617,-0.1591,-0.1574,-0.158,-0.1533,-0.1496,-0.149,-0.1474,-0.1455,-0.1437,-0.1436,-0.1436,-0.1436,-0.1436,-0.1436,-0.1436,-0.1436,-0.1436,-0.1436,-0.1436,-0.1076,-0.0269,0.1341,0.25,0.3215,0.4921,0.5733,-1.0887,-1.1537,-1.1882,-1.1451,-1.0445,-0.913,0.0,0.0,-0.4281,-0.2802,-0.2354,-0.2221,-0.2221,-0.2221,-0.2188,-0.2292,0.0,0.0,0.0,0.0,0.0,0.0,0.0,0.0,0.0,0.0,0.0,0.0,0.0,0.0,-0.2005,-0.1988,-0.1977,-0.1977,-0.1977,-0.1977,-0.1977,-0.1977,-0.1977,-0.1977,-0.2345,-0.2714,-0.2959,-0.3279,-0.3587,-0.3766,-0.3704,0.0,0.0,-0.3587,-0.3587,-0.3587,-0.3587,-0.3587,-0.3587,-0.3587,-0.356,-0.3527,-0.3219,-0.2859,-0.2598,-0.2277,-0.1944,-0.1714,-0.1697,-0.1692,-0.1686,-0.1657,-0.1649,-0.1646,-0.1634,-0.1624,-0.1619,-0.1628,-0.1624,-0.1617,-0.1617,-0.1617,-0.1617,-0.1617,-0.1617,-0.1617,-0.1617,-0.1617,-0.1617,-0.1617,-0.1598,-0.159,-0.1602,-0.1555,-0.1522,-0.1525,-0.1515,-0.1488,-0.144,-0.1444,-0.1444,-0.1436,-0.1436,-0.1436,-0.1436,-0.1436,-0.1436,-0.1436,-0.1436,-0.0986,-0.009,0.134,0.25,0.3393,0.501,0.5714,-1.003,-1.0692,-1.1191,-1.1017,-0.9659,-0.8229,0.0,0.0,-0.3689,-0.3273,-0.2686,-0.2221,-0.2221,-0.2221,-0.2174,-0.2236,-0.2342,0.0,0.0,0.0,0.0,0.0,0.0,0.0,0.0,0.0,0.0,0.0,0.0,0.0,-0.1978,-0.1977,-0.1977,-0.1977,-0.1977,-0.1977,-0.1977,-0.1977,-0.1977,-0.1977,-0.2345,-0.2714,-0.2959,-0.3279,-0.3587,0.0,0.0,0.0,0.0,-0.3587,-0.3587,-0.3587,-0.3587,-0.3587,-0.3587,-0.3587,-0.3587,-0.3578,-0.3192,-0.2878,-0.2677,-0.2264,-0.2049,-0.1738,-0.168,-0.1662,-0.1656,-0.1626,-0.1617,-0.1624,-0.1654,-0.1639,-0.1624,-0.1654,-0.1639,-0.1617,-0.1617,-0.1617,-0.1617,-0.1617,-0.1617,-0.1617,-0.1617,-0.1617,-0.1617,-0.1617,-0.1616,-0.1606,-0.1576,-0.1597,-0.1592,-0.1532,-0.1553,-0.1534,-0.1443,-0.1463,-0.1468,-0.1437,-0.1436,-0.1436,-0.1436,-0.1436,-0.1436,-0.1436,-0.1436,-0.1436,-0.1345,0.0983,0.2144,0.2144,0.4563,0.5667,-0.8515,-0.9043,-0.9264,-0.8702,-0.7919,-0.6841,-0.5445,0.0,-0.3397,-0.2646,-0.2354,-0.2221,-0.2221,-0.2221,-0.2202,-0.2125,-0.2175,0.0,0.0,0.0,0.0,0.0,0.0,0.0,0.0,0.0,0.0,0.0,0.0,0.0,-0.1977,-0.1977,-0.1977,-0.1977,-0.1977,-0.1977,-0.1977,-0.1977,-0.2099,-0.2345,-0.2715,-0.2945,-0.3278,-0.3586,-0.3647,0.0,0.0,0.0,0.0,-0.3587,-0.3587,-0.3587,-0.3587,-0.3587,-0.3582,-0.3541,-0.3525,-0.3518,-0.3353,-0.3129,-0.2812,-0.2567,-0.2246,-0.1925,-0.1779,-0.1662,-0.1656,-0.1626,-0.1617,-0.1624,-0.1654,-0.1639,-0.1624,-0.1655,-0.1639,-0.1617,-0.1617,-0.1617,-0.1617,-0.1617,-0.1617,-0.1617,-0.1617,-0.1617,-0.1617,-0.1617,-0.1617,-0.1613,-0.1604,-0.1593,-0.1579,-0.1559,-0.1566,-0.1543,-0.1472,-0.1475,-0.1468,-0.1438,-0.1436,-0.1436,-0.1436,-0.1436,-0.1436,-0.1436,-0.1436,-0.0896,0.0269,0.1519,0.2948,0.4563,0.5371,0.5711,0.0,-0.7931,-0.8147,-0.7355,-0.6676,-0.5755,-0.437,-0.3521,-0.2827,-0.2228,-0.2151,-0.2158,-0.2182,-0.212,-0.2029,-0.2013,-0.1993,0.0,0.0,0.0,0.0,0.0,0.0,0.0,0.0,0.0,0.0,0.0,0.0,0.0,-0.1977,-0.1977,-0.1977,-0.1977,-0.1977,-0.1977,-0.1977,-0.1977,-0.2223,-0.2467,-0.2821,-0.3165,-0.3374,-0.3655,-0.3714,0.0,0.0,0.0,0.0,-0.3587,-0.3587,-0.3587,-0.3587,-0.3587,-0.3582,-0.3545,-0.3516,-0.3492,-0.3456,-0.3215,-0.2982,-0.2644,-0.231,-0.1876,-0.1753,-0.1645,-0.1641,-0.1622,-0.1625,-0.1641,-0.167,-0.1656,-0.1641,-0.1671,-0.1647,-0.1617,-0.1617,-0.1617,-0.1617,-0.1617,-0.1617,-0.1617,-0.1617,-0.1617,-0.1617,-0.1617,-0.1617,-0.1617,-0.1617,-0.16,-0.1589,-0.1589,-0.1589,-0.1568,-0.1519,-0.1504,-0.1485,-0.1455,-0.1442,-0.1436,-0.1436,-0.1436,-0.1436,-0.1436,-0.1436,-0.0628,0.0806,0.2056,0.3755,0.5733,0.5733,0.5708,0.0,0.0,0.0,0.0,0.0,-0.4689,-0.3837,-0.286,0.0,-0.1984,-0.1971,-0.1993,-0.2063,-0.1939,-0.1828,-0.1899,0.0,0.0,0.0,0.0,0.0,0.0,0.0,0.0,0.0,0.0,0.0,0.0,0.0,0.0,-0.1977,-0.1977,-0.1975,-0.1973,-0.1973,-0.1973,-0.1973,-0.1975,-0.222,-0.2582,-0.279,-0.3131,-0.3481,-0.3613,-0.3676,0.0,0.0,0.0,0.0,-0.3587,-0.3587,-0.3587,-0.3587,-0.3587,-0.3587,-0.3582,-0.3542,-0.3491,-0.3485,-0.3231,-0.2965,-0.2602,-0.2048,-0.1617,-0.1617,-0.1617,-0.1617,-0.1617,-0.1639,-0.1669,-0.1697,-0.1683,-0.1669,-0.1697,-0.1659,-0.1617,-0.1617,-0.1617,-0.1617,-0.1617,-0.1617,-0.1617,-0.1617,-0.1617,-0.1617,-0.1617,-0.1617,-0.1617,-0.1617,-0.1617,-0.1617,-0.1617,-0.1617,-0.1605,-0.1577,-0.1547,-0.1515,-0.1483,-0.1454,-0.1438,-0.1436,-0.1436,-0.1436,-0.1436,-0.1256,-0.0538,0.0717,0.2774,0.4387,0.5733,0.5733,0.5673,-0.5013,0.0,-0.5118,-0.4501,-0.3851,-0.3181,0.0,-0.2165,-0.1989,0.0,0.0,0.0,0.0,0.0,0.0,0.0,0.0,0.0,0.0,0.0,0.0,0.0,0.0,0.0,0.0,0.0,0.0,0.0,0.0,-0.1977,-0.1977,-0.1977,-0.1966,-0.1943,-0.1942,-0.1942,-0.1942,-0.1965,-0.2196,-0.2738,-0.2882,-0.3214,-0.3603,-0.3691,-0.3653,0.0,0.0,0.0,-0.3587,-0.3587,-0.3587,-0.3587,-0.3587,-0.3587,-0.3582,-0.3536,-0.3481,-0.3425,-0.3379,-0.3219,-0.3066,-0.2543,-0.2027,-0.1617,-0.1617,-0.1617,-0.1617,-0.1617,-0.1639,-0.1669,-0.1697,-0.1683,-0.1669,-0.1697,-0.1659,-0.1617,-0.1617,-0.1617,-0.1617,-0.1617,-0.1617,-0.1617,-0.1617,-0.1617,-0.1617,-0.1617,-0.1617,-0.1617,-0.1617,-0.1617,-0.1617,-0.1617,-0.1617,-0.1614,-0.1607,-0.1579,-0.1538,-0.1484,-0.1474,-0.1459,-0.1436,-0.1436,-0.1436,-0.1436,0.0358,0.1611,0.2325,0.43,0.5382,0.5733,0.5733,0.5719,-0.4519,-0.4343,-0.3996,-0.337,-0.3009,-0.2642,0.0,0.0,0.0,0.0,0.0,0.0,0.0,0.0,0.0,0.0,0.0,0.0,0.0,0.0,0.0,0.0,0.0,0.0,0.0,0.0,0.0,0.0,0.0,-0.1977,-0.1977,-0.1977,-0.1962,-0.1932,-0.1931,-0.1924,-0.1911,-0.1926,-0.2277,-0.2824,-0.283,-0.3157,-0.3677,-0.365,-0.3619,0.0,0.0,0.0,-0.3587,-0.3587,-0.3587,-0.3587,-0.3587,-0.3587,-0.3583,-0.355,-0.3485,-0.3407,-0.3375,-0.3098,-0.2826,-0.2522,-0.2031,-0.1635,-0.1621,-0.1636,-0.1654,-0.1641,-0.1659,-0.1688,-0.1718,-0.1714,-0.1703,-0.1704,-0.167,-0.1634,-0.162,-0.1617,-0.1617,-0.1617,-0.1617,-0.1617,-0.1617,-0.1617,-0.1617,-0.1617,-0.1617,-0.1617,-0.1617,-0.1617,-0.1617,-0.1617,-0.1617,-0.1617,-0.1617,-0.1602,-0.1572,-0.1525,-0.1509,-0.1494,-0.1478,-0.1477,-0.1287,-0.1092,0.1272,0.3074,0.4214,0.5109,0.5649,0.5733,0.5733,0.5733,-0.4239,-0.3857,-0.3325,-0.2882,-0.271,-0.2543,0.0,0.0,0.0,0.0,0.0,0.0,0.0,0.0,0.0,0.0,0.0,0.0,0.0,0.0,0.0,0.0,0.0,0.0,0.0,0.0,0.0,0.0,0.0,-0.1969,-0.1969,-0.1969,-0.1954,-0.1918,-0.1922,-0.1907,-0.1872,-0.1881,-0.2233,-0.2804,-0.2775,-0.3102,-0.3662,-0.361,-0.3587,-0.3587,0.0,0.0,-0.3587,-0.3587,-0.3582,-0.3574,-0.3574,-0.3574,-0.3574,-0.3574,-0.3504,-0.341,-0.3391,-0.2902,-0.2423,-0.243,-0.205,-0.1658,-0.1637,-0.1665,-0.17,-0.1681,-0.169,-0.1709,-0.1731,-0.1736,-0.173,-0.1704,-0.1676,-0.1648,-0.1622,-0.1617,-0.1617,-0.1617,-0.1617,-0.1617,-0.1617,-0.1617,-0.1617,-0.1617,-0.1617,-0.1617,-0.1617,-0.1617,-0.1617,-0.1617,-0.1617,-0.1617,-0.1617,-0.1617,-0.1606,-0.158,-0.155,-0.1531,-0.1526,-0.1526,-0.123,-0.0651,0.1392,0.3593,0.5724,0.5505,0.5578,0.576,0.5741,0.5733,-0.3125,-0.2682,-0.2448,-0.2738,-0.2458,-0.208,0.0,0.0,0.0,0.0,0.0,0.0,0.0,0.0,0.0,0.0,0.0,0.0,0.0,0.0,0.0,0.0,0.0,0.0,0.0,0.0,0.0,0.0,0.0,-0.1938,-0.1938,-0.1938,-0.1912,-0.1856,-0.1879,-0.1866,-0.1809,-0.186,-0.2209,-0.2714,-0.2747,-0.2969,-0.3601,-0.3591,-0.3587,-0.3587,0.0,-0.3587,-0.3587,-0.3587,-0.3557,-0.3511,-0.3511,-0.3511,-0.3511,-0.3511,-0.3469,-0.3398,-0.3294,-0.2839,-0.2428,-0.2467,-0.2175,-0.1666,-0.1685,-0.1697,-0.1709,-0.173,-0.172,-0.1699,-0.1681,-0.1675,-0.1675,-0.167,-0.1646,-0.1622,-0.1618,-0.1617,-0.1617,-0.1617,-0.1617,-0.1617,-0.1617,-0.1617,-0.1617,-0.1617,-0.1617,-0.1617,-0.1617,-0.1617,-0.1617,-0.1617,-0.1617,-0.1617,-0.1617,-0.1617,-0.1615,-0.161,-0.1581,-0.1553,-0.1527,-0.1526,-0.1047,-0.0095,0.0284,0.227,0.6059,0.5757,0.57,0.5874,0.5779,0.5733,-0.2847,-0.2342,-0.202,-0.2176,-0.2062,-0.1933,-0.1774,0.0,0.0,0.0,0.0,0.0,0.0,0.0,0.0,0.0,0.0,0.0,0.0,0.0,0.0,0.0,0.0,0.0,0.0,0.0,0.0,0.0,0.0,0.0,-0.1931,-0.1915,-0.1894,-0.1866,-0.1862,-0.184,-0.1795,-0.1806,-0.2146,-0.2693,-0.2715,-0.3038,-0.354,-0.3572,-0.3553,-0.3496,0.0,-0.3568,-0.3541,-0.3574,-0.3552,-0.3496,-0.3496,-0.3477,-0.3451,-0.3451,-0.3435,-0.3399,-0.3103,-0.2766,-0.2457,-0.2251,-0.197,-0.1682,-0.1662,-0.169,-0.1722,-0.1688,-0.1703,-0.1726,-0.1713,-0.171,-0.1701,-0.167,-0.1652,-0.1637,-0.162,-0.1617,-0.1622,-0.1638,-0.1628,-0.1622,-0.1639,-0.1628,-0.1617,-0.1617,-0.1617,-0.1617,-0.1617,-0.1617,-0.1617,-0.1617,-0.1617,-0.1617,-0.1617,-0.1617,-0.1617,-0.1617,-0.1604,-0.159,-0.1576,-0.1575,-0.1371,-0.0872,-0.029,0.0961,0.2854,0.4906,0.5919,0.5914,0.595,0.5923,-0.2627,-0.219,-0.1848,-0.1685,0.0,-0.1786,-0.1606,0.0,0.0,0.0,0.0,0.0,0.0,0.0,0.0,0.0,0.0,0.0,0.0,0.0,0.0,0.0,0.0,0.0,0.0,0.0,0.0,0.0,0.0,0.0,-0.191,-0.1888,-0.1872,-0.1865,-0.1849,-0.1822,-0.1785,-0.1761,-0.2096,-0.2693,-0.2672,-0.2979,-0.3497,-0.3545,-0.351,-0.3418,-0.3522,-0.354,-0.35,-0.3546,-0.353,-0.3477,-0.3477,-0.345,-0.3413,-0.3413,-0.3421,-0.3424,-0.3048,-0.2707,-0.2486,-0.2156,-0.1872,-0.1687,-0.1649,-0.1685,-0.1725,-0.1656,-0.1686,-0.1736,-0.1722,-0.1718,-0.1707,-0.1662,-0.1652,-0.1645,-0.1622,-0.1617,-0.1626,-0.1656,-0.1638,-0.1626,-0.1657,-0.1637,-0.1617,-0.1617,-0.1617,-0.1617,-0.1617,-0.1617,-0.1617,-0.1617,-0.1617,-0.1617,-0.1617,-0.1617,-0.1617,-0.1617,-0.1516,-0.1516,-0.1617,-0.1617,-0.1606,-0.1583,-0.0592,-0.0,-0.0,0.3743,0.5658,0.614,0.6102,0.6086,-0.2018,-0.1937,-0.188,-0.1433,0.0,0.0,-0.1678,0.0,0.0,0.0,0.0,0.0,0.0,0.0,0.0,0.0,0.0,0.0,0.0,0.0,0.0,0.0,0.0,0.0,0.0,0.0,0.0,0.0,0.0,0.0,-0.1847,-0.1844,-0.183,-0.1802,-0.1827,-0.1812,-0.1753,-0.175,-0.2096,-0.2692,-0.2608,-0.291,-0.3496,-0.35,-0.347,-0.3416,-0.3477,-0.35,-0.3496,-0.3501,-0.347,-0.3418,-0.3418,-0.3416,-0.3413,-0.3413,-0.3446,-0.3482,-0.3103,-0.2736,-0.2495,-0.2218,-0.1894,-0.1669,-0.1691,-0.1703,-0.1706,-0.1699,-0.1703,-0.1695,-0.1641,-0.1626,-0.1625,-0.1621,-0.162,-0.162,-0.1617,-0.1617,-0.1626,-0.1656,-0.1638,-0.1626,-0.1657,-0.1637,-0.1617,-0.1617,-0.1617,-0.1617,-0.1617,-0.1617,-0.1617,-0.1617,-0.1617,-0.1617,-0.1617,-0.1617,-0.1617,-0.1617,-0.1111,-0.1111,-0.1617,-0.1617,-0.1615,-0.1613,-0.0504,-0.0,-0.0,0.2267,0.4399,0.6365,0.6143,0.6086,-0.185,-0.1764,-0.1709,-0.1345,0.0,0.0,0.0,0.0,0.0,0.0,0.0,0.0,0.0,0.0,0.0,0.0,0.0,0.0,0.0,0.0,0.0,0.0,0.0,0.0,0.0,0.0,0.0,0.0,0.0,0.0,0.0,-0.1794,-0.1778,-0.1767,-0.176,-0.1744,-0.1722,-0.1704,-0.1924,-0.2391,-0.2574,-0.2871,-0.3388,-0.3427,-0.3391,-0.3305,-0.3402,-0.3422,-0.3391,-0.3428,-0.341,-0.3352,-0.3313,-0.3298,-0.3304,-0.3342,-0.3287,-0.3118,-0.2884,-0.2546,-0.2214,-0.1995,-0.1776,-0.1661,-0.1652,-0.1663,-0.1674,-0.1655,-0.165,-0.1649,-0.1646,-0.1645,-0.164,-0.1622,-0.1617,-0.1617,-0.1617,-0.1617,-0.1631,-0.1679,-0.1665,-0.1654,-0.1683,-0.1665,-0.1639,-0.162,-0.1617,-0.1617,-0.1617,-0.1617,-0.1617,-0.1617,-0.1313,-0.1212,-0.1617,-0.1617,-0.1314,-0.0606,-0.0404,-0.0404,-0.0606,-0.1212,-0.1313,-0.0606,-0.0202,-0.0,-0.0,0.08,0.2992,0.6404,0.6347,0.6314,-0.174,-0.1623,-0.1612,0.0,0.0,0.0,0.0,0.0,0.0,0.0,0.0,0.0,0.0,0.0,0.0,0.0,0.0,0.0,0.0,0.0,0.0,0.0,0.0,0.0,0.0,0.0,0.0,0.0,0.0,0.0,0.0,-0.1752,-0.1735,-0.1735,-0.1715,-0.17,-0.1691,-0.1672,-0.1876,-0.2304,-0.241,-0.2715,-0.3218,-0.326,-0.3327,-0.3236,-0.3339,-0.336,-0.3324,-0.3367,-0.336,-0.3315,-0.3152,-0.3141,-0.3264,-0.3099,-0.3044,-0.2984,-0.2558,-0.2335,-0.2109,-0.1773,-0.1656,-0.1644,-0.1623,-0.1632,-0.1643,-0.1623,-0.1617,-0.1622,-0.1642,-0.1648,-0.1647,-0.1645,-0.1638,-0.1634,-0.1642,-0.1644,-0.1659,-0.1709,-0.1695,-0.1684,-0.1714,-0.1688,-0.1655,-0.1635,-0.1623,-0.1617,-0.1617,-0.1617,-0.1617,-0.1617,-0.1313,-0.1111,-0.1111,-0.1111,-0.0808,-0.0,-0.0,-0.0,-0.0,-0.0707,-0.0707,-0.0,-0.0,-0.0,-0.0,0.0706,0.2519,0.5454,0.6055,0.6448,-0.1629,-0.1573,0.0,0.0,0.0,0.0,0.0,0.0,0.0,0.0,0.0,0.0,0.0,0.0,0.0,0.0,0.0,0.0,0.0,0.0,0.0,0.0,0.0,0.0,0.0,0.0,0.0,0.0,0.0,0.0,0.0,-0.172,-0.1703,-0.1703,-0.1703,-0.169,-0.1662,-0.1662,-0.1955,-0.2422,-0.2422,-0.2547,-0.2905,-0.3217,-0.3288,-0.3234,-0.3294,-0.332,-0.332,-0.332,-0.332,-0.3211,-0.2949,-0.2961,-0.3217,-0.2696,-0.2728,-0.2878,-0.2344,-0.2105,-0.2074,-0.1766,-0.1641,-0.1617,-0.1617,-0.1617,-0.1617,-0.1617,-0.1617,-0.1617,-0.1617,-0.1617,-0.1632,-0.169,-0.1683,-0.167,-0.1698,-0.1704,-0.1713,-0.1744,-0.1725,-0.1714,-0.1744,-0.1701,-0.1662,-0.1662,-0.1637,-0.1617,-0.1617,-0.1617,-0.1617,-0.1617,-0.1617,-0.1212,-0.0101,-0.0,-0.0,-0.0,-0.0,-0.0,-0.0,-0.0,-0.0,-0.0,-0.0,-0.0,-0.0,0.2218,0.3224,0.3324,0.5432,0.6437,-0.1629,0.0,0.0,0.0,0.0,0.0,0.0,0.0,0.0,0.0,0.0,0.0,0.0,0.0,0.0,0.0,0.0,0.0,0.0,0.0,0.0,0.0,0.0,0.0,0.0,0.0,0.0,0.0,0.0,0.0,0.0,-0.168,-0.1665,-0.1643,-0.1643,-0.1639,-0.163,-0.163,-0.1829,-0.2122,-0.2321,-0.2631,-0.3156,-0.3156,-0.3247,-0.3232,-0.3249,-0.3258,-0.3258,-0.3258,-0.3156,-0.295,-0.2832,-0.2734,-0.2645,-0.2442,-0.2368,-0.2301,-0.2196,-0.1981,-0.1765,-0.1766,-0.1641,-0.1617,-0.1617,-0.1617,-0.1617,-0.1617,-0.1617,-0.1622,-0.1643,-0.1649,-0.1653,-0.1671,-0.1684,-0.1694,-0.1703,-0.1704,-0.1713,-0.1744,-0.1742,-0.1739,-0.1748,-0.1718,-0.1685,-0.1665,-0.1637,-0.1617,-0.1617,-0.1617,-0.1617,-0.1617,-0.1617,-0.1212,-0.0101,-0.0,-0.0,-0.0,-0.0,-0.0,-0.0,-0.0,-0.0,-0.0,-0.0,-0.0,-0.0,0.3636,0.5461,0.5457,0.6055,0.6448,-0.1459,0.0,0.0,0.0,0.0,0.0,0.0,0.0,0.0,0.0,0.0,0.0,0.0,0.0,0.0,0.0,0.0,0.0,0.0,0.0,0.0,0.0,0.0,0.0,0.0,0.0,0.0,0.0,0.0,0.0,0.0,-0.1651,-0.1636,-0.1618,-0.1617,-0.1617,-0.1617,-0.1617,-0.1718,-0.2022,-0.2322,-0.2623,-0.3029,-0.313,-0.323,-0.323,-0.323,-0.313,-0.3029,-0.3029,-0.2927,-0.2826,-0.2524,-0.2423,-0.2422,-0.212,-0.2034,-0.2053,-0.195,-0.1746,-0.1644,-0.1644,-0.1632,-0.1617,-0.1617,-0.1617,-0.1617,-0.1617,-0.1617,-0.1621,-0.1639,-0.1653,-0.1668,-0.1691,-0.1701,-0.1707,-0.172,-0.1722,-0.1727,-0.1746,-0.1759,-0.1767,-0.1767,-0.1742,-0.1712,-0.1683,-0.1643,-0.1617,-0.1617,-0.1415,-0.1314,-0.1617,-0.1212,-0.0707,-0.0101,-0.0,-0.0,-0.0,-0.0,-0.0,-0.0,-0.0,-0.0,-0.0,-0.0,-0.0,-0.0,0.3435,0.5564,0.6377,0.6361,0.6448,0.0,0.0,0.0,0.0,0.0,0.0,0.0,0.0,0.0,0.0,0.0,0.0,0.0,0.0,0.0,0.0,0.0,0.0,0.0,0.0,0.0,0.0,0.0,0.0,0.0,0.0,0.0,0.0,0.0,0.0,0.0,-0.1632,-0.1617,-0.1617,-0.1617,-0.1617,-0.1617,-0.1617,-0.1718,-0.2022,-0.2322,-0.2522,-0.2826,-0.3029,-0.323,-0.313,-0.313,-0.3027,-0.2725,-0.2725,-0.2725,-0.2725,-0.2223,-0.2121,-0.222,-0.1818,-0.1718,-0.1921,-0.1718,-0.1617,-0.1617,-0.1617,-0.1617,-0.1617,-0.1617,-0.1617,-0.1617,-0.1617,-0.1617,-0.1617,-0.1617,-0.1639,-0.1675,-0.1729,-0.1722,-0.1712,-0.1743,-0.1748,-0.1746,-0.1746,-0.1767,-0.1788,-0.1791,-0.1765,-0.1735,-0.1705,-0.1653,-0.1617,-0.1617,-0.1212,-0.101,-0.1415,-0.0606,-0.0,-0.0,-0.0,-0.0,-0.0,-0.0,-0.0,-0.0,-0.0,-0.0,-0.0,-0.0,-0.0,-0.0,0.2116,0.4338,0.6377,0.6448,0.6437,0.0,0.0,0.0,0.0,0.0,0.0,0.0,0.0,0.0,0.0,0.0,0.0,0.0,0.0,0.0,0.0,0.0,0.0,0.0,0.0,0.0,0.0,0.0,0.0,0.0,0.0,0.0,0.0,0.0,0.0,-0.1626,-0.162,-0.1617,-0.1617,-0.1617,-0.1617,-0.1617,-0.1617,-0.1718,0.0,-0.2322,-0.2522,-0.2826,-0.3029,-0.313,-0.2927,-0.2927,-0.2725,-0.2522,-0.2522,-0.2322,-0.2122,-0.2021,-0.192,-0.1717,-0.1617,-0.1617,-0.1718,-0.1617,-0.1617,-0.1617,-0.1617,-0.1617,-0.1617,-0.1617,-0.1617,-0.1617,-0.1617,-0.1617,-0.1617,-0.1617,-0.1639,-0.1665,-0.1678,-0.1693,-0.1712,-0.1743,-0.1731,-0.1714,-0.1714,-0.1719,-0.1731,-0.1755,-0.1734,-0.1704,-0.1675,-0.164,-0.1617,-0.1617,-0.1516,-0.1111,-0.0404,-0.0101,-0.0,-0.0,-0.0,-0.0,-0.0,-0.0,-0.0,-0.0,-0.0,-0.0,-0.0,-0.0,-0.0,-0.0,0.2116,0.4338,0.6377,0.6448,0.6437,0.0,0.0,0.0,0.0,0.0,0.0,0.0,0.0,0.0,0.0,0.0,0.0,0.0,0.0,0.0,0.0,0.0,0.0,0.0,0.0,0.0,0.0,0.0,0.0,0.0,0.0,0.0,0.0,0.0,-0.1617,-0.1617,-0.1617,-0.1617,-0.1617,-0.1617,-0.1617,-0.1617,-0.1617,-0.1718,-0.1819,-0.2221,-0.2623,-0.3027,-0.313,-0.3029,-0.2826,-0.2826,-0.2623,-0.2422,-0.2221,-0.2122,-0.2022,-0.1819,-0.1718,-0.1617,-0.1617,-0.1617,-0.1617,-0.1617,-0.1617,-0.1617,-0.1617,-0.1617,-0.1617,-0.1617,-0.1617,-0.1617,-0.1617,-0.1617,-0.1617,-0.1617,-0.1628,-0.1644,-0.1659,-0.1673,-0.1688,-0.1704,-0.1695,-0.1684,-0.1684,-0.1707,-0.1731,-0.1747,-0.1736,-0.1716,-0.1687,-0.1657,-0.1633,-0.1619,-0.1617,-0.1212,-0.0101,-0.0,-0.0,-0.0,-0.0,-0.0,-0.0,-0.0,-0.0,-0.0,-0.0,-0.0,-0.0,-0.0,-0.0,-0.0,0.2116,0.4338,0.6377,0.625,0.6237,0.0,0.0,0.0,0.0,0.0,0.0,0.0,0.0,0.0,0.0,0.0,0.0,0.0,0.0,0.0,0.0,0.0,0.0,0.0,0.0,0.0,0.0,0.0,0.0,0.0,0.0,0.0,0.0,0.0,-0.1617,-0.1617,-0.1612,-0.1609,-0.1609,-0.1604,-0.1604,-0.1609,-0.1609,-0.1611,-0.1617,-0.2113,-0.2707,-0.32,-0.321,-0.3019,-0.2725,-0.2725,-0.2523,-0.222,-0.2021,-0.1921,-0.1921,-0.1718,-0.1617,-0.1617,-0.1617,-0.1617,-0.1617,-0.1617,-0.1617,-0.1617,-0.1617,-0.1617,-0.1617,-0.1617,-0.1617,-0.1617,-0.1617,-0.1617,-0.1617,-0.1617,-0.1617,-0.1623,-0.1648,-0.1654,-0.1656,-0.1661,-0.1666,-0.1668,-0.1663,-0.171,-0.175,-0.175,-0.175,-0.1739,-0.1709,-0.168,-0.1652,-0.1621,-0.1415,-0.101,-0.0101,-0.0,-0.0,-0.0,-0.0,-0.0,-0.0,-0.0,-0.0,-0.0,-0.0,-0.0,-0.0,-0.0,-0.0,-0.0,0.2116,0.4338,0.6377,0.6152,0.6139,0.0,0.0,0.0,0.0,0.0,0.0,0.0,0.0,0.0,0.0,0.0,0.0,0.0,0.0,0.0,0.0,0.0,0.0,0.0,0.0,0.0,0.0,0.0,0.0,0.0,0.0,0.0,0.0,-0.1602,-0.1617,-0.1617,-0.1592,-0.1577,-0.1577,-0.1552,-0.1551,-0.1577,-0.1577,-0.1591,-0.1616,-0.2085,-0.2634,-0.3075,-0.3128,-0.2882,-0.2422,-0.2422,-0.212,-0.1718,-0.1718,-0.1617,-0.1617,-0.1617,-0.1617,-0.1617,-0.1617,-0.1617,-0.1617,-0.1617,-0.1617,-0.1617,-0.1617,-0.1617,-0.1617,-0.1617,-0.1617,-0.1617,-0.1617,-0.1617,-0.1617,-0.1617,-0.1617,-0.1618,-0.1622,-0.1623,-0.163,-0.1656,-0.1682,-0.1691,-0.1667,-0.171,-0.175,-0.175,-0.175,-0.1739,-0.1709,-0.168,-0.1652,-0.1621,-0.0808,-0.0202,-0.0,-0.0,-0.0,-0.0,-0.0,-0.0,-0.0,-0.0,-0.0,-0.0,-0.0,-0.0,-0.0,-0.0,-0.0,-0.0,0.2116,0.4338,0.6377,0.635,0.6337,0.0,0.0,0.0,0.0,0.0,0.0,0.0,0.0,0.0,0.0,0.0,0.0,0.0,0.0,0.0,0.0,0.0,0.0,0.0,0.0,0.0,0.0,0.0,0.0,0.0,0.0,0.0,0.0,-0.1558,-0.1566,-0.1566,-0.1553,-0.1546,-0.1546,-0.1533,-0.1532,-0.1546,-0.1546,-0.165,-0.1762,-0.2134,-0.2499,-0.2859,-0.2884,-0.273,-0.2583,-0.241,-0.2221,-0.1819,-0.1617,-0.1617,-0.1617,-0.1617,-0.1617,-0.1617,-0.1617,-0.1617,-0.1617,-0.1617,-0.1617,-0.1617,-0.1617,-0.1617,-0.1617,-0.1617,-0.1617,-0.1617,-0.1617,-0.1617,-0.1617,-0.1617,-0.1617,-0.1617,-0.1617,-0.163,-0.1646,-0.166,-0.1672,-0.1687,-0.1707,-0.1732,-0.1755,-0.1772,-0.1775,-0.1649,-0.1285,-0.1272,-0.1044,-0.071,-0.0303,-0.0,-0.0,-0.0,-0.0,-0.0,-0.0,-0.0,-0.0,-0.0,-0.0,-0.0,-0.0,-0.0,-0.0,-0.0,0.1212,0.3539,0.3328,0.4336,0.6369,0.6247,0.6239,0.0,0.0,0.0,0.0,0.0,0.0,0.0,0.0,0.0,0.0,0.0,0.0,0.0,0.0,0.0,0.0,0.0,0.0,0.0,0.0,0.0,0.0,0.0,0.0,0.0,0.0,0.0,0.0,-0.1521,-0.1523,-0.1515,-0.1507,-0.15,-0.1492,-0.1491,-0.1495,-0.1503,-0.1518,-0.1617,-0.1894,-0.2178,-0.2361,-0.2534,-0.2641,-0.2574,-0.242,-0.2381,-0.2111,-0.1921,-0.1718,-0.1617,-0.1617,-0.1617,-0.1617,-0.1617,-0.1617,-0.1617,-0.1617,-0.1617,-0.1617,-0.1617,-0.1617,-0.1617,-0.1617,-0.1617,-0.1617,-0.1617,-0.1617,-0.1617,-0.1617,-0.1617,-0.1617,-0.1617,-0.1617,-0.1635,-0.1657,-0.168,-0.1684,-0.1699,-0.1751,-0.1761,-0.1768,-0.1791,-0.1795,-0.1664,-0.118,-0.0854,-0.0527,-0.0101,-0.0,-0.0,-0.0,-0.0,-0.0,-0.0,-0.0,-0.0,-0.0,-0.0,-0.0,-0.0,-0.0,-0.0,-0.0,-0.0,0.1616,0.4758,0.4241,0.4845,0.6366,0.6152,0.6145,0.0,0.0,0.0,0.0,0.0,0.0,0.0,0.0,0.0,0.0,0.0,0.0,0.0,0.0,0.0,0.0,0.0,0.0,0.0,0.0,0.0,0.0,0.0,0.0,0.0,0.0,0.0,0.0,-0.151,-0.1513,-0.1485,-0.1455,-0.1427,-0.1398,-0.1397,-0.1411,-0.144,-0.1497,-0.1606,-0.1854,-0.204,-0.2203,-0.2253,-0.2482,-0.232,-0.1861,-0.1936,-0.1888,-0.1617,-0.1617,-0.1617,-0.1617,-0.1617,-0.1617,-0.1617,-0.1617,-0.1617,-0.1617,-0.1617,-0.1617,-0.1617,-0.1617,-0.1617,-0.1617,-0.1617,-0.1617,-0.1617,-0.1617,-0.1617,-0.1617,-0.1617,-0.1617,-0.1617,-0.1617,-0.1618,-0.1642,-0.1727,-0.1745,-0.1755,-0.1787,-0.1793,-0.1793,-0.1795,-0.1795,-0.1775,-0.1716,-0.0747,-0.0,-0.0,-0.0,-0.0,-0.0,-0.0,-0.0,-0.0,-0.0,-0.0,-0.0,-0.0,-0.0,-0.0,-0.0,-0.0,-0.0,-0.0,0.0101,0.0303,0.4349,0.6282,0.6374,0.6366,0.6255,0.0,0.0,0.0,0.0,0.0,0.0,0.0,0.0,0.0,0.0,0.0,0.0,0.0,0.0,0.0,0.0,0.0,0.0,0.0,0.0,0.0,0.0,0.0,0.0,0.0,0.0,0.0,0.0,0.0,-0.1426,-0.1397,-0.1385,-0.1374,-0.1363,-0.1363,-0.1368,-0.1379,-0.1418,-0.1424,-0.1483,-0.1792,-0.1974,-0.1936,-0.2067,-0.2011,-0.176,-0.1692,-0.1638,-0.159,-0.1609,-0.1617,-0.1617,-0.1617,-0.1617,-0.1617,-0.1617,-0.1617,-0.1617,-0.1617,-0.1617,-0.1617,-0.1617,-0.1617,-0.1617,-0.1617,-0.1617,-0.1617,-0.1617,-0.1617,-0.1617,-0.1617,-0.1617,-0.1617,-0.1617,-0.1632,-0.166,-0.171,-0.172,-0.1735,-0.1785,-0.1795,-0.1795,-0.1795,-0.1795,-0.1775,-0.1824,-0.1387,-0.0846,-0.0103,-0.0,-0.0,-0.0,-0.0,-0.0,-0.0,-0.0,-0.0,-0.0,-0.0,-0.0,-0.0,-0.0,-0.0,-0.0,-0.0,0.0707,0.2016,0.3632,0.5044,0.635,0.6448,0.6342,0.0,0.0,0.0,0.0,0.0,0.0,0.0,0.0,0.0,0.0,0.0,0.0,0.0,0.0,0.0,0.0,0.0,0.0,0.0,0.0,0.0,0.0,0.0,0.0,0.0,0.0,0.0,0.0,0.0,0.0,-0.1334,-0.1333,-0.1333,-0.1333,-0.1333,-0.1337,-0.1263,-0.1367,-0.1371,-0.1363,-0.1664,-0.1769,-0.167,-0.1783,-0.1718,-0.1649,-0.1569,-0.1509,-0.1558,-0.1589,-0.1601,-0.1603,-0.1613,-0.1617,-0.1617,-0.1617,-0.1617,-0.1617,-0.1617,-0.1617,-0.1617,-0.1617,-0.1617,-0.1617,-0.1617,-0.1617,-0.1617,-0.1617,-0.1617,-0.1617,-0.1617,-0.1617,-0.1617,-0.1617,-0.1633,-0.1655,-0.1684,-0.1705,-0.1735,-0.1785,-0.1795,-0.1795,-0.1795,-0.1787,-0.1763,-0.1501,-0.1699,-0.1369,-0.0104,-0.0,-0.0,-0.0,-0.0,-0.0,-0.0,-0.0,-0.0,-0.0,-0.0,-0.0,-0.0,-0.0,-0.0,-0.0,-0.0,0.1009,0.3224,0.3934,0.5041,0.6445,0.6445,0.6342,0.0,0.0,0.0,0.0,0.0,0.0,0.0,0.0,0.0,0.0,0.0,0.0,0.0,0.0,0.0,0.0,0.0,0.0,0.0,0.0,0.0,0.0,0.0,0.0,0.0,0.0,0.0,0.0,-0.1262,-0.1333,-0.1303,-0.1301,-0.1301,-0.1301,-0.1301,-0.1316,-0.1261,-0.1262,-0.136,-0.1386,-0.1649,-0.1669,-0.1433,-0.1704,-0.1615,-0.1437,-0.1466,-0.1496,-0.1525,-0.1558,-0.1572,-0.1576,-0.1605,-0.1617,-0.1617,-0.1617,-0.1617,-0.1617,-0.1617,-0.1617,-0.1617,-0.1617,-0.1617,-0.1617,-0.1617,-0.1617,-0.1617,-0.1617,-0.1617,-0.1617,-0.1617,-0.1617,-0.1617,-0.1617,-0.1617,-0.1625,-0.1656,-0.1707,-0.1757,-0.1788,-0.1793,-0.1793,-0.1793,-0.1768,-0.163,-0.0962,-0.1366,-0.1351,-0.0104,-0.0,-0.0,-0.0,-0.0,-0.0,-0.0,-0.0,-0.0,-0.0,-0.0,-0.0,-0.0,-0.0,-0.0,-0.0,0.0101,0.1211,0.3224,0.5363,0.638,0.6361,0.6361,0.6255,-0.493,0.0,0.0,0.0,0.0,0.0,0.0,0.0,0.0,0.0,0.0,0.0,0.0,0.0,0.0,0.0,0.0,0.0,0.0,0.0,0.0,0.0,0.0,0.0,0.0,0.0,0.0,0.0,-0.1315,-0.1302,-0.1271,-0.127,-0.127,-0.127,-0.127,-0.1274,-0.1282,-0.1304,-0.1308,-0.1294,-0.1444,-0.147,-0.1373,-0.1416,-0.1436,-0.1436,-0.1444,-0.1453,-0.1466,-0.154,-0.1584,-0.1605,-0.1613,-0.1617,-0.1617,-0.1617,-0.1617,-0.1617,-0.1617,-0.1617,-0.1617,-0.1617,-0.1617,-0.1617,-0.1617,-0.1617,-0.1617,-0.1617,-0.1617,-0.1617,-0.1617,-0.1617,-0.1617,-0.1617,-0.1617,-0.1625,-0.1656,-0.1691,-0.1726,-0.1756,-0.1762,-0.1762,-0.1762,-0.1847,-0.1602,-0.0944,-0.0625,-0.0417,-0.0,-0.0,-0.0,-0.0,-0.0,-0.0,-0.0,-0.0,-0.0,-0.0,-0.0,-0.0,-0.0,-0.0,-0.0,-0.0,0.3031,0.4142,0.3224,0.5356,0.6366,0.6445,0.6445,0.6342,0.0,0.0,0.0,0.0,0.0,0.0,0.0,-0.4264,0.0,0.0,0.0,0.0,0.0,0.0,0.0,0.0,0.0,0.0,0.0,0.0,0.0,0.0,0.0,0.0,0.0,-0.1303,-0.1303,-0.1285,-0.1284,-0.1276,-0.1337,-0.1335,-0.1335,-0.1335,-0.1335,-0.1335,-0.1335,-0.1275,-0.1281,-0.1277,-0.1341,-0.137,-0.1367,-0.1414,-0.1436,-0.1436,-0.1436,-0.1442,-0.1458,-0.1512,-0.1544,-0.1563,-0.1588,-0.1598,-0.1599,-0.1612,-0.1617,-0.1617,-0.1617,-0.1617,-0.1617,-0.1617,-0.1617,-0.1617,-0.1617,-0.1617,-0.1617,-0.1617,-0.1617,-0.1617,-0.1617,-0.1617,-0.1617,-0.1617,-0.1617,-0.1622,-0.1639,-0.1666,-0.1699,-0.1742,-0.175,-0.1754,-0.1766,-0.1735,-0.16,-0.1276,-0.0528,-0.0,-0.0,-0.0,-0.0,-0.0,-0.0,-0.0,-0.0,-0.0,-0.0,-0.0,-0.0,-0.0,-0.0,-0.0,0.0808,0.2629,0.5168,0.5773,0.4541,0.5758,0.6358,0.6437,0.6437,0.6337,0.0,0.0,0.0,0.0,0.0,0.0,-0.4054,-0.3488,-0.2867,0.0,0.0,0.0,0.0,0.0,0.0,0.0,0.0,0.0,0.0,0.0,0.0,0.0,0.0,0.0,-0.1207,-0.1231,-0.1327,-0.1252,-0.1334,-0.1335,-0.1335,-0.1335,-0.1335,-0.1335,-0.1335,-0.1335,-0.1335,-0.1335,-0.1271,-0.1298,-0.1332,-0.1361,-0.1386,-0.142,-0.1436,-0.1436,-0.1436,-0.1451,-0.1476,-0.1476,-0.148,-0.1491,-0.1545,-0.1568,-0.1575,-0.1602,-0.1614,-0.1617,-0.1617,-0.1617,-0.1617,-0.1617,-0.1617,-0.1617,-0.1617,-0.1617,-0.1617,-0.1617,-0.1617,-0.1617,-0.1617,-0.1617,-0.1617,-0.1617,-0.1617,-0.1617,-0.1617,-0.1641,-0.1677,-0.173,-0.174,-0.1748,-0.1776,-0.1734,-0.1708,-0.1738,-0.0751,-0.0,-0.0,-0.0,-0.0,-0.0,-0.0,-0.0,-0.0,-0.0,-0.0,-0.0,-0.0,-0.0,-0.0,-0.0,0.1823,0.5583,0.5888,0.6085,0.6171,0.6366,0.6353,0.6437,0.6437,0.6237,0.0,0.0,0.0,0.0,0.0,0.0,-0.4624,-0.4148,-0.3535,0.0,0.0,0.0,0.0,0.0,0.0,0.0,0.0,0.0,0.0,0.0,0.0,0.0,0.0,0.0,-0.1175,-0.1181,-0.1194,-0.1219,-0.1243,-0.1335,-0.1335,-0.1335,-0.1335,-0.1335,-0.1335,-0.1335,-0.1335,-0.1335,-0.1339,-0.1266,-0.1322,-0.1267,-0.1358,-0.1411,-0.1436,-0.1436,-0.1436,-0.1439,-0.1444,-0.1444,-0.1473,-0.1519,-0.153,-0.155,-0.1572,-0.1578,-0.1596,-0.1617,-0.1617,-0.1617,-0.1617,-0.1617,-0.1617,-0.1617,-0.1617,-0.1617,-0.1617,-0.1617,-0.1617,-0.1617,-0.1617,-0.1617,-0.1617,-0.1617,-0.1617,-0.1617,-0.1617,-0.1641,-0.1666,-0.1677,-0.168,-0.1681,-0.1687,-0.1658,-0.1645,-0.1675,-0.0724,-0.0,-0.0,-0.0,-0.0,-0.0,-0.0,-0.0,-0.0,-0.0,-0.0,-0.0,-0.0,-0.0,-0.0,-0.0,0.041,0.1213,0.2927,0.4135,0.4736,0.5854,0.6353,0.6437,0.6437,0.6337,0.0,0.0,0.0,-0.4806,0.0,0.0,0.0,-0.3579,-0.3038,0.0,0.0,0.0,0.0,0.0,0.0,0.0,0.0,0.0,0.0,0.0,0.0,0.0,0.0,0.0,-0.1144,-0.1157,-0.1172,-0.1188,-0.1217,-0.1234,-0.1234,-0.1249,-0.1335,-0.1335,-0.1335,-0.1335,-0.1335,-0.1335,-0.1335,-0.1336,-0.1319,-0.1263,-0.1266,-0.1409,-0.1436,-0.1436,-0.1436,-0.1436,-0.1436,-0.1436,-0.1453,-0.1484,-0.1514,-0.1536,-0.1553,-0.1583,-0.1604,-0.1617,-0.1617,-0.1617,-0.1617,-0.1617,-0.1617,-0.1617,-0.1617,-0.1617,-0.1617,-0.1617,-0.1617,-0.1617,-0.1617,-0.1617,-0.1617,-0.1617,-0.1617,-0.1621,-0.1636,-0.1652,-0.1667,-0.1682,-0.1685,-0.158,-0.1369,-0.1452,-0.1443,-0.084,-0.0313,-0.0,-0.0,-0.0,-0.0,-0.0,-0.0,-0.0,-0.0,-0.0,-0.0,-0.0,-0.0,-0.0,-0.0,-0.0,-0.0,-0.0,0.313,0.4949,0.5349,0.606,0.6353,0.6437,0.6437,0.6437,0.0,0.0,0.0,0.0,0.0,-0.4565,0.0,0.0,0.0,-0.1714,0.0,0.0,0.0,0.0,0.0,0.0,0.0,0.0,0.0,0.0,0.0,0.0,0.0,0.0,0.0,-0.114,-0.1157,-0.1157,-0.1191,-0.1212,-0.1212,-0.1241,-0.1335,-0.1335,-0.1335,-0.1335,-0.1335,-0.1335,-0.1335,-0.1336,-0.1319,-0.1263,-0.1266,-0.1409,-0.1436,-0.1436,-0.1436,-0.1436,-0.1436,-0.1436,-0.1436,-0.144,-0.1489,-0.1515,-0.1532,-0.1581,-0.1607,-0.1617,-0.1617,-0.1617,-0.1617,-0.1617,-0.1617,-0.1617,-0.1617,-0.1617,-0.1617,-0.1617,-0.1617,-0.1617,-0.1617,-0.1617,-0.1617,-0.1617,-0.1617,-0.1624,-0.1648,-0.1658,-0.1669,-0.1694,-0.1597,-0.1492,-0.1062,-0.1154,-0.1044,-0.0106,-0.0,-0.0,-0.0,-0.0,-0.0,-0.0,-0.0,-0.0,-0.0,-0.0,-0.0,-0.0,-0.0,-0.0,-0.0,-0.0,-0.0,-0.0,0.3767,0.6004,0.6412,0.6374,0.635,0.6437,0.6437,0.6437,0.0,0.0,0.0,0.0,-0.5196,0.0,0.0,0.0,-0.3952,-0.3671,0.0,0.0,0.0,0.0,0.0,0.0,0.0,0.0,0.0,0.0,0.0,0.0,0.0,0.0,0.0,-0.1108,-0.1126,-0.1126,-0.1179,-0.1212,-0.1212,-0.1241,-0.1335,-0.1335,-0.1335,-0.1335,-0.1335,-0.1335,-0.1335,-0.1336,-0.1319,-0.1263,-0.1266,-0.1409,-0.1436,-0.1436,-0.1436,-0.1436,-0.1436,-0.1436,-0.1436,-0.1436,-0.1443,-0.1478,-0.1527,-0.1534,-0.157,-0.1617,-0.1617,-0.1617,-0.1617,-0.1617,-0.1617,-0.1617,-0.1617,-0.1617,-0.1617,-0.1617,-0.1617,-0.1617,-0.1617,-0.1617,-0.1617,-0.1617,-0.1617,-0.1618,-0.1622,-0.1643,-0.1559,-0.1562,-0.1584,-0.1592,-0.1568,-0.0728,-0.0104,-0.0,-0.0,-0.0,-0.0,-0.0,-0.0,-0.0,-0.0,-0.0,-0.0,-0.0,-0.0,-0.0,-0.0,-0.0,-0.0,-0.0,-0.0,-0.0,0.2396,0.4551,0.6429,0.6404,0.6437,0.6437,0.6437,0.6437,0.0,0.0,0.0,0.0,0.0,0.0,-0.4646,0.0,-0.3993,0.0,0.0,0.0,0.0,0.0,0.0,0.0,0.0,0.0,0.0,0.0,0.0,0.0,0.0,0.0,0.0,0.0,0.0,0.0,-0.1134,-0.1167,-0.1185,-0.1214,-0.1239,-0.1335,-0.1335,-0.1335,-0.1335,-0.1335,-0.1335,-0.1336,-0.1319,-0.1263,-0.1266,-0.1409,-0.1436,-0.1436,-0.1436,-0.1436,-0.1436,-0.1436,-0.1436,-0.1436,-0.1436,-0.1462,-0.1504,-0.1539,-0.1568,-0.1593,-0.1611,-0.1617,-0.1617,-0.1617,-0.1617,-0.1617,-0.1617,-0.1617,-0.1617,-0.1617,-0.1617,-0.1617,-0.1617,-0.1617,-0.1617,-0.1617,-0.1617,-0.1622,-0.1639,-0.1667,-0.1587,-0.1282,-0.152,-0.1744,-0.1591,-0.0738,-0.0,-0.0,-0.0,-0.0,-0.0,-0.0,-0.0,-0.0,-0.0,-0.0,-0.0,-0.0,-0.0,-0.0,-0.0,-0.0,-0.0,0.2703,0.4204,0.4161,0.4968,0.5763,0.654,0.6575,0.6505,0.6437,0.6437,0.6437,-0.6095,0.0,0.0,0.0,0.0,0.0,0.0,0.0,0.0,0.0,0.0,0.0,0.0,0.0,0.0,0.0,0.0,0.0,0.0,0.0,0.0,0.0,0.0,0.0,0.0,0.0,0.0,-0.1076,-0.1104,-0.1131,-0.1153,-0.1191,-0.1222,-0.1244,-0.1253,-0.1335,-0.1335,-0.1335,-0.1335,-0.1336,-0.1319,-0.1263,-0.1266,-0.1409,-0.1436,-0.1436,-0.1436,-0.1436,-0.1436,-0.1436,-0.1436,-0.1436,-0.1436,-0.1454,-0.1487,-0.154,-0.1564,-0.1576,-0.1607,-0.1617,-0.1617,-0.1617,-0.1617,-0.1617,-0.1617,-0.1617,-0.1617,-0.1617,-0.1617,-0.1617,-0.1617,-0.1617,-0.1617,-0.1617,-0.1617,-0.1623,-0.1645,-0.168,-0.1607,-0.1192,-0.1432,-0.1662,-0.1194,-0.0539,-0.0,-0.0,-0.0,-0.0,-0.0,-0.0,-0.0,-0.0,-0.0,-0.0,-0.0,-0.0,-0.0,-0.0,-0.0,-0.0,-0.0,0.4602,0.7147,0.7169,0.7003,0.6823,0.6733,0.6657,0.6573,0.6486,0.645,0.6437,0.0,0.0,0.0,-0.6017,0.0,0.0,0.0,0.0,-0.5525,0.0,0.0,0.0,0.0,0.0,-0.2915,-0.2194,0.0,0.0,0.0,0.0,0.0,0.0,0.0,0.0,0.0,0.0,0.0,-0.1076,-0.1104,-0.1121,-0.1123,-0.1179,-0.1212,-0.1213,-0.1242,-0.1335,-0.1335,-0.1335,-0.1335,-0.1336,-0.1319,-0.1263,-0.1266,-0.1409,-0.1436,-0.1436,-0.1436,-0.1436,-0.1436,-0.1436,-0.1436,-0.1436,-0.1436,-0.1454,-0.1485,-0.1516,-0.1547,-0.1576,-0.1607,-0.1617,-0.1617,-0.1617,-0.1617,-0.1617,-0.1617,-0.1617,-0.1617,-0.1617,-0.1617,-0.1617,-0.1617,-0.1617,-0.1617,-0.1617,-0.1617,-0.1617,-0.1618,-0.1561,-0.1601,-0.1602,-0.1733,-0.1432,-0.0223,-0.0,-0.0,-0.0,-0.0,-0.0,-0.0,-0.0,-0.0,-0.0,-0.0,-0.0,-0.0,-0.0,-0.0,-0.0,-0.0,-0.0,-0.0,0.4599,0.7203,0.7198,0.6952,0.688,0.6877,0.6738,0.6619,0.6611,0.6491,0.6437,0.0,0.0,-0.603,-0.603,0.0,0.0,0.0,0.0,0.0,0.0,0.0,0.0,0.0,0.0,-0.3139,-0.2845,-0.2398,-0.1986,0.0,0.0,0.0,0.0,0.0,0.0,0.0,0.0,0.0,-0.1076,-0.1085,-0.1099,-0.112,-0.1159,-0.1191,-0.1211,-0.1241,-0.1335,-0.1335,-0.1335,-0.1335,-0.1336,-0.1319,-0.1263,-0.1266,-0.1409,-0.1436,-0.1436,-0.1436,-0.1436,-0.1436,-0.1436,-0.1436,-0.1436,-0.1436,-0.1454,-0.1485,-0.1515,-0.1545,-0.1576,-0.1607,-0.1617,-0.1617,-0.1617,-0.1617,-0.1617,-0.1617,-0.1617,-0.1617,-0.1617,-0.1617,-0.1617,-0.1617,-0.1617,-0.1617,-0.1617,-0.1617,-0.1617,-0.1617,-0.1561,-0.1595,-0.1577,-0.1074,-0.0437,-0.0109,-0.0,-0.0,-0.0,-0.0,-0.0,-0.0,-0.0,-0.0,-0.0,-0.0,-0.0,-0.0,-0.0,-0.0,-0.0,-0.0,-0.0,-0.0,0.1569,0.3924,0.7097,0.7152,0.7081,0.7111,0.6907,0.6779,0.6619,0.6578,0.6513,-0.6338,-0.6186,0.0,-0.6112,-0.5969,0.0,-0.5759,0.0,0.0,0.0,0.0,0.0,0.0,0.0,-0.3899,-0.3666,-0.3305,-0.2799,0.0,-0.1765,0.0,0.0,0.0,0.0,0.0,0.0,-0.1076,-0.1076,-0.1076,-0.1089,0.0,0.0,-0.1181,-0.1211,-0.1241,-0.1335,-0.1335,-0.1335,-0.1263,-0.1274,-0.1324,-0.1353,-0.1365,-0.1413,-0.1436,-0.1436,-0.1436,-0.1436,-0.1436,-0.1436,-0.1436,-0.1436,-0.1436,-0.146,-0.1499,-0.1519,-0.1552,-0.159,-0.161,-0.1617,-0.1617,-0.1617,-0.1617,-0.1617,-0.1617,-0.1617,-0.1619,-0.163,-0.1625,-0.162,-0.163,-0.1625,-0.1617,-0.1617,-0.1617,-0.1617,-0.1617,-0.1553,-0.1475,-0.1145,-0.0426,-0.0,-0.0,-0.0,-0.0,-0.0,-0.0,-0.0,-0.0,-0.0,-0.0,-0.0,-0.0,-0.0,-0.0,-0.0,-0.0,-0.0,-0.0,-0.0,-0.0,-0.0,0.1459,0.4528,0.551,0.6374,0.7241,0.7147,0.6885,0.6684,0.6684,0.6594]},{"header":{"parameterUnit":"m.s-1","parameterCategory":1,"la1":30.6,"la2":29.2853,"lo1":-89.7004,"lo2":-87.6739,"dy":0.0162,"dx":0.0183,"nx":112,"ny":82,"refTime":"2023-07-15T12:00:00:Z","depth":0,"parameterNumber":3,"parameterNumberName":"V-component_of_WINDS"},"data":[0.0,0.0,0.0,0.0,0.0,0.0,0.0,0.0,0.0,0.0,0.0,0.0,0.0,0.0,0.0,0.0,0.0,0.0,0.0,0.0,0.0,0.0,0.0,0.0,0.0,0.0,0.0,0.0,0.0,0.0,0.0,0.0,0.0,0.0,0.0,0.0,0.0,0.0,0.0,0.0,0.0,0.0,0.0,0.0,0.0,0.0,0.0,0.0,0.0,0.0,0.0,0.0,0.0,0.0,0.0,0.0,0.0,0.0,0.0,0.0,0.0,0.0,0.0,0.0,0.0,0.0,0.0,0.0,0.0,0.0,0.0,0.0,0.0,0.0,0.0,0.0,0.0,0.0,0.0,0.0,0.0,0.0,0.0,0.0,0.0,0.0,0.0,0.0,0.0,0.0,0.0,-1.9662,-2.3266,-2.531,-2.4566,-2.4941,-2.4261,-2.2046,0.0,0.0,0.0,0.0,0.0,0.0,0.0,0.0,0.0,0.0,0.0,0.0,0.0,0.0,0.0,0.0,0.0,0.0,0.0,0.0,0.0,0.0,0.0,0.0,0.0,0.0,0.0,0.0,0.0,0.0,0.0,0.0,0.0,0.0,0.0,0.0,0.0,0.0,0.0,0.0,0.0,0.0,0.0,0.0,0.0,0.0,0.0,0.0,0.0,0.0,0.0,0.0,0.0,0.0,0.0,0.0,0.0,0.0,0.0,0.0,0.0,0.0,0.0,0.0,0.0,0.0,0.0,0.0,0.0,0.0,0.0,0.0,0.0,0.0,0.0,0.0,0.0,0.0,0.0,0.0,0.0,0.0,0.0,0.0,0.0,0.0,0.0,0.0,0.0,0.0,0.0,0.0,0.0,0.0,0.0,0.0,0.0,0.0,0.0,0.0,0.0,0.0,0.0,0.0,-1.9887,-2.2183,-2.4325,-2.5543,-2.5407,-2.4164,-2.3231,-2.2823,0.0,0.0,0.0,0.0,0.0,0.0,0.0,0.0,0.0,0.0,0.0,0.0,0.0,0.0,0.0,0.0,0.0,0.0,0.0,0.0,0.0,0.0,0.0,0.0,0.0,0.0,0.0,0.0,0.0,0.0,0.0,0.0,0.0,0.0,0.0,0.0,0.0,0.0,0.0,0.0,0.0,0.0,0.0,0.0,0.0,0.0,0.0,0.0,0.0,0.0,0.0,0.0,0.0,0.0,0.0,0.0,0.0,0.0,0.0,0.0,0.0,0.0,0.0,0.0,0.0,0.0,0.0,0.0,0.0,0.0,0.0,0.0,0.0,0.0,0.0,0.0,0.0,0.0,0.0,0.0,0.0,0.0,0.0,0.0,0.0,0.0,0.0,0.0,0.0,0.0,0.0,0.0,0.0,0.0,0.0,0.0,0.0,0.0,0.0,0.0,0.0,0.0,0.0,-1.9836,-2.1214,-2.2834,-2.498,-2.6106,-2.564,-2.4436,-2.3698,-2.3698,-2.2435,0.0,0.0,0.0,0.0,0.0,0.0,0.0,0.0,0.0,0.0,0.0,0.0,0.0,0.0,0.0,0.0,0.0,0.0,0.0,0.0,0.0,0.0,0.0,0.0,0.0,0.0,0.0,0.0,0.0,0.0,0.0,0.0,0.0,0.0,0.0,0.0,0.0,0.0,0.0,0.0,0.0,0.0,0.0,0.0,0.0,0.0,0.0,0.0,0.0,0.0,0.0,0.0,0.0,0.0,0.0,0.0,0.0,0.0,0.0,0.0,0.0,0.0,0.0,0.0,0.0,0.0,0.0,0.0,0.0,0.0,0.0,0.0,0.0,0.0,0.0,0.0,0.0,0.0,0.0,0.0,0.0,0.0,0.0,0.0,0.0,0.0,0.0,0.0,0.0,0.0,0.0,0.0,0.0,0.0,0.0,0.0,0.0,0.0,0.0,0.0,0.0,0.0,-2.1429,-2.2317,-2.2926,-2.5154,-2.6242,-2.5368,-2.4682,-2.4216,-2.4003,-2.2746,0.0,0.0,0.0,0.0,0.0,0.0,0.0,0.0,0.0,0.0,0.0,0.0,0.0,0.0,0.0,0.0,0.0,0.0,0.0,0.0,0.0,0.0,0.0,0.0,0.0,0.0,0.0,0.0,0.0,0.0,0.0,0.0,0.0,0.0,0.0,0.0,0.0,0.0,0.0,0.0,0.0,0.0,0.0,0.0,0.0,0.0,0.0,0.0,0.0,0.0,0.0,0.0,0.0,0.0,0.0,0.0,0.0,0.0,0.0,0.0,0.0,0.0,0.0,0.0,0.0,0.0,0.0,0.0,0.0,0.0,0.0,0.0,0.0,0.0,0.0,0.0,0.0,0.0,0.0,0.0,0.0,0.0,0.0,0.0,0.0,0.0,0.0,0.0,0.0,0.0,0.0,0.0,0.0,0.0,0.0,0.0,0.0,0.0,0.0,0.0,0.0,0.0,-2.1909,-2.2945,-2.2979,-2.461,-2.5349,-2.4469,-2.4333,-2.3945,-2.3134,-2.2979,0.0,0.0,0.0,0.0,0.0,0.0,0.0,0.0,0.0,0.0,0.0,0.0,0.0,0.0,0.0,0.0,0.0,0.0,0.0,0.0,0.0,0.0,0.0,0.0,0.0,0.0,0.0,0.0,0.0,0.0,0.0,0.0,0.0,0.0,0.0,0.0,0.0,0.0,0.0,0.0,0.0,0.0,0.0,0.0,0.0,0.0,0.0,0.0,0.0,0.0,0.0,0.0,0.0,0.0,0.0,0.0,0.0,0.0,0.0,0.0,0.0,0.0,0.0,0.0,0.0,0.0,0.0,0.0,0.0,0.0,0.0,0.0,0.0,0.0,0.0,0.0,0.0,0.0,0.0,0.0,0.0,0.0,0.0,0.0,0.0,0.0,0.0,0.0,0.0,0.0,0.0,0.0,0.0,0.0,0.0,0.0,0.0,0.0,0.0,0.0,0.0,0.0,-2.1526,-2.2252,0.0,-2.3294,-2.3845,-2.3523,-2.3484,-2.3581,-2.3795,0.0,0.0,0.0,0.0,0.0,0.0,0.0,0.0,0.0,0.0,0.0,0.0,0.0,0.0,0.0,0.0,0.0,0.0,0.0,0.0,0.0,0.0,0.0,0.0,0.0,0.0,0.0,0.0,0.0,0.0,0.0,0.0,0.0,0.0,0.0,0.0,0.0,0.0,0.0,0.0,0.0,0.0,0.0,0.0,0.0,0.0,0.0,0.0,0.0,0.0,0.0,0.0,0.0,0.0,0.0,0.0,0.0,0.0,0.0,0.0,0.0,0.0,0.0,0.0,0.0,0.0,0.0,0.0,0.0,0.0,0.0,0.0,0.0,0.0,0.0,0.0,0.0,0.0,0.0,0.0,0.0,0.0,0.0,0.0,0.0,0.0,0.0,0.0,0.0,0.0,0.0,0.0,0.0,0.0,0.0,0.0,0.0,0.0,0.0,0.0,0.0,0.0,-2.1032,-2.1911,-2.2414,0.0,-2.2786,-2.3322,-2.3028,-2.3257,-2.3674,-2.4255,0.0,0.0,0.0,0.0,0.0,0.0,0.0,0.0,0.0,0.0,0.0,0.0,0.0,0.0,0.0,0.0,0.0,0.0,0.0,0.0,0.0,0.0,0.0,0.0,0.0,0.0,0.0,0.0,0.0,0.0,0.0,0.0,0.0,0.0,0.0,0.0,0.0,0.0,0.0,0.0,0.0,0.0,0.0,0.0,0.0,0.0,0.0,0.0,0.0,0.0,0.0,0.0,0.0,0.0,0.0,0.0,0.0,0.0,0.0,0.0,0.0,0.0,0.0,0.0,0.0,0.0,0.0,0.0,0.0,0.0,0.0,0.0,0.0,0.0,0.0,0.0,0.0,0.0,0.0,0.0,0.0,0.0,0.0,0.0,0.0,0.0,0.0,0.0,0.0,0.0,0.0,0.0,0.0,0.0,0.0,0.0,0.0,0.0,0.0,0.0,0.0,0.0,-2.1934,-2.3316,-2.3735,-2.1995,-2.3363,-2.4018,-2.3085,-2.3802,-2.4291,0.0,0.0,0.0,0.0,0.0,0.0,0.0,0.0,0.0,0.0,0.0,0.0,0.0,0.0,0.0,0.0,0.0,0.0,0.0,0.0,0.0,0.0,0.0,0.0,0.0,0.0,0.0,0.0,0.0,0.0,0.0,0.0,0.0,0.0,0.0,0.0,0.0,0.0,0.0,0.0,0.0,0.0,0.0,0.0,0.0,0.0,0.0,0.0,0.0,0.0,0.0,0.0,0.0,0.0,0.0,0.0,0.0,0.0,0.0,0.0,0.0,0.0,0.0,0.0,0.0,0.0,0.0,0.0,0.0,0.0,0.0,0.0,0.0,0.0,0.0,0.0,0.0,0.0,0.0,0.0,0.0,0.0,0.0,0.0,0.0,0.0,0.0,0.0,0.0,0.0,0.0,0.0,0.0,0.0,0.0,0.0,0.0,0.0,0.0,0.0,0.0,0.0,0.0,-2.2832,-2.3163,-2.328,-2.2773,-2.3183,-2.3372,-2.3098,-2.3828,-2.4296,-2.43,0.0,0.0,0.0,0.0,0.0,0.0,0.0,0.0,0.0,0.0,0.0,0.0,0.0,0.0,0.0,0.0,0.0,0.0,0.0,0.0,0.0,0.0,0.0,0.0,0.0,0.0,0.0,0.0,0.0,0.0,0.0,0.0,0.0,0.0,0.0,0.0,0.0,0.0,0.0,0.0,0.0,0.0,0.0,0.0,0.0,0.0,0.0,0.0,0.0,0.0,0.0,0.0,0.0,0.0,0.0,0.0,0.0,0.0,0.0,0.0,0.0,0.0,0.0,0.0,0.0,0.0,0.0,0.0,0.0,0.0,0.0,0.0,0.0,0.0,0.0,0.0,0.0,0.0,0.0,0.0,0.0,0.0,0.0,0.0,0.0,0.0,0.0,0.0,0.0,0.0,0.0,0.0,0.0,0.0,0.0,0.0,0.0,0.0,0.0,0.0,0.0,0.0,-2.3726,-2.3921,-2.3864,-2.3164,-2.3417,-2.3604,-2.3582,-2.4023,-2.4451,-2.4805,0.0,0.0,0.0,0.0,0.0,0.0,0.0,0.0,0.0,0.0,0.0,0.0,0.0,0.0,0.0,0.0,0.0,0.0,0.0,0.0,0.0,0.0,0.0,0.0,0.0,0.0,0.0,0.0,0.0,0.0,0.0,0.0,0.0,0.0,0.0,0.0,0.0,0.0,0.0,0.0,0.0,0.0,0.0,0.0,0.0,0.0,0.0,0.0,0.0,0.0,0.0,0.0,0.0,0.0,0.0,0.0,0.0,0.0,0.0,0.0,0.0,0.0,0.0,0.0,0.0,0.0,0.0,0.0,0.0,0.0,0.0,0.0,0.0,0.0,0.0,0.0,0.0,0.0,0.0,0.0,0.0,0.0,0.0,0.0,0.0,0.0,0.0,0.0,0.0,0.0,0.0,0.0,0.0,0.0,0.0,0.0,0.0,0.0,0.0,0.0,0.0,0.0,-2.4612,-2.5212,-2.5098,-2.3515,-2.4036,-2.4486,-2.4429,-2.4425,-2.4758,-2.5543,0.0,0.0,0.0,0.0,0.0,0.0,0.0,0.0,0.0,0.0,0.0,0.0,0.0,0.0,0.0,0.0,0.0,0.0,0.0,0.0,0.0,0.0,0.0,0.0,0.0,0.0,0.0,0.0,0.0,0.0,0.0,0.0,0.0,0.0,0.0,0.0,0.0,0.0,0.0,0.0,0.0,0.0,0.0,0.0,0.0,0.0,0.0,0.0,0.0,0.0,0.0,0.0,0.0,0.0,0.0,0.0,0.0,0.0,0.0,0.0,-2.4427,0.0,0.0,0.0,0.0,0.0,0.0,0.0,0.0,0.0,0.0,0.0,0.0,0.0,0.0,0.0,0.0,0.0,0.0,0.0,0.0,0.0,0.0,0.0,0.0,0.0,0.0,0.0,0.0,0.0,0.0,0.0,0.0,0.0,0.0,0.0,0.0,0.0,0.0,0.0,0.0,0.0,-2.5453,-2.5583,-2.5566,-2.5195,-2.5267,-2.5344,-2.5309,-2.5325,-2.5405,-2.5582,-2.5601,0.0,0.0,0.0,0.0,0.0,0.0,0.0,0.0,0.0,0.0,0.0,0.0,0.0,0.0,0.0,0.0,0.0,0.0,0.0,0.0,0.0,0.0,0.0,0.0,0.0,0.0,0.0,0.0,0.0,0.0,0.0,0.0,0.0,0.0,0.0,0.0,0.0,0.0,0.0,0.0,0.0,0.0,0.0,0.0,0.0,0.0,0.0,0.0,0.0,0.0,0.0,0.0,0.0,0.0,0.0,0.0,0.0,0.0,0.0,0.0,-2.622,0.0,0.0,0.0,0.0,0.0,0.0,0.0,0.0,0.0,0.0,0.0,0.0,0.0,0.0,0.0,0.0,0.0,0.0,0.0,0.0,0.0,0.0,0.0,0.0,0.0,0.0,0.0,0.0,0.0,0.0,0.0,0.0,0.0,0.0,0.0,0.0,0.0,0.0,0.0,0.0,-2.5698,-2.5664,-2.5658,-2.565,-2.5626,-2.5593,-2.561,-2.5605,-2.5595,-2.5601,-2.5601,0.0,0.0,0.0,0.0,0.0,0.0,0.0,0.0,0.0,0.0,0.0,0.0,0.0,0.0,0.0,0.0,0.0,0.0,0.0,0.0,0.0,0.0,0.0,0.0,0.0,0.0,0.0,0.0,0.0,0.0,0.0,0.0,0.0,0.0,0.0,0.0,0.0,0.0,0.0,0.0,0.0,0.0,0.0,0.0,0.0,0.0,0.0,0.0,0.0,0.0,0.0,0.0,0.0,-3.2467,-3.3196,-3.374,-3.374,-3.3818,-3.3767,-3.0217,-2.8335,-2.7766,0.0,0.0,0.0,0.0,0.0,0.0,0.0,0.0,0.0,0.0,0.0,0.0,0.0,0.0,0.0,0.0,0.0,0.0,0.0,0.0,0.0,0.0,0.0,0.0,0.0,-2.6651,-2.6146,0.0,0.0,0.0,0.0,0.0,0.0,0.0,0.0,0.0,0.0,0.0,0.0,-2.5703,-2.5637,-2.5595,-2.5605,-2.5595,-2.5601,-2.5601,-2.5601,-2.5601,-2.5601,-2.5601,-2.5601,0.0,0.0,0.0,0.0,0.0,0.0,0.0,0.0,0.0,0.0,0.0,0.0,0.0,0.0,0.0,0.0,0.0,0.0,0.0,0.0,0.0,0.0,0.0,0.0,0.0,0.0,0.0,0.0,0.0,0.0,0.0,0.0,-2.6553,-2.5781,0.0,0.0,0.0,0.0,0.0,0.0,0.0,0.0,0.0,0.0,0.0,0.0,0.0,-3.206,-3.3565,-3.4503,-3.501,-3.5127,-3.6012,-3.609,-3.5469,-3.5469,-3.5877,-3.6576,-3.5998,0.0,-3.1203,-2.9688,0.0,0.0,0.0,0.0,0.0,0.0,0.0,0.0,0.0,0.0,0.0,0.0,0.0,0.0,0.0,0.0,0.0,0.0,0.0,0.0,0.0,0.0,-2.6966,-2.7832,-2.7949,-2.787,0.0,-2.6738,-2.5707,-2.5707,-2.5707,0.0,0.0,0.0,0.0,0.0,0.0,0.0,-2.5703,-2.5644,-2.5605,-2.5601,-2.5595,-2.5601,-2.5601,-2.5601,-2.5601,-2.5601,-2.5601,-2.5601,-2.5601,-2.5601,0.0,0.0,0.0,0.0,0.0,0.0,0.0,0.0,0.0,0.0,0.0,0.0,0.0,0.0,0.0,0.0,0.0,0.0,0.0,0.0,0.0,0.0,0.0,0.0,0.0,0.0,0.0,0.0,0.0,-2.6833,-2.7187,-2.5859,-2.6873,-2.7122,0.0,0.0,0.0,0.0,0.0,0.0,0.0,0.0,0.0,-3.2842,-3.4179,-3.5235,-3.5993,-3.7325,-3.8228,-3.8741,-3.9622,-4.0087,-4.0184,-4.0184,-4.0398,-4.0749,-4.0749,-3.9638,-3.7532,-3.4321,-3.196,-3.0258,0.0,0.0,0.0,0.0,-2.8784,-2.9201,-2.924,-2.9238,0.0,-2.9563,0.0,0.0,0.0,0.0,0.0,0.0,0.0,0.0,0.0,0.0,-2.9315,-3.0171,-3.0014,-2.9801,-3.0293,-2.9076,-2.7741,0.0,-2.6731,-2.6429,-2.6429,0.0,0.0,0.0,0.0,0.0,-2.5703,-2.5642,-2.5601,-2.5601,-2.5595,-2.5601,-2.5601,-2.5601,-2.5601,-2.5601,-2.5601,-2.5601,-2.5601,-2.5601,-2.5601,0.0,0.0,0.0,0.0,0.0,0.0,0.0,0.0,0.0,0.0,0.0,0.0,0.0,0.0,0.0,0.0,0.0,0.0,0.0,0.0,0.0,0.0,0.0,0.0,0.0,0.0,0.0,0.0,-2.7539,-2.8085,-2.5957,-2.7966,-2.8664,0.0,0.0,0.0,0.0,0.0,0.0,-3.1921,-3.3671,-3.5081,-3.6137,-3.763,-3.8753,-3.9415,-4.0719,-4.191,-4.2983,-4.3622,-4.4159,-4.4569,-4.4569,-4.4452,-4.4276,-4.4276,-4.3769,-4.2653,-3.8531,-3.5572,-3.3602,-3.2939,-3.241,-3.1999,-3.1782,-3.2257,-3.3005,-3.3049,-3.2887,-3.2638,-3.2497,-3.1699,-3.0566,-2.9313,0.0,0.0,0.0,0.0,-3.0009,-3.0458,-3.0852,-3.1342,-3.2237,-3.1942,-3.1631,-3.2279,-3.1434,-3.0164,0.0,-2.7884,-2.7327,-2.7327,0.0,0.0,0.0,0.0,-2.6269,-2.6055,-2.5961,-2.5847,-2.5621,-2.561,-2.5599,-2.5601,-2.5601,-2.5601,-2.5601,-2.5601,-2.5601,-2.5601,-2.5601,-2.5601,-2.5601,0.0,0.0,0.0,0.0,0.0,0.0,0.0,0.0,0.0,0.0,0.0,0.0,0.0,0.0,0.0,0.0,0.0,0.0,0.0,0.0,0.0,0.0,0.0,0.0,0.0,0.0,0.0,0.0,0.0,-2.6094,-3.0098,0.0,0.0,0.0,0.0,-3.1743,-3.3258,-3.4583,-3.5488,-3.719,-3.892,-4.061,-4.1562,-4.3238,-4.5718,-4.5835,-4.6694,-4.8314,-4.8356,-4.7962,-4.7221,-4.7221,-4.6788,-4.6066,-4.6066,-4.5578,-4.4507,-4.1038,-3.9032,-3.794,-3.5442,-3.4956,-3.5543,-3.4702,-3.4956,-3.5699,-3.5718,-3.5151,-3.4739,-3.6358,-3.5732,-3.3877,-3.1418,-3.0663,0.0,0.0,-3.1347,-3.1112,-3.2772,-3.2616,-3.2259,-3.3125,-3.33,-3.3262,-3.3234,-3.3222,-3.248,0.0,-2.8832,-2.8225,-2.8225,0.0,-2.8166,-2.8166,-2.8121,-2.7793,-2.7031,-2.6889,-2.6518,-2.5683,-2.5598,-2.56,-2.5607,-2.5601,-2.5601,-2.5601,-2.5601,-2.5601,-2.5601,-2.5601,-2.5601,-2.5601,-2.5601,0.0,0.0,0.0,0.0,0.0,0.0,0.0,0.0,0.0,0.0,0.0,0.0,0.0,0.0,0.0,0.0,0.0,0.0,0.0,0.0,0.0,0.0,0.0,0.0,0.0,0.0,0.0,0.0,-3.1561,-3.4569,0.0,-3.3376,-3.3975,-3.4725,-3.5232,-3.6877,-3.8466,-3.9911,-4.2167,-4.397,-4.5156,-4.5987,-4.6873,-4.781,-4.7846,-4.8162,-4.8768,-4.8769,-4.8591,-4.8278,-4.7751,-4.7653,-4.781,-4.6735,-4.6403,-4.65,-4.4721,-4.2773,-4.0845,-3.9928,-3.9403,-3.9131,-3.8836,-3.9266,-4.0029,-4.0077,-3.9883,-3.9453,-3.8436,-3.7301,-3.605,-3.4584,-3.4152,-3.4207,-3.4525,-3.4796,-3.5125,-3.5749,-3.6106,-3.6363,-3.6671,-3.6747,-3.6749,-3.6714,-3.6298,-3.5486,-3.4003,-3.166,-2.9747,-2.922,-2.8674,-2.8303,-2.8303,-2.8238,-2.8104,-2.7864,-2.7772,-2.7626,-2.7318,-2.7268,-2.7042,-2.6481,-2.6439,-2.6208,-2.5634,-2.5604,-2.5601,-2.5601,-2.5601,-2.5601,-2.5601,-2.5601,-2.5601,0.0,0.0,0.0,0.0,0.0,0.0,0.0,0.0,0.0,0.0,0.0,0.0,0.0,0.0,0.0,0.0,0.0,0.0,0.0,0.0,0.0,0.0,0.0,0.0,0.0,0.0,-3.5552,-3.5545,-3.8573,-3.9863,-3.7858,-3.8436,-3.9154,-3.9681,-4.1358,-4.2834,-4.3989,-4.5987,-4.7336,-4.792,-4.8453,-4.8865,-4.9178,-4.9218,-4.939,-4.9683,-4.9687,-4.952,-4.9228,-4.8701,-4.8564,-4.874,-4.7627,-4.7471,-4.7959,-4.7373,-4.5948,-4.4023,-4.3436,-4.3046,-4.2753,-4.246,-4.291,-4.3613,-4.3357,-4.3276,-4.2905,-4.0628,-3.9488,-3.8863,-3.7985,-3.7516,-3.734,-3.7633,-3.7731,-3.7809,-3.8063,-3.8375,-3.8593,-3.8593,-3.8593,-3.8593,-3.8593,-3.8141,-3.7399,-3.6228,-3.3905,-3.1856,-3.1016,-3.0157,-2.9572,-2.9572,-2.9288,-2.8998,-2.8774,-2.8709,-2.8554,-2.8223,-2.8202,-2.7962,-2.7389,-2.7345,-2.6977,-2.6091,-2.6033,-2.5904,-2.5609,-2.5593,-2.5601,-2.5601,-2.599,-2.6255,-2.6443,0.0,0.0,0.0,0.0,0.0,0.0,0.0,0.0,0.0,0.0,0.0,0.0,0.0,0.0,0.0,0.0,0.0,0.0,0.0,0.0,0.0,0.0,0.0,-3.1192,-3.6189,-3.9337,-3.7712,-4.1951,-4.4043,-4.1577,-4.3564,-4.5026,-4.5065,-4.6625,-4.7598,-4.7656,-4.8455,-4.8926,-4.8965,-4.8931,-4.9325,-5.0165,-5.0145,-5.0555,-5.1394,-5.1394,-5.0965,-5.0145,-5.0106,-4.9657,-4.8876,-4.8818,-4.8818,-4.8837,-4.8818,-4.833,-4.7432,-4.5734,-4.5578,-4.6202,-4.5343,-4.5578,-4.6183,-4.5324,-4.5051,-4.4758,-4.304,-4.2474,-4.2318,-4.1439,-4.0581,-4.0093,-4.0932,-4.0015,-3.8921,-3.9683,-3.9292,-3.871,-3.869,-3.869,-3.869,-3.869,-3.869,-3.816,-3.6443,-3.5447,-3.4549,-3.3573,-3.2695,-3.2148,-3.2148,-3.1426,0.0,-2.9786,-2.9672,-2.9326,-2.8378,-2.8281,-2.8261,-2.8254,-2.8246,-2.7865,-2.6997,-2.6933,-2.6568,-2.5714,-2.5673,-2.5679,-2.5679,-2.6767,-2.7569,-2.8099,0.0,0.0,0.0,0.0,0.0,0.0,0.0,0.0,0.0,0.0,0.0,0.0,0.0,0.0,0.0,0.0,0.0,0.0,0.0,0.0,0.0,0.0,-3.7594,-3.736,-4.0385,-4.316,-4.4569,-4.6505,-4.7452,-4.6758,-4.7324,-4.7988,-4.8613,-4.91,-4.9941,-5.1203,-5.1489,-5.1916,-5.256,-5.1968,-5.1746,-5.198,-5.1355,-5.116,-5.1394,-5.1394,-5.1277,-5.1023,-5.0399,-5.0321,-5.0614,-4.9345,-4.9169,-4.9696,-4.9052,-4.833,-4.7549,-4.7081,-4.6651,-4.6261,-4.6027,-4.6085,-4.6261,-4.6027,-4.5948,-4.5753,-4.466,-4.4289,-4.4114,-4.3255,-4.2825,-4.2689,-4.2923,-4.265,-4.2201,-4.1791,-4.1518,-4.1205,-4.0561,-4.0405,-4.0405,-4.0405,-4.0405,-4.0073,-3.898,-3.8551,-3.7321,-3.3983,-3.3202,-3.3046,-3.3046,-3.2831,0.0,-3.1524,-3.1407,-3.1077,-3.0183,-3.0085,-2.9855,-2.9253,-2.918,-2.8767,-2.7909,-2.7837,-2.7732,-2.7496,-2.7483,-2.7459,-2.7408,-2.7712,-2.7945,0.0,0.0,0.0,0.0,0.0,0.0,0.0,0.0,0.0,0.0,0.0,0.0,0.0,0.0,0.0,0.0,0.0,0.0,0.0,0.0,0.0,0.0,-3.9543,-4.2611,-4.4406,-4.5656,-4.7217,-4.9462,-5.0477,-5.0972,-5.0988,-5.0988,-5.1183,-5.1691,-5.173,-5.2175,-5.319,-5.3249,-5.3483,-5.3971,-5.3502,-5.3073,-5.2702,-5.2195,-5.1765,-5.1394,-5.1394,-5.1394,-5.1375,-5.0887,-5.0926,-5.1336,-5.0321,-5.0184,-5.0614,-5.0106,-4.9189,0.0,0.0,0.0,0.0,0.0,-4.63,-4.63,-4.63,-4.63,-4.6222,-4.5714,-4.5539,-4.5441,-4.4933,-4.4524,-4.4231,-4.4231,-4.3977,-4.3509,-4.263,-4.2396,-4.2181,-4.1303,-4.1108,-4.1108,-4.1108,-4.1108,-4.0834,-3.9976,-3.98,0.0,-3.5584,-3.4725,-3.4374,-3.4003,-3.3632,-3.3222,-3.2714,-3.2324,-3.1914,-3.1407,-3.1016,-3.0606,-3.0138,-3.0075,0.0,0.0,0.0,-2.8589,-2.8221,-2.8197,0.0,0.0,0.0,-2.8819,-2.92,0.0,0.0,0.0,-2.8349,-2.8194,0.0,0.0,0.0,0.0,0.0,0.0,0.0,0.0,0.0,0.0,0.0,0.0,0.0,0.0,0.0,0.0,-4.4465,-4.7159,-5.1258,-5.118,-5.1219,-5.2663,-5.362,-5.4108,-5.401,-5.401,-5.4049,-5.4147,-5.4068,-5.4088,-5.4283,0.0,0.0,0.0,0.0,-5.3776,-5.2995,-5.2897,-5.2409,-5.155,-5.155,-5.1492,-5.1394,-5.1394,-5.1355,-5.1258,-5.1355,-5.1336,-5.1258,-5.1355,-5.0379,-4.8701,-4.7803,-4.6983,-4.63,-4.63,-4.63,-4.63,-4.63,0.0,0.0,-4.63,-4.63,-4.63,-4.63,-4.5753,-4.5148,-4.5148,-4.4582,-4.3782,-4.2923,-4.263,-4.2357,-4.1576,-4.1244,-4.1127,-4.1225,-4.1166,-4.0873,-4.0093,-3.9956,-3.9409,-3.7731,-3.6716,-3.5857,-3.4979,-3.4198,-3.3671,-3.3554,-3.2871,-3.2324,-3.2129,0.0,0.0,-3.0801,-3.0797,-3.0505,-2.9789,-2.9687,-2.9296,-2.8525,-2.8493,-2.8856,-2.9674,-2.968,-3.0081,-3.0855,-3.0773,-3.0757,-3.072,-2.9066,-2.8717,0.0,0.0,0.0,0.0,0.0,0.0,0.0,0.0,0.0,0.0,0.0,0.0,0.0,0.0,0.0,-4.4992,-4.8135,-5.1199,-5.4127,-5.44,-5.4166,-5.3795,-5.4517,-5.4771,-5.4068,-5.401,-5.4283,-5.5005,-5.44,-5.4615,-5.602,-5.5435,-5.5376,-5.6079,-5.5415,-5.4966,-5.4791,-5.4108,-5.3307,-5.2448,0.0,0.0,-5.1394,-5.1394,-5.1023,-5.0399,-5.1082,-5.1004,-5.0418,-5.1102,-5.0379,-4.8642,-4.7139,-4.6456,-4.63,-4.63,-4.63,-4.63,-4.63,-4.63,-4.63,-4.63,-4.63,-4.63,-4.63,-4.6183,0.0,-4.6046,-4.5929,-4.5597,-4.4719,-4.3977,-4.3411,-4.3235,-4.2123,-4.1283,-4.2006,-4.1596,-4.1049,-4.0873,-4.0854,-4.0327,-3.8648,-3.7633,-3.6755,-3.5876,-3.5603,-3.5232,-3.4549,-3.4295,-3.3651,-3.2246,-3.1953,-3.1563,-3.086,-3.0806,-3.0728,-3.0587,-3.0565,-3.0468,-3.0291,-3.0255,-3.0624,-3.1485,-3.1495,-3.1576,-3.1751,-3.1673,-3.1657,-3.1609,-3.0586,-3.0201,0.0,0.0,0.0,0.0,0.0,0.0,0.0,0.0,0.0,0.0,0.0,-3.7926,0.0,0.0,-4.6749,-5.0243,-5.2234,-5.4108,-5.6255,-5.6547,-5.6235,-5.5396,-5.5689,-5.5786,-5.5337,-5.5298,-5.5474,-5.5923,-5.5552,-5.5689,-5.6547,-5.6196,-5.6157,-5.6586,-5.6177,-5.5747,-5.5298,-5.4869,-5.4205,-5.3346,-5.2917,-5.2468,-5.2038,-5.1609,-5.116,-5.077,-5.1219,-5.116,-5.075,-5.075,-4.9989,-4.8681,-4.7432,-4.6671,-4.63,-4.63,-4.63,-4.63,-4.63,-4.63,-4.63,-4.63,-4.63,-4.63,-4.63,-4.63,-4.63,-4.63,-4.63,-4.6105,-4.5226,-4.468,-4.4231,-4.3801,-4.2708,-4.1869,-4.2318,-4.1713,-4.1108,-4.1108,-4.1108,-4.0698,-3.9409,-3.8512,-3.7516,-3.6208,-3.5991,-3.5837,-3.5408,-3.4979,-3.4374,-3.3495,-3.3007,-3.2578,-3.2148,-3.1699,-3.1641,-3.207,-3.169,-3.1657,-3.207,-3.2034,-3.221,-3.264,-3.2649,-3.2652,-3.2652,-3.2582,-3.2538,-3.2548,-3.2106,-3.1893,0.0,0.0,0.0,0.0,0.0,0.0,0.0,0.0,-3.5997,-3.8053,-4.0382,-4.2962,-4.5948,-4.8584,-5.1511,-5.5181,-5.5923,-5.645,-5.7621,-5.7797,-5.7504,-5.6704,-5.6743,-5.6762,-5.6626,-5.6606,-5.6606,-5.6606,-5.6606,-5.6606,-5.6606,-5.6606,-5.6606,-5.6606,-5.6606,-5.6255,-5.5552,-5.5552,-5.5123,-5.4244,-5.3366,-5.2858,-5.2663,-5.1804,-5.1316,-5.116,-5.116,-5.1238,-5.1316,-5.0282,-4.9423,-4.8701,-4.7725,-4.6924,-4.63,-4.63,-4.63,-4.63,-4.63,-4.63,-4.63,-4.63,-4.63,-4.63,-4.63,-4.63,-4.63,-4.63,-4.63,-4.6144,-4.5421,-4.5129,-4.4875,-4.4328,-4.3411,-4.2708,-4.2864,-4.2084,-4.1342,-4.1342,-4.1225,-4.0815,-3.9956,-3.9136,-3.8063,-3.6482,-3.6111,-3.5991,-3.5991,-3.5389,-3.4881,-3.4725,-3.4061,-3.3573,-3.3417,-3.2753,-3.2656,-3.3358,-3.2734,-3.2665,-3.3377,-3.3355,-3.3392,-3.3555,-3.355,-3.3541,-3.3526,-3.3483,-3.3438,-3.346,-3.3441,-3.3316,-3.066,-3.0547,-3.1445,-3.3587,-3.4261,-3.5985,0.0,0.0,-4.3469,-4.671,-4.8837,-5.0457,-5.1629,-5.3971,-5.6118,-5.7328,-5.8168,-5.848,-5.7875,-5.7797,-5.7504,-5.6704,-5.7231,-5.7387,-5.6665,-5.6606,-5.6606,-5.6606,-5.6606,-5.6606,-5.6606,-5.6606,-5.6606,-5.6606,-5.6606,-5.6547,-5.6469,-5.645,-5.602,-5.5142,-5.4264,-5.3444,-5.2663,-5.1804,-5.0984,-5.0243,-5.0243,-5.0672,-5.1277,-4.9618,-4.8896,-4.8642,-4.7061,-4.6397,-4.63,-4.63,-4.63,-4.63,-4.63,-4.63,-4.63,-4.63,-4.63,-4.63,-4.63,-4.63,-4.63,-4.63,-4.63,-4.628,-4.6183,-4.5578,-4.5168,-4.5851,-4.4758,-4.3762,-4.4543,-4.3411,-4.2259,-4.2259,-4.1635,-4.0815,-3.9956,-3.9136,-3.8277,-3.7301,-3.6501,-3.5991,-3.5991,-3.5916,-3.5564,-3.4783,-3.4608,-3.4237,-3.3476,-3.3319,-3.33,-3.3398,-3.3319,-3.33,-3.34,-3.3396,-3.3728,-3.4446,-3.4447,-3.4432,-3.4361,-3.4365,-3.4359,-3.4342,-3.4284,-3.3858,-3.4969,-3.4719,0.0,0.0,-3.9154,-4.1655,-4.557,-4.6566,-4.7506,-5.0457,-5.2058,-5.3171,-5.4049,-5.6313,-5.8168,0.0,-5.887,-5.8968,-5.8616,-5.7719,-5.6782,-5.5942,-5.6138,-5.6411,-5.6586,-5.6606,-5.6606,-5.6606,-5.6606,-5.6606,-5.6606,-5.6606,-5.6606,-5.6606,-5.6606,-5.6606,-5.6606,-5.6606,-5.6411,-5.6059,-5.5162,-5.4303,-5.3424,-5.2546,-5.1687,-5.0867,-5.0867,-5.1063,-5.1336,-5.0614,-5.0008,-4.9442,-4.8232,-4.7744,-4.7647,-4.6651,-4.63,-4.63,-4.63,-4.63,-4.63,-4.63,-4.63,-4.63,-4.63,-4.63,-4.63,-4.63,-4.63,-4.63,-4.63,-4.6027,-4.5851,-4.6202,-4.5363,-4.4563,-4.4914,-4.3626,-4.2552,-4.306,-4.2045,-4.1147,-4.1283,-4.019,-3.9019,-3.818,-3.6872,-3.5991,-3.5991,-3.5991,-3.5857,-3.5506,-3.5467,-3.531,-3.494,-3.4452,-3.4374,-3.4881,-3.4432,-3.4374,-3.4898,-3.488,-3.5019,-3.5347,-3.5366,-3.5332,-3.5308,-3.5271,-3.5241,-3.5204,-3.5175,-3.4952,-3.7189,0.0,0.0,-4.0632,-4.3787,-4.6855,-4.8816,-4.9933,-5.124,-5.3626,-5.4606,-5.5177,-5.5567,-5.7519,0.0,-5.8773,-5.8948,-5.9026,-5.8773,-5.7504,-5.6196,-5.5064,-5.4732,-5.483,-5.5454,-5.5962,-5.6333,-5.6586,-5.6606,-5.6606,-5.6606,-5.6606,-5.6606,-5.6606,-5.6606,-5.6606,-5.6606,-5.6606,-5.6606,-5.6586,-5.5474,-5.4615,-5.3951,-5.2858,-5.1999,-5.1394,-5.1394,-5.1394,-5.1375,-5.1141,-5.0672,-5.0008,-4.915,-4.8798,-4.8623,-4.7198,-4.6651,-4.6612,-4.6378,-4.63,-4.63,-4.63,-4.63,-4.63,-4.63,-4.63,-4.63,-4.63,-4.63,-4.63,-4.63,-4.63,-4.63,-4.63,-4.5812,-4.5363,-4.5363,-4.4172,-4.3294,-4.3938,-4.2845,-4.1947,-4.2337,-4.1147,-3.9878,-3.9058,-3.7458,-3.6267,-3.603,-3.5991,-3.5991,-3.5991,-3.5991,-3.5991,-3.5991,-3.5428,-3.533,-3.5952,-3.5408,-3.5349,-3.5971,-3.595,-3.5917,-3.5898,-3.5899,-3.5899,-3.5908,-3.5859,-3.5779,-3.5737,-3.5708,-3.5698,0.0,0.0,-4.0524,-4.3896,-4.7365,-5.0589,-5.313,-5.4378,-5.551,-5.7285,-5.7668,-5.7426,-5.6606,-5.7904,-5.8812,-5.7972,-5.8558,-5.8792,-5.7953,-5.7113,-5.5962,-5.4244,-5.3288,-5.278,0.0,-5.4342,-5.5689,-5.6547,-5.6606,-5.6606,-5.6606,-5.6606,-5.6606,-5.6606,-5.6606,-5.6606,-5.6606,-5.6606,-5.6606,-5.6586,-5.4869,-5.4029,-5.3932,-5.2214,-5.1433,-5.1394,-5.1394,-5.1394,-5.1336,-5.0496,-5.0126,-5.0008,-4.915,-4.8798,-4.8701,-4.7861,-4.7569,-4.7432,-4.6593,-4.63,-4.63,-4.63,-4.63,-4.63,-4.63,-4.63,-4.63,-4.63,-4.63,-4.63,-4.63,-4.63,-4.63,-4.63,-4.628,-4.6261,-4.6261,-4.5558,-4.4933,-4.4953,-4.4231,-4.3352,-4.2533,-4.1654,-4.0776,-3.9897,-3.8336,-3.697,-3.6111,-3.5991,-3.5991,-3.5991,-3.5991,-3.5991,-3.5991,-3.5971,-3.5971,-3.5991,-3.5971,-3.5971,-3.5991,-3.5994,-3.5966,-3.5898,-3.5898,-3.5908,-3.5908,-3.5908,-3.5866,-3.5803,-3.5737,-3.5689,0.0,0.0,-4.4783,-4.8962,-5.1759,-5.43,-5.7492,-5.7538,-5.7089,-5.7687,-5.601,-5.4142,-5.3279,-5.3591,-5.4274,-5.5142,-5.6001,-5.686,-5.768,-5.7113,-5.5942,-5.4205,-5.3737,0.0,0.0,0.0,0.0,-5.563,-5.5747,-5.5981,-5.6567,-5.6606,-5.6606,-5.6606,-5.6606,-5.6606,-5.6606,-5.6606,-5.6606,-5.6586,-5.483,-5.401,-5.3932,-5.2195,-5.1394,-5.1394,-5.1394,-5.1394,-5.1375,-5.1082,-5.0965,-5.0887,-5.0008,-5.0028,-5.0282,-4.833,-4.7939,-4.8193,-4.6788,-4.63,-4.63,-4.63,-4.63,-4.63,-4.63,-4.63,-4.63,-4.63,-4.63,-4.63,-4.63,-4.63,-4.63,-4.63,-4.63,-4.63,-4.63,-4.5617,-4.5168,-4.5753,-4.468,-4.3782,-4.4075,-4.2923,-4.1479,-4.0015,-3.8375,-3.6989,-3.6111,-3.5991,-3.5991,-3.5991,-3.5991,-3.5991,-3.5991,-3.5991,-3.5991,-3.5991,-3.5991,-3.5991,-3.5991,-3.5991,-3.5996,-3.5966,-3.5917,-3.5908,-3.5908,-3.5858,-3.5823,-3.5791,-3.5727,-3.5707,0.0,-4.5752,-4.856,-5.2825,-5.5181,-5.7069,-5.9381,-5.857,-5.7166,-5.6537,-5.3923,-5.1316,-4.9811,-4.9562,-5.0035,-5.1449,-5.2663,-5.4147,-5.6157,-5.6001,-5.5259,-5.4127,-5.3737,0.0,0.0,0.0,0.0,-5.5162,-5.5591,-5.6001,-5.6567,-5.6606,-5.6606,-5.6606,-5.6606,-5.6606,-5.6606,-5.6606,-5.645,-5.6118,-5.5005,-5.4147,-5.3502,-5.237,-5.1687,-5.1394,-5.1394,-5.139,-5.141,-5.1394,-5.141,-5.1342,-5.0785,-5.0902,-5.1156,-4.9204,-4.8818,-4.8974,-4.6983,-4.63,-4.63,-4.63,-4.63,-4.63,-4.63,-4.63,-4.63,-4.63,-4.63,-4.63,-4.63,-4.63,-4.63,-4.63,-4.63,-4.63,-4.63,-4.5851,-4.5636,-4.6183,-4.5402,-4.4719,-4.4953,-4.3548,-4.181,-4.0054,-3.8882,-3.7887,-3.7048,-3.6931,-3.6813,-3.6501,-3.6462,-3.6345,-3.603,-3.6286,-3.6462,-3.6462,-3.6755,-3.6931,-3.6931,-3.6931,-3.6931,-3.6931,-3.6894,-3.6853,-3.6833,-3.645,-3.6261,-3.6258,-3.5873,-3.5697,-4.518,-4.8386,-5.1879,-5.5481,-5.7541,-5.8733,-5.8919,-5.7604,-5.586,-5.4059,-5.1569,-4.8912,0.0,0.0,-4.6327,-4.7225,-4.8946,-5.1082,-5.3698,-5.4108,-5.4127,0.0,0.0,0.0,0.0,0.0,0.0,-5.5181,0.0,-5.6547,-5.6606,-5.6606,-5.6606,-5.6606,-5.6606,-5.6606,-5.6606,-5.6606,-5.6177,-5.5376,-5.5279,-5.4361,-5.2761,-5.2663,-5.2175,-5.1394,-5.1394,-5.141,-5.1401,-5.139,-5.1401,-5.14,-5.1406,-5.1406,-5.1284,-5.0414,-5.0102,-4.9731,-4.7237,-4.6358,-4.6358,-4.63,-4.63,-4.63,-4.63,-4.63,-4.63,-4.63,-4.63,-4.63,-4.63,-4.63,-4.63,-4.63,-4.63,-4.63,-4.63,-4.63,-4.63,-4.63,-4.63,-4.6027,-4.5148,-4.3587,-4.1888,-4.019,-3.9897,-3.9566,-3.871,-3.8593,-3.8277,-3.7458,-3.7379,-3.7028,-3.6208,-3.6891,-3.7379,-3.7379,-3.8141,-3.8593,-3.8593,-3.8593,-3.8593,-3.8593,-3.8593,-3.8572,-3.8498,-3.7608,-3.7166,-3.7141,-3.6241,-3.5824,-5.0106,-5.3205,-5.5884,-5.8235,-5.8654,-5.8496,-5.8599,-5.6395,-5.3658,-5.1337,-4.7353,-4.3695,0.0,0.0,0.0,-4.5293,-4.8697,0.0,-5.4596,-5.5532,0.0,0.0,0.0,-5.4381,-5.3737,-5.4264,0.0,0.0,-5.5513,-5.5903,-5.6567,-5.6606,-5.6606,-5.6606,-5.6606,-5.6606,-5.6606,-5.6606,-5.6489,-5.6255,-5.4947,-5.4108,-5.362,-5.2312,-5.1609,-5.1394,-5.1394,-5.1394,-5.139,-5.1394,-5.139,-5.1406,-5.139,-5.1406,-5.1279,-5.0425,-5.0108,-4.9825,-4.7874,-4.7225,-4.7159,-4.6515,-4.63,-4.63,-4.63,-4.63,-4.63,-4.63,-4.63,-4.63,-4.63,-4.63,-4.63,-4.63,-4.63,-4.63,-4.63,-4.63,-4.63,-4.63,-4.63,-4.6027,-4.5148,-4.4094,-4.3001,-4.1908,-4.1186,-4.0229,-3.8788,-3.8593,-3.8514,-3.8297,-3.8277,-3.818,-3.7965,-3.8141,-3.8277,-3.8277,-3.8475,-3.8593,-3.8593,-3.8593,-3.8593,-3.8593,-3.8549,-3.8532,-3.8568,-3.8186,-3.8026,-3.8057,-3.7715,-3.7572,-5.3219,-5.5949,-5.805,-5.8834,-5.8664,-5.7757,-5.5642,-5.3189,-5.0212,-4.6163,-4.2529,0.0,0.0,0.0,0.0,0.0,0.0,0.0,-5.3698,-5.524,-5.5981,0.0,-5.5864,0.0,-5.5689,-5.6118,-5.6567,0.0,-5.6294,-5.6079,-5.6567,-5.6606,-5.6606,-5.6606,-5.6606,-5.6606,-5.6606,-5.6606,-5.6606,-5.6586,-5.5611,-5.4947,-5.4517,-5.3151,-5.2331,-5.1941,0.0,-5.139,-5.1406,-5.1406,-5.1381,-5.1352,-5.1381,-5.1401,-5.1333,-5.0855,-5.0679,-5.0479,-4.9108,-4.8669,-4.8424,-4.6823,-4.655,-4.6807,-4.6417,-4.63,-4.63,-4.63,-4.63,-4.63,-4.63,-4.63,-4.63,-4.63,-4.63,-4.63,-4.63,-4.63,-4.63,-4.63,-4.63,-4.6027,-4.5148,-4.4582,-4.384,-4.2591,-4.1986,-4.1186,-3.9878,-3.9702,-3.9546,-3.9175,-3.9136,-3.898,-3.8632,-3.8921,-3.9136,-3.9136,-3.9488,-3.9702,-3.9702,-3.9702,-3.9702,-3.9702,-3.9658,-3.9662,-3.9701,-3.92,-3.8956,-3.8915,-3.8462,-3.8226,-5.5403,-5.7562,-5.9125,-5.8477,-5.8062,-5.6571,-5.1766,-4.9077,-4.5983,-4.0228,0.0,0.0,-3.4408,0.0,-3.7063,-4.0383,0.0,-4.7803,-5.2097,-5.4108,-5.5493,-5.6489,-5.6684,-5.7035,-5.7738,-5.7894,-5.8246,-5.889,-5.7699,-5.6879,-5.6762,-5.6762,-5.6704,-5.6606,-5.6606,-5.6606,-5.6606,-5.6606,-5.6606,-5.6606,-5.6489,-5.602,-5.5259,-5.4283,-5.3424,-5.2644,-5.1785,0.0,-5.1396,-5.1396,-5.1361,-5.1317,-5.1386,-5.1386,-5.1394,-5.1401,-5.139,-5.1249,-5.0395,-5.0102,-4.9692,-4.7264,-4.6975,-4.7432,-4.6554,-4.6378,-4.6475,-4.6475,-4.6475,-4.6475,-4.6475,-4.6397,-4.63,-4.63,-4.63,-4.63,-4.63,-4.63,-4.63,-4.63,-4.63,-4.6066,-4.5304,-4.509,-4.4484,-4.2962,-4.2552,-4.2123,-4.1361,-4.1166,-4.0815,-4.0054,-3.9976,-3.9683,-3.8983,-3.9566,-3.9976,-3.9976,-4.0678,-4.1108,-4.1108,-4.1108,-4.1108,-4.1108,-4.1108,-4.1101,-4.1093,-4.0328,-3.9887,-3.9746,-3.8984,-3.8593,-5.7829,-5.93,-5.9996,-5.9144,-5.7411,-5.4733,-5.0399,-4.6082,0.0,0.0,0.0,-3.2674,-3.1661,-3.3897,0.0,-3.9583,0.0,0.0,0.0,0.0,-5.483,0.0,0.0,0.0,0.0,0.0,0.0,0.0,0.0,-5.8343,-5.7621,-5.7582,-5.7289,-5.6626,-5.6606,-5.6606,-5.6606,-5.6606,-5.6606,-5.6586,-5.5864,-5.5454,-5.524,-5.3659,-5.2835,-5.265,-5.1772,0.0,-5.14,-5.14,-5.1394,-5.1369,-5.1394,-5.1369,-5.1317,-5.1375,-5.1355,-5.1193,-5.0386,-5.0104,-4.9801,-4.7971,-4.7487,-4.7432,-4.6554,-4.6807,-4.7373,-4.7373,-4.7373,-4.7373,-4.7373,-4.6846,-4.63,-4.63,-4.63,-4.63,-4.63,-4.63,-4.63,-4.63,-4.63,-4.6241,-4.6105,-4.548,-4.4894,-4.4582,-4.3313,-4.2357,-4.2181,-4.1557,-4.103,-4.0893,-4.0873,-4.0815,-4.0678,-4.0795,-4.0873,-4.0873,-4.101,-4.1108,-4.1108,-4.1108,-4.1108,-4.1108,-4.1108,-4.1091,-4.1097,-4.083,-4.0691,-4.0671,-4.0461,-4.0365,-5.8536,-5.9739,-5.9969,-5.823,-5.5919,-5.2504,-4.6605,0.0,0.0,0.0,0.0,-3.131,-3.0877,0.0,0.0,0.0,0.0,0.0,0.0,0.0,0.0,0.0,0.0,0.0,0.0,0.0,0.0,0.0,0.0,-5.9495,-5.7289,-5.7172,-5.6996,-5.6606,-5.6606,-5.6606,-5.6606,-5.6606,-5.6606,-5.6586,-5.6177,-5.5957,-5.5875,-5.4587,-5.3743,-5.3278,-5.24,0.0,-5.1394,-5.1369,-5.1343,-5.1343,-5.1343,-5.1336,-5.1317,-5.1388,-5.1096,-5.0686,-5.0756,-5.0182,-4.9293,-4.8482,-4.7939,-4.753,-4.71,-4.7276,-4.7608,-4.7608,-4.7608,-4.751,-4.7042,-4.6612,-4.63,-4.63,-4.63,-4.63,-4.63,-4.63,-4.63,-4.63,-4.63,-4.63,-4.63,-4.5948,-4.5519,-4.507,-4.3899,-4.3079,-4.3079,-4.1927,-4.1108,-4.1108,-4.1108,-4.1108,-4.1108,-4.1108,-4.1108,-4.1108,-4.1108,-4.1108,-4.1108,-4.1108,-4.1108,-4.1108,-4.1108,-4.1108,-4.1108,-4.0992,-4.0922,-4.0901,-4.0878,-4.0829,-5.8402,-5.9472,-5.9548,-5.7179,-5.4409,-5.0382,-4.3273,-3.9484,0.0,0.0,0.0,-3.0526,-3.0526,0.0,0.0,0.0,0.0,0.0,0.0,0.0,0.0,0.0,0.0,0.0,0.0,0.0,0.0,0.0,0.0,0.0,-5.727,-5.6801,-5.6606,-5.6606,-5.6606,-5.6606,-5.6606,-5.6606,-5.6606,-5.6606,-5.6606,-5.6558,-5.647,-5.5591,-5.4722,-5.3845,-5.2987,0.0,0.0,-5.131,-5.1303,-5.1303,-5.1303,-5.1303,-5.131,-5.1362,-5.094,-5.0438,-5.0942,-5.0225,-4.9059,-4.8853,-4.8252,-4.7569,-4.7373,-4.7451,-4.7608,-4.7608,-4.7608,-4.7432,-4.6768,-4.6436,-4.63,-4.63,-4.63,-4.63,-4.63,-4.63,-4.63,-4.63,-4.63,-4.63,-4.63,-4.63,-4.6066,-4.5382,-4.4543,-4.3918,-4.3723,-4.2494,-4.1518,-4.1147,-4.1108,-4.1108,-4.1108,-4.1108,-4.1108,-4.1108,-4.1108,-4.1108,-4.1108,-4.1108,-4.1108,-4.1108,-4.1108,-4.1108,-4.1108,-4.1014,-4.0948,-4.0901,-4.0898,-4.0848,-5.7542,-5.8612,-5.8803,-5.7027,-5.3531,-4.8945,-4.2909,0.0,0.0,0.0,-2.9473,-2.9611,-2.9611,-3.1037,0.0,0.0,0.0,0.0,0.0,0.0,0.0,0.0,0.0,0.0,0.0,0.0,0.0,0.0,0.0,0.0,-5.8851,-5.7426,-5.6606,-5.6606,-5.6606,-5.6606,-5.6606,-5.6606,-5.6606,-5.6606,-5.6606,-5.6558,-5.647,-5.5591,-5.4716,-5.3845,-5.2967,0.0,0.0,-5.13,-5.13,-5.13,-5.13,-5.13,-5.1308,-5.131,-5.1258,-5.1103,-5.045,-5.0108,-4.9855,-4.9068,-4.8252,-4.7451,-4.6651,-4.6963,-4.7608,-4.7608,-4.7608,-4.7588,-4.751,-4.6885,-4.63,-4.63,-4.63,-4.63,-4.63,-4.63,-4.63,-4.63,-4.63,-4.63,-4.63,-4.63,-4.6261,-4.6183,-4.5441,-4.4582,-4.3801,-4.3567,-4.2845,-4.1264,-4.1108,-4.1108,-4.1108,-4.1108,-4.1108,-4.1108,-4.1108,-4.1108,-4.1108,-4.1108,-4.1108,-4.1108,-4.1108,-4.1108,-4.1108,-4.0967,-4.0905,-4.0901,-4.084,-4.081,-5.4734,-5.6969,-5.7848,-5.5632,-5.1926,-4.7422,-4.2153,0.0,0.0,-3.08,-3.0222,-3.0273,-3.0273,-3.0843,-3.1992,0.0,0.0,0.0,0.0,0.0,0.0,0.0,0.0,0.0,0.0,0.0,0.0,0.0,0.0,0.0,-5.8265,-5.7231,-5.6606,-5.6606,-5.6606,-5.6606,-5.6606,-5.6606,-5.6606,-5.6606,-5.6558,-5.6528,-5.6472,-5.5607,-5.4729,-5.3841,-5.2992,0.0,0.0,-5.13,-5.13,-5.13,-5.13,-5.13,-5.13,-5.1289,-5.0965,-5.0555,-5.0758,-5.0165,-4.9357,-4.9528,-4.9009,-4.8252,-4.79,-4.8057,-4.8213,-4.7744,-4.7608,-4.749,-4.6944,-4.6554,-4.63,-4.63,-4.63,-4.63,-4.63,-4.63,-4.63,-4.63,-4.63,-4.63,-4.63,-4.63,-4.63,-4.63,-4.5558,-4.507,-4.5246,-4.3899,-4.2845,-4.2669,-4.2201,-4.1674,-4.1147,-4.1108,-4.1108,-4.1108,-4.1108,-4.1108,-4.1108,-4.1108,-4.1108,-4.1108,-4.1108,-4.108,-4.1034,-4.0955,-4.0881,-4.085,-4.0818,-4.079,-5.1219,-5.4276,-5.5899,-5.3874,-5.0214,-4.5898,0.0,0.0,-3.3654,-3.1242,-3.0769,-3.0799,-3.0799,-3.0799,-3.1291,-3.2771,0.0,0.0,0.0,0.0,0.0,0.0,0.0,0.0,0.0,0.0,0.0,0.0,0.0,0.0,-5.7426,-5.6918,-5.6606,-5.6606,-5.6606,-5.6606,-5.6606,-5.6606,-5.6606,-5.6606,-5.6533,-5.6497,-5.6465,-5.5606,-5.4726,-5.3853,-5.2976,0.0,0.0,-5.13,-5.13,-5.13,-5.13,-5.13,-5.13,-5.13,-5.0911,-5.0443,-5.0816,-5.0348,-4.958,-4.9674,-4.9473,-4.9091,-4.8603,-4.8447,-4.8271,-4.7451,-4.7217,-4.7139,-4.6788,-4.6495,-4.6358,-4.6612,-4.6495,-4.63,-4.63,-4.63,-4.63,-4.63,-4.63,-4.63,-4.63,-4.63,-4.63,-4.63,-4.5773,-4.5519,-4.587,-4.4524,-4.3587,-4.3684,-4.3372,-4.2611,-4.1225,-4.1342,-4.1361,-4.1127,-4.1108,-4.1108,-4.1108,-4.1108,-4.1108,-4.1108,-4.1108,-4.1082,-4.1035,-4.0935,-4.0881,-4.0836,-4.0807,-4.0655,-4.7188,-5.0302,-5.2652,-5.183,-4.856,-4.44,0.0,0.0,-3.3685,-3.1137,-3.0703,-3.0799,-3.0799,-3.0799,-3.1096,-3.1973,-3.3492,0.0,0.0,0.0,0.0,0.0,0.0,0.0,0.0,0.0,0.0,0.0,0.0,0.0,-5.6645,-5.6606,-5.6606,-5.6606,-5.6606,-5.6606,-5.6606,-5.6606,-5.6606,-5.6606,-5.6533,-5.6497,-5.6465,-5.5606,-5.4726,0.0,0.0,0.0,0.0,-5.13,-5.13,-5.13,-5.13,-5.13,-5.13,-5.13,-5.13,-5.1164,-5.0387,-5.068,-5.1082,-4.9382,-4.9391,-4.9774,-4.8115,-4.7608,-4.7432,-4.6554,-4.63,-4.6515,-4.7354,-4.6944,-4.6515,-4.7373,-4.6924,-4.63,-4.63,-4.63,-4.63,-4.63,-4.63,-4.63,-4.63,-4.63,-4.63,-4.63,-4.628,-4.5987,-4.5129,-4.5734,-4.5597,-4.3879,-4.4465,-4.3918,-4.1322,-4.1888,-4.2025,-4.1147,-4.1108,-4.1108,-4.1108,-4.1108,-4.1108,-4.1108,-4.1108,-4.1108,-4.1091,-4.0965,-4.0901,-4.0901,-4.084,-4.0326,-4.0062,-4.2545,-4.4056,-4.3254,-4.1219,-3.8796,-3.6431,0.0,-3.2322,-3.102,-3.0769,-3.0799,-3.0799,-3.0799,-3.1486,-3.3546,-3.4326,0.0,0.0,0.0,0.0,0.0,0.0,0.0,0.0,0.0,0.0,0.0,0.0,0.0,-5.6606,-5.6606,-5.6606,-5.6606,-5.6606,-5.6606,-5.6606,-5.6606,-5.6582,-5.6533,-5.6517,-5.6192,-5.5587,-5.4707,-5.3841,0.0,0.0,0.0,0.0,-5.13,-5.13,-5.13,-5.13,-5.13,-5.1222,-5.0638,-5.0404,-5.0307,-4.9496,-4.9393,-4.9529,-4.8976,-4.8991,-4.9005,-4.7936,-4.7608,-4.7412,-4.6554,-4.63,-4.6495,-4.7373,-4.6944,-4.6515,-4.7393,-4.6924,-4.63,-4.63,-4.63,-4.63,-4.63,-4.63,-4.63,-4.63,-4.63,-4.63,-4.63,-4.63,-4.6202,-4.5929,-4.5617,-4.5207,-4.4641,-4.4836,-4.4172,-4.2162,-4.224,-4.2025,-4.1166,-4.1108,-4.1108,-4.1108,-4.1108,-4.1108,-4.1108,-4.1108,-4.1084,-4.1034,-4.0948,-4.087,-4.084,-4.08,-4.0636,0.0,-3.7311,-3.8742,-3.8284,-3.6921,-3.5335,-3.3761,-3.2151,-3.0769,-2.9976,-2.9825,-2.9922,-3.0253,-3.0317,-3.0949,-3.2907,-3.3789,0.0,0.0,0.0,0.0,0.0,0.0,0.0,0.0,0.0,0.0,0.0,0.0,0.0,-5.6606,-5.6606,-5.6606,-5.6606,-5.6606,-5.6606,-5.6606,-5.6606,-5.6577,-5.6509,-5.6179,-5.573,-5.517,-5.3958,-5.3112,0.0,0.0,0.0,0.0,-5.13,-5.13,-5.13,-5.13,-5.13,-5.1222,-5.0696,-5.0287,-4.9937,-4.943,-4.9055,-4.8756,-4.8424,-4.8089,-4.7756,-4.7253,-4.712,-4.7002,-4.6456,-4.6534,-4.6983,-4.7822,-4.7412,-4.7002,-4.7842,-4.7159,-4.63,-4.63,-4.63,-4.63,-4.63,-4.63,-4.63,-4.63,-4.63,-4.63,-4.63,-4.63,-4.63,-4.63,-4.5831,-4.55,-4.55,-4.55,-4.4914,-4.3509,-4.3079,-4.2513,-4.1654,-4.1283,-4.1108,-4.1108,-4.1108,-4.1108,-4.1108,-4.1108,-4.1089,-4.1047,-4.0944,-4.0863,-4.079,-4.079,-4.0616,0.0,0.0,0.0,0.0,0.0,-3.3363,-3.182,-3.0393,0.0,-2.8368,-2.8193,-2.8505,-2.9498,-2.9585,-2.9885,-3.1055,0.0,0.0,0.0,0.0,0.0,0.0,0.0,0.0,0.0,0.0,0.0,0.0,0.0,0.0,-5.6606,-5.6606,-5.6567,-5.6508,-5.6508,-5.6508,-5.6508,-5.6567,-5.6499,-5.6308,-5.5555,-5.5145,-5.4948,-5.3335,-5.2567,0.0,0.0,0.0,0.0,-5.13,-5.13,-5.13,-5.13,-5.13,-5.13,-5.1222,-5.0657,-4.9917,-4.9839,-4.9289,-4.8484,-4.7663,-4.6908,-4.63,-4.63,-4.63,-4.63,-4.63,-4.6924,-4.7783,-4.8584,-4.8193,-4.7803,-4.8603,-4.751,-4.63,-4.63,-4.63,-4.63,-4.63,-4.63,-4.63,-4.63,-4.63,-4.63,-4.63,-4.63,-4.63,-4.63,-4.63,-4.63,-4.63,-4.63,-4.5968,-4.5168,-4.4289,-4.3391,-4.2454,-4.1635,-4.1166,-4.1108,-4.1108,-4.1108,-4.1108,-4.1094,-4.109,-4.1087,-4.0961,-4.0878,-4.079,-4.079,-4.0365,-2.6721,0.0,-2.7953,-2.802,-2.8294,-2.8475,0.0,-2.8296,-2.8446,0.0,0.0,0.0,0.0,0.0,0.0,0.0,0.0,0.0,0.0,0.0,0.0,0.0,0.0,0.0,0.0,0.0,0.0,0.0,0.0,-5.6606,-5.6606,-5.6606,-5.6294,-5.563,-5.5611,-5.5611,-5.5611,-5.6274,-5.5894,-5.4521,-5.4983,-5.4495,-5.3198,-5.2781,-5.2236,0.0,0.0,0.0,-5.13,-5.13,-5.13,-5.13,-5.13,-5.13,-5.1222,-5.056,-4.9781,-4.8982,-4.8319,-4.7528,-4.6775,-4.6571,-4.6421,-4.63,-4.63,-4.63,-4.63,-4.63,-4.6924,-4.7783,-4.8584,-4.8193,-4.7803,-4.8603,-4.751,-4.63,-4.63,-4.63,-4.63,-4.63,-4.63,-4.63,-4.63,-4.63,-4.63,-4.63,-4.63,-4.63,-4.63,-4.63,-4.63,-4.63,-4.63,-4.6222,-4.6007,-4.5207,-4.4036,-4.2494,-4.2201,-4.1791,-4.1127,-4.1108,-4.1108,-4.1108,-4.1053,-4.1003,-4.095,-4.0907,-4.0878,-4.079,-4.079,-4.0694,-2.5303,-2.5611,-2.5964,-2.6033,-2.6411,-2.6823,0.0,0.0,0.0,0.0,0.0,0.0,0.0,0.0,0.0,0.0,0.0,0.0,0.0,0.0,0.0,0.0,0.0,0.0,0.0,0.0,0.0,0.0,0.0,-5.6606,-5.6606,-5.6606,-5.6196,-5.5337,-5.5298,-5.5103,-5.4713,-5.5162,-5.4894,-5.3891,-5.4008,-5.354,-5.2586,-5.2197,-5.1749,0.0,0.0,0.0,-5.13,-5.13,-5.13,-5.13,-5.13,-5.13,-5.1242,-5.0774,-4.9839,-4.8729,-4.8261,-4.7262,-4.6203,-4.6201,-4.6518,-4.6827,-4.6417,-4.6846,-4.7373,-4.7002,-4.751,-4.8349,-4.9189,-4.9072,-4.8759,-4.8798,-4.7822,-4.6788,-4.6397,-4.63,-4.63,-4.63,-4.63,-4.63,-4.63,-4.63,-4.63,-4.63,-4.63,-4.63,-4.63,-4.63,-4.63,-4.63,-4.63,-4.63,-4.63,-4.587,-4.5012,-4.3684,-4.3216,-4.2786,-4.2318,-4.2298,-4.2109,-4.1704,-4.1621,-4.137,-4.0956,-4.0873,-4.0842,-4.079,-4.079,-4.079,-2.5331,-2.6202,-2.7082,-2.6857,-2.6915,-2.7029,0.0,0.0,0.0,0.0,0.0,0.0,0.0,0.0,0.0,0.0,0.0,0.0,0.0,0.0,0.0,0.0,0.0,0.0,0.0,0.0,0.0,0.0,0.0,-5.6391,-5.6391,-5.6391,-5.5942,-5.4927,-5.5025,-5.4615,-5.362,-5.3873,-5.384,-5.3501,-5.2955,-5.2604,-5.2372,-5.1632,-5.13,-5.13,0.0,0.0,-5.13,-5.13,-5.1222,-5.1106,-5.1106,-5.1106,-5.1106,-5.1106,-5.0112,-4.8768,-4.8495,-4.745,-4.6226,-4.6362,-4.6947,-4.749,-4.6866,-4.7666,-4.8681,-4.8135,-4.8388,-4.8935,-4.956,-4.9716,-4.954,-4.8798,-4.7998,-4.7198,-4.6456,-4.63,-4.63,-4.63,-4.63,-4.63,-4.63,-4.63,-4.63,-4.63,-4.63,-4.63,-4.63,-4.63,-4.63,-4.63,-4.63,-4.63,-4.63,-4.63,-4.5987,-4.5246,-4.4387,-4.384,-4.3704,-4.3704,-4.3342,-4.2612,-4.2536,-4.2132,-4.1383,-4.1117,-4.0989,-4.0984,-4.0848,-4.079,-2.5453,-2.7231,-2.8704,-2.7187,-2.7409,-2.7989,0.0,0.0,0.0,0.0,0.0,0.0,0.0,0.0,0.0,0.0,0.0,0.0,0.0,0.0,0.0,0.0,0.0,0.0,0.0,0.0,0.0,0.0,0.0,-5.5493,-5.5493,-5.5493,-5.4752,-5.3151,-5.3815,-5.3424,-5.1804,-5.3268,-5.3255,-5.1784,-5.2408,-5.2279,-5.1495,-5.1359,-5.13,-5.13,0.0,-5.13,-5.13,-5.13,-5.0872,-5.0209,-5.0209,-5.0209,-5.0209,-5.0209,-4.9605,-4.8592,-4.7111,-4.6417,-4.6323,-4.7064,-4.7431,-4.7705,-4.8252,-4.8603,-4.8935,-4.954,-4.9267,-4.8662,-4.8135,-4.7978,-4.7959,-4.7822,-4.7139,-4.6456,-4.6339,-4.63,-4.63,-4.63,-4.63,-4.63,-4.63,-4.63,-4.63,-4.63,-4.63,-4.63,-4.63,-4.63,-4.63,-4.63,-4.63,-4.63,-4.63,-4.63,-4.6241,-4.6105,-4.5285,-4.4465,-4.3723,-4.3704,-4.364,-4.3496,-4.3436,-4.3319,-4.3111,-4.2305,-4.1879,-4.1796,-4.1119,-4.079,-2.5486,-2.6773,-2.8013,-2.7649,-2.8598,-2.9487,-2.9008,0.0,0.0,0.0,0.0,0.0,0.0,0.0,0.0,0.0,0.0,0.0,0.0,0.0,0.0,0.0,0.0,0.0,0.0,0.0,0.0,0.0,0.0,0.0,-5.5298,-5.4849,-5.4225,-5.3424,-5.3327,-5.2683,-5.1414,-5.1726,-5.1733,-5.1394,-5.1804,-5.1512,-5.0618,-5.1086,-5.0813,-4.9995,0.0,-5.1028,-5.0638,-5.1106,-5.0794,-4.9995,-4.9995,-4.9722,-4.9352,-4.9352,-4.9118,-4.8612,-4.734,-4.6911,-4.6889,-4.686,-4.7498,-4.8154,-4.7608,-4.8408,-4.9306,-4.833,-4.8759,-4.9423,-4.9052,-4.8954,-4.872,-4.7822,-4.7295,-4.6866,-4.6397,-4.63,-4.6436,-4.6905,-4.6612,-4.6456,-4.6924,-4.6612,-4.63,-4.63,-4.63,-4.63,-4.63,-4.63,-4.63,-4.63,-4.63,-4.63,-4.63,-4.63,-4.63,-4.63,-4.5929,-4.5519,-4.5129,-4.509,-4.4881,-4.4405,-4.4335,-4.4052,-4.3539,-4.3061,-4.2796,-4.2757,-4.2338,-4.2144,-2.5529,-2.6354,-2.7281,-2.7546,0.0,-3.0279,-3.0641,0.0,0.0,0.0,0.0,0.0,0.0,0.0,0.0,0.0,0.0,0.0,0.0,0.0,0.0,0.0,0.0,0.0,0.0,0.0,0.0,0.0,0.0,0.0,-5.4693,-5.4068,-5.36,-5.3405,-5.2936,-5.2175,-5.1102,-5.0438,-5.0542,-5.1394,-5.0985,-5.0518,-5.0014,-5.0696,-5.019,-4.8884,-5.0365,-5.0618,-5.0053,-5.0716,-5.0482,-4.9722,-4.9722,-4.9333,-4.8806,-4.8806,-4.8923,-4.8962,-4.8107,-4.7677,-4.7435,-4.7021,-4.7639,-4.831,-4.7217,-4.8252,-4.9384,-4.7432,-4.8291,-4.9716,-4.9306,-4.9208,-4.8896,-4.7608,-4.7295,-4.712,-4.6436,-4.63,-4.6554,-4.7432,-4.6905,-4.6573,-4.7451,-4.6885,-4.63,-4.63,-4.63,-4.63,-4.63,-4.63,-4.63,-4.63,-4.63,-4.63,-4.63,-4.63,-4.63,-4.63,-4.6303,-4.6303,-4.63,-4.63,-4.5987,-4.5324,-4.525,-4.4883,-4.4219,-4.3884,-4.3717,-4.3692,-4.3421,-4.3305,-2.5643,-2.6864,-2.7749,-2.625,0.0,0.0,-3.3415,0.0,0.0,0.0,0.0,0.0,0.0,0.0,0.0,0.0,0.0,0.0,0.0,0.0,0.0,0.0,0.0,0.0,0.0,0.0,0.0,0.0,0.0,0.0,-5.2897,-5.2819,-5.2409,-5.1609,-5.2312,-5.1882,-5.0204,-5.0126,-5.0542,-5.1375,-4.9756,-4.9348,-4.9995,-5.0053,-4.9625,-4.8845,-4.9722,-5.0053,-4.9995,-5.0073,-4.9625,-4.8884,-4.8884,-4.8845,-4.8806,-4.8806,-4.9274,-4.98,-4.8984,-4.8184,-4.761,-4.8387,-4.8205,-4.7803,-4.8427,-4.8759,-4.8857,-4.8662,-4.8759,-4.8545,-4.6983,-4.6573,-4.6534,-4.6417,-4.6397,-4.6378,-4.63,-4.63,-4.6554,-4.7432,-4.6905,-4.6573,-4.7451,-4.6885,-4.63,-4.63,-4.63,-4.63,-4.63,-4.63,-4.63,-4.63,-4.63,-4.63,-4.63,-4.63,-4.63,-4.63,-4.6295,-4.6295,-4.63,-4.63,-4.6261,-4.6202,-4.6208,-4.6133,-4.6016,-4.5138,-4.4667,-4.4587,-4.3711,-4.3305,-2.5656,-2.6915,-2.7936,-2.6783,0.0,0.0,0.0,0.0,0.0,0.0,0.0,0.0,0.0,0.0,0.0,0.0,0.0,0.0,0.0,0.0,0.0,0.0,0.0,0.0,0.0,0.0,0.0,0.0,0.0,0.0,0.0,-5.1375,-5.0926,-5.0594,-5.0399,-4.995,-4.9306,-4.8798,-4.8966,-4.9786,-4.9112,-4.8685,-4.8456,-4.9001,-4.8495,-4.7267,-4.8651,-4.8943,-4.8495,-4.9021,-4.8768,-4.793,-4.7384,-4.717,-4.7248,-4.7793,-4.8522,-4.9218,-4.8899,-4.8586,-4.8289,-4.8103,-4.7858,-4.7569,-4.7315,-4.7627,-4.7939,-4.7393,-4.7256,-4.7217,-4.7139,-4.712,-4.6963,-4.6436,-4.63,-4.63,-4.63,-4.63,-4.671,-4.8076,-4.7686,-4.7373,-4.8193,-4.7666,-4.6924,-4.6378,-4.63,-4.63,-4.63,-4.63,-4.63,-4.63,-4.629,-4.6293,-4.63,-4.63,-4.6309,-4.6305,-4.6307,-4.6307,-4.6305,-4.6293,-4.629,-4.6305,-4.6308,-4.6289,-4.6269,-4.5852,-4.5644,-4.5568,-4.5162,-4.4929,-2.5683,-2.6532,-2.7335,0.0,0.0,0.0,0.0,0.0,0.0,0.0,0.0,0.0,0.0,0.0,0.0,0.0,0.0,0.0,0.0,0.0,0.0,0.0,0.0,0.0,0.0,0.0,0.0,0.0,0.0,0.0,0.0,-5.0165,-4.9696,-4.9696,-4.9111,-4.8681,-4.8427,-4.7881,-4.7736,-4.7972,-4.7986,-4.7813,-4.7508,-4.8132,-4.7579,-4.6274,-4.7754,-4.8047,-4.754,-4.8144,-4.8047,-4.7404,-4.6534,-4.6378,-4.6683,-4.7281,-4.8048,-4.8795,-4.88,-4.8616,-4.8294,-4.778,-4.7412,-4.7081,-4.6475,-4.6729,-4.7061,-4.6475,-4.63,-4.6436,-4.7022,-4.7198,-4.7178,-4.71,-4.6905,-4.6788,-4.7022,-4.7081,-4.751,-4.8935,-4.8545,-4.8232,-4.9072,-4.833,-4.7393,-4.6807,-4.6475,-4.63,-4.63,-4.63,-4.63,-4.63,-4.629,-4.6295,-4.6295,-4.6295,-4.6301,-4.6308,-4.6308,-4.6308,-4.6308,-4.6303,-4.6303,-4.6308,-4.6308,-4.6308,-4.6308,-4.6205,-4.6142,-4.6084,-4.599,-4.5877,-2.571,-2.5714,0.0,0.0,0.0,0.0,0.0,0.0,0.0,0.0,0.0,0.0,0.0,0.0,0.0,0.0,0.0,0.0,0.0,0.0,0.0,0.0,0.0,0.0,0.0,0.0,0.0,0.0,0.0,0.0,0.0,-4.9267,-4.8779,-4.8779,-4.8779,-4.8388,-4.7608,-4.7588,-4.7127,-4.6206,-4.6206,-4.6649,-4.7489,-4.7489,-4.7014,-4.6254,-4.7111,-4.7482,-4.7482,-4.7482,-4.7482,-4.7411,-4.6547,-4.6742,-4.7489,-4.7482,-4.8047,-4.8802,-4.8791,-4.8216,-4.7513,-4.7584,-4.7002,-4.63,-4.63,-4.63,-4.63,-4.63,-4.63,-4.63,-4.63,-4.63,-4.6729,-4.8388,-4.8193,-4.7822,-4.8623,-4.8798,-4.9052,-4.993,-4.9403,-4.9091,-4.995,-4.872,-4.7608,-4.7608,-4.6866,-4.63,-4.63,-4.63,-4.63,-4.63,-4.63,-4.6293,-4.6308,-4.6308,-4.6308,-4.6308,-4.6308,-4.6308,-4.6308,-4.6308,-4.6308,-4.6308,-4.6308,-4.6308,-4.6308,-4.6177,-4.6098,-4.6091,-4.5891,-4.58,-2.571,0.0,0.0,0.0,0.0,0.0,0.0,0.0,0.0,0.0,0.0,0.0,0.0,0.0,0.0,0.0,0.0,0.0,0.0,0.0,0.0,0.0,0.0,0.0,0.0,0.0,0.0,0.0,0.0,0.0,0.0,-4.8096,-4.7666,-4.7061,-4.7042,-4.6924,-4.669,-4.669,-4.6546,-4.6279,-4.6211,-4.6332,-4.6592,-4.6592,-4.6429,-4.6215,-4.6468,-4.6585,-4.6585,-4.6585,-4.6592,-4.6567,-4.63,-4.6365,-4.6585,-4.6596,-4.7148,-4.7894,-4.7899,-4.7752,-4.7565,-4.7584,-4.7002,-4.63,-4.63,-4.63,-4.63,-4.63,-4.63,-4.6436,-4.7061,-4.7217,-4.7334,-4.7842,-4.8213,-4.8505,-4.8759,-4.8798,-4.9052,-4.993,-4.9891,-4.9794,-5.0067,-4.9189,-4.8252,-4.7686,-4.6866,-4.63,-4.63,-4.63,-4.63,-4.63,-4.63,-4.6293,-4.6308,-4.6308,-4.6308,-4.6308,-4.6308,-4.6308,-4.6308,-4.6308,-4.6308,-4.6308,-4.6308,-4.6308,-4.6308,-4.6205,-4.6143,-4.6104,-4.599,-4.5877,-2.5701,0.0,0.0,0.0,0.0,0.0,0.0,0.0,0.0,0.0,0.0,0.0,0.0,0.0,0.0,0.0,0.0,0.0,0.0,0.0,0.0,0.0,0.0,0.0,0.0,0.0,0.0,0.0,0.0,0.0,0.0,-4.7276,-4.6846,-4.6319,-4.63,-4.63,-4.63,-4.63,-4.6296,-4.6303,-4.6231,-4.6195,-4.6209,-4.6203,-4.6196,-4.6196,-4.6196,-4.6203,-4.6209,-4.6209,-4.6196,-4.6203,-4.624,-4.6226,-4.6206,-4.624,-4.6577,-4.7025,-4.701,-4.7057,-4.7081,-4.7081,-4.6729,-4.63,-4.63,-4.63,-4.63,-4.63,-4.63,-4.6417,-4.6944,-4.7334,-4.7764,-4.8427,-4.8701,-4.8896,-4.9247,-4.9325,-4.9462,-5.0008,-5.0379,-5.0614,-5.0614,-4.9891,-4.9032,-4.8193,-4.7061,-4.63,-4.63,-4.6306,-4.6309,-4.63,-4.6293,-4.6303,-4.6308,-4.6308,-4.6308,-4.6308,-4.6308,-4.6308,-4.6308,-4.6308,-4.6308,-4.6308,-4.6308,-4.6308,-4.6308,-4.622,-4.615,-4.6104,-4.5988,-4.5877,0.0,0.0,0.0,0.0,0.0,0.0,0.0,0.0,0.0,0.0,0.0,0.0,0.0,0.0,0.0,0.0,0.0,0.0,0.0,0.0,0.0,0.0,0.0,0.0,0.0,0.0,0.0,0.0,0.0,0.0,0.0,-4.6729,-4.63,-4.63,-4.63,-4.63,-4.63,-4.63,-4.6296,-4.6303,-4.6231,-4.6201,-4.6203,-4.6209,-4.6196,-4.6203,-4.6203,-4.619,-4.6209,-4.6209,-4.6209,-4.6209,-4.6275,-4.626,-4.6216,-4.6273,-4.6296,-4.6308,-4.6296,-4.63,-4.63,-4.63,-4.63,-4.63,-4.63,-4.63,-4.63,-4.63,-4.63,-4.63,-4.63,-4.6944,-4.7978,-4.952,-4.9325,-4.9032,-4.9911,-5.0048,-4.9989,-4.9989,-5.0614,-5.1199,-5.1277,-5.0555,-4.9696,-4.8818,-4.7334,-4.63,-4.63,-4.6293,-4.6297,-4.6306,-4.6305,-4.6308,-4.6308,-4.6308,-4.6308,-4.6308,-4.6308,-4.6308,-4.6308,-4.6308,-4.6308,-4.6308,-4.6308,-4.6308,-4.6308,-4.6162,-4.6105,-4.6104,-4.5877,-4.58,0.0,0.0,0.0,0.0,0.0,0.0,0.0,0.0,0.0,0.0,0.0,0.0,0.0,0.0,0.0,0.0,0.0,0.0,0.0,0.0,0.0,0.0,0.0,0.0,0.0,0.0,0.0,0.0,0.0,0.0,-4.6573,-4.6397,-4.63,-4.63,-4.63,-4.63,-4.63,-4.63,-4.6296,0.0,-4.6231,-4.6201,-4.6203,-4.6209,-4.6203,-4.6196,-4.6196,-4.6209,-4.6201,-4.6201,-4.6231,-4.6279,-4.6284,-4.6288,-4.6277,-4.63,-4.63,-4.6296,-4.63,-4.63,-4.63,-4.63,-4.63,-4.63,-4.63,-4.63,-4.63,-4.63,-4.63,-4.63,-4.63,-4.6944,-4.7686,-4.8057,-4.8486,-4.9032,-4.9911,-4.956,-4.9072,-4.9072,-4.9228,-4.9579,-5.0262,-4.9657,-4.8798,-4.7978,-4.6963,-4.63,-4.63,-4.6303,-4.6295,-4.6307,-4.6308,-4.6308,-4.6308,-4.6308,-4.6308,-4.6308,-4.6308,-4.6308,-4.6308,-4.6308,-4.6308,-4.6308,-4.6308,-4.6308,-4.6308,-4.6162,-4.6105,-4.6104,-4.5877,-4.58,0.0,0.0,0.0,0.0,0.0,0.0,0.0,0.0,0.0,0.0,0.0,0.0,0.0,0.0,0.0,0.0,0.0,0.0,0.0,0.0,0.0,0.0,0.0,0.0,0.0,0.0,0.0,0.0,0.0,-4.63,-4.63,-4.63,-4.63,-4.63,-4.63,-4.63,-4.63,-4.63,-4.6296,-4.6292,-4.6236,-4.6195,-4.619,-4.6203,-4.6209,-4.6203,-4.6203,-4.6195,-4.6206,-4.6236,-4.6279,-4.6303,-4.6292,-4.6296,-4.63,-4.63,-4.63,-4.63,-4.63,-4.63,-4.63,-4.63,-4.63,-4.63,-4.63,-4.63,-4.63,-4.63,-4.63,-4.63,-4.63,-4.6632,-4.7081,-4.751,-4.792,-4.8349,-4.8798,-4.8545,-4.8232,-4.8232,-4.8876,-4.9579,-5.0028,-4.9716,-4.915,-4.831,-4.7451,-4.6768,-4.6358,-4.63,-4.6293,-4.6308,-4.6308,-4.6308,-4.6308,-4.6308,-4.6308,-4.6308,-4.6308,-4.6308,-4.6308,-4.6308,-4.6308,-4.6308,-4.6308,-4.6308,-4.6308,-4.6162,-4.6105,-4.6104,-4.5924,-4.5827,0.0,0.0,0.0,0.0,0.0,0.0,0.0,0.0,0.0,0.0,0.0,0.0,0.0,0.0,0.0,0.0,0.0,0.0,0.0,0.0,0.0,0.0,0.0,0.0,0.0,0.0,0.0,0.0,0.0,-4.63,-4.63,-4.6163,-4.6085,-4.6085,-4.5929,-4.5929,-4.6066,-4.6085,-4.6144,-4.63,-4.6084,-4.5897,-4.5767,-4.5903,-4.6053,-4.6209,-4.6209,-4.622,-4.6216,-4.6284,-4.6308,-4.6308,-4.6296,-4.63,-4.63,-4.63,-4.63,-4.63,-4.63,-4.63,-4.63,-4.63,-4.63,-4.63,-4.63,-4.63,-4.63,-4.63,-4.63,-4.63,-4.63,-4.63,-4.6475,-4.7198,-4.7373,-4.7412,-4.7569,-4.7705,-4.7764,-4.7627,-4.8954,-5.0106,-5.0106,-5.0106,-4.9794,-4.8935,-4.8115,-4.7295,-4.6417,-4.6306,-4.6297,-4.6308,-4.6308,-4.6308,-4.6308,-4.6308,-4.6308,-4.6308,-4.6308,-4.6308,-4.6308,-4.6308,-4.6308,-4.6308,-4.6308,-4.6308,-4.6308,-4.6162,-4.6105,-4.6104,-4.5957,-4.586,0.0,0.0,0.0,0.0,0.0,0.0,0.0,0.0,0.0,0.0,0.0,0.0,0.0,0.0,0.0,0.0,0.0,0.0,0.0,0.0,0.0,0.0,0.0,0.0,0.0,0.0,0.0,0.0,-4.587,-4.63,-4.63,-4.5578,-4.5168,-4.5168,-4.4445,-4.4406,-4.5168,-4.5168,-4.5558,-4.628,-4.5479,-4.4668,-4.3975,-4.4734,-4.5495,-4.6206,-4.6206,-4.624,-4.6296,-4.6296,-4.63,-4.63,-4.63,-4.63,-4.63,-4.63,-4.63,-4.63,-4.63,-4.63,-4.63,-4.63,-4.63,-4.63,-4.63,-4.63,-4.63,-4.63,-4.63,-4.63,-4.63,-4.63,-4.6339,-4.6456,-4.6475,-4.6671,-4.7432,-4.8154,-4.8427,-4.7744,-4.8954,-5.0106,-5.0106,-5.0106,-4.9794,-4.8935,-4.8115,-4.7295,-4.6417,-4.6301,-4.6308,-4.6308,-4.6308,-4.6308,-4.6308,-4.6308,-4.6308,-4.6308,-4.6308,-4.6308,-4.6308,-4.6308,-4.6308,-4.6308,-4.6308,-4.6308,-4.6308,-4.6162,-4.6105,-4.6104,-4.591,-4.5814,0.0,0.0,0.0,0.0,0.0,0.0,0.0,0.0,0.0,0.0,0.0,0.0,0.0,0.0,0.0,0.0,0.0,0.0,0.0,0.0,0.0,0.0,0.0,0.0,0.0,0.0,0.0,0.0,-4.4621,-4.4836,-4.4836,-4.4484,-4.427,-4.427,-4.3899,-4.3879,-4.427,-4.427,-4.4461,-4.4848,-4.4421,-4.4011,-4.3617,-4.4007,-4.4643,-4.5493,-4.5991,-4.6236,-4.6292,-4.63,-4.63,-4.63,-4.63,-4.63,-4.63,-4.63,-4.63,-4.63,-4.63,-4.63,-4.63,-4.63,-4.63,-4.63,-4.63,-4.63,-4.63,-4.63,-4.63,-4.63,-4.63,-4.63,-4.63,-4.63,-4.6671,-4.7139,-4.753,-4.7881,-4.831,-4.8896,-4.9599,-5.0262,-5.075,-5.0828,-5.0383,-4.9065,-4.8557,-4.784,-4.6479,-4.6307,-4.6308,-4.6308,-4.6308,-4.6308,-4.6308,-4.6308,-4.6308,-4.6308,-4.6308,-4.6308,-4.6308,-4.6308,-4.6308,-4.6308,-4.6308,-4.6273,-4.6251,-4.615,-4.6085,-4.6046,-4.5905,-4.5847,0.0,0.0,0.0,0.0,0.0,0.0,0.0,0.0,0.0,0.0,0.0,0.0,0.0,0.0,0.0,0.0,0.0,0.0,0.0,0.0,0.0,0.0,0.0,0.0,0.0,0.0,0.0,0.0,-4.3567,-4.3606,-4.3372,-4.3157,-4.2942,-4.2728,-4.2708,-4.2825,-4.304,-4.3469,-4.3583,-4.3377,-4.3363,-4.3236,-4.2972,-4.3181,-4.3655,-4.4328,-4.5426,-4.6045,-4.6308,-4.6296,-4.63,-4.63,-4.63,-4.63,-4.63,-4.63,-4.63,-4.63,-4.63,-4.63,-4.63,-4.63,-4.63,-4.63,-4.63,-4.63,-4.63,-4.63,-4.63,-4.63,-4.63,-4.63,-4.63,-4.63,-4.6807,-4.7451,-4.8096,-4.8232,-4.8662,-5.0145,-5.0438,-5.0633,-5.1297,-5.1394,-5.0832,-4.9146,-4.8899,-4.8278,-4.6523,-4.6308,-4.6308,-4.6308,-4.6308,-4.6308,-4.6308,-4.6308,-4.6308,-4.6308,-4.6308,-4.6308,-4.6308,-4.6308,-4.6308,-4.6308,-4.6308,-4.628,-4.624,-4.6153,-4.6094,-4.6027,-4.5957,-4.5899,0.0,0.0,0.0,0.0,0.0,0.0,0.0,0.0,0.0,0.0,0.0,0.0,0.0,0.0,0.0,0.0,0.0,0.0,0.0,0.0,0.0,0.0,0.0,0.0,0.0,0.0,0.0,0.0,-4.3235,-4.3333,-4.2513,-4.1674,-4.0854,-4.0034,-3.9995,-4.0405,-4.1225,-4.2864,-4.329,-4.2459,-4.247,-4.2032,-4.1267,-4.2095,-4.2495,-4.2616,-4.4333,-4.5527,-4.63,-4.63,-4.63,-4.63,-4.63,-4.63,-4.63,-4.63,-4.63,-4.63,-4.63,-4.63,-4.63,-4.63,-4.63,-4.63,-4.63,-4.63,-4.63,-4.63,-4.63,-4.63,-4.63,-4.63,-4.63,-4.63,-4.6339,-4.7022,-4.9442,-4.9969,-5.0243,-5.116,-5.1336,-5.1355,-5.1394,-5.1394,-5.0828,-4.915,-4.89,-4.8262,-4.6523,-4.6308,-4.6308,-4.6308,-4.6308,-4.6308,-4.6308,-4.6308,-4.6308,-4.6308,-4.6308,-4.6308,-4.6308,-4.6308,-4.6308,-4.6308,-4.6308,-4.6308,-4.6288,-4.6222,-4.6156,-4.6085,-4.6027,-4.5963,0.0,0.0,0.0,0.0,0.0,0.0,0.0,0.0,0.0,0.0,0.0,0.0,0.0,0.0,0.0,0.0,0.0,0.0,0.0,0.0,0.0,0.0,0.0,0.0,0.0,0.0,0.0,0.0,0.0,-4.0834,-4.0015,-3.9663,-3.9351,-3.9039,-3.9039,-3.9175,-3.9488,-4.062,-4.0776,-3.9972,-4.1055,-4.1105,-4.0305,-4.1159,-4.1866,-4.2424,-4.3053,-4.4149,-4.5519,-4.6066,-4.63,-4.63,-4.63,-4.63,-4.63,-4.63,-4.63,-4.63,-4.63,-4.63,-4.63,-4.63,-4.63,-4.63,-4.63,-4.63,-4.63,-4.63,-4.63,-4.63,-4.63,-4.63,-4.63,-4.63,-4.6729,-4.753,-4.8954,-4.9267,-4.9696,-5.1121,-5.1394,-5.1394,-5.1394,-5.1394,-5.0828,-4.9146,-4.8906,-4.8469,-4.7285,-4.6641,-4.6504,-4.707,-4.6621,-4.6308,-4.6308,-4.6308,-4.6308,-4.6308,-4.6308,-4.6308,-4.6308,-4.6308,-4.6308,-4.6308,-4.6308,-4.6264,-4.6167,-4.6146,-4.6053,-4.591,-4.5877,-4.5852,0.0,0.0,0.0,0.0,0.0,0.0,0.0,0.0,0.0,0.0,0.0,0.0,0.0,0.0,0.0,0.0,0.0,0.0,0.0,0.0,0.0,0.0,0.0,0.0,0.0,0.0,0.0,0.0,0.0,0.0,-3.8199,-3.816,-3.816,-3.816,-3.816,-3.8297,-3.8593,-3.9136,-3.9253,-3.9019,-4.0122,-4.0508,-4.0258,-4.084,-4.1429,-4.1979,-4.2275,-4.3216,-4.4621,-4.55,-4.5851,-4.589,-4.6183,-4.63,-4.63,-4.63,-4.63,-4.63,-4.63,-4.63,-4.63,-4.63,-4.63,-4.63,-4.63,-4.63,-4.63,-4.63,-4.63,-4.63,-4.63,-4.63,-4.63,-4.63,-4.6749,-4.7393,-4.8213,-4.8837,-4.9677,-5.1121,-5.1394,-5.1394,-5.1394,-5.116,-5.0496,-4.9118,-4.8642,-4.8242,-4.7676,-4.709,-4.707,-4.7949,-4.7519,-4.7051,-4.6758,-4.6738,-4.6601,-4.6328,-4.6308,-4.6308,-4.6308,-4.6308,-4.6308,-4.6308,-4.6308,-4.6239,-4.6098,-4.6122,-4.6033,-4.5858,-4.5858,-4.5852,0.0,0.0,0.0,0.0,0.0,0.0,0.0,0.0,0.0,0.0,0.0,0.0,0.0,0.0,0.0,0.0,0.0,0.0,0.0,0.0,0.0,0.0,0.0,0.0,0.0,0.0,0.0,0.0,-3.8553,-3.818,-3.7301,-3.7262,-3.7262,-3.7262,-3.7262,-3.7672,-3.8514,-3.8553,-3.8941,-3.9683,-3.9751,-4.0239,-4.103,-4.1078,-4.1101,-4.1147,-4.1986,-4.2845,-4.3684,-4.4621,-4.5012,-4.5129,-4.5968,-4.63,-4.63,-4.63,-4.63,-4.63,-4.63,-4.63,-4.63,-4.63,-4.63,-4.63,-4.63,-4.63,-4.63,-4.63,-4.63,-4.63,-4.63,-4.63,-4.63,-4.63,-4.63,-4.6534,-4.7412,-4.8896,-5.0321,-5.1199,-5.1355,-5.1355,-5.1355,-5.0633,-4.9797,-4.8975,-4.8145,-4.7617,-4.7636,-4.7617,-4.7949,-4.8848,-4.8926,-4.8555,-4.7715,-4.7637,-4.7285,-4.6426,-4.6348,-4.6348,-4.6348,-4.6308,-4.6308,-4.6308,-4.6308,-4.6234,-4.6098,-4.6174,-4.6123,-4.5988,-4.5988,-4.5963,-2.628,0.0,0.0,0.0,0.0,0.0,0.0,0.0,0.0,0.0,0.0,0.0,0.0,0.0,0.0,0.0,0.0,0.0,0.0,0.0,0.0,0.0,0.0,0.0,0.0,0.0,0.0,0.0,-3.7653,-3.7282,-3.6404,-3.6364,-3.6364,-3.6364,-3.6364,-3.6482,-3.6716,-3.734,-3.7458,-3.7067,-3.8918,-3.9621,-3.9331,-4.0542,-4.1108,-4.1108,-4.1342,-4.1596,-4.1986,-4.4114,-4.5363,-4.5968,-4.6202,-4.63,-4.63,-4.63,-4.63,-4.63,-4.63,-4.63,-4.63,-4.63,-4.63,-4.63,-4.63,-4.63,-4.63,-4.63,-4.63,-4.63,-4.63,-4.63,-4.63,-4.63,-4.63,-4.6534,-4.7412,-4.8427,-4.9423,-5.0282,-5.0457,-5.0457,-5.0457,-4.977,-4.8939,-4.8096,-4.775,-4.783,-4.8457,-4.7988,-4.8183,-4.9687,-4.9277,-4.8808,-4.8555,-4.8535,-4.8437,-4.8203,-4.7598,-4.7246,-4.7246,-4.6621,-4.6308,-4.6308,-4.6248,-4.6182,-4.6098,-4.6116,-4.6027,-4.5858,-4.5858,-4.5852,0.0,0.0,0.0,0.0,0.0,0.0,0.0,-2.7701,0.0,0.0,0.0,0.0,0.0,0.0,0.0,0.0,0.0,0.0,0.0,0.0,0.0,0.0,0.0,0.0,0.0,-3.7301,-3.7301,-3.6794,-3.6755,-3.654,-3.603,-3.5991,-3.5991,-3.5991,-3.5991,-3.5991,-3.5991,-3.6501,-3.6696,-3.656,-3.8414,-3.9234,-3.9156,-4.0483,-4.1108,-4.1108,-4.1108,-4.1303,-4.1752,-4.3294,-4.4211,-4.4758,-4.546,-4.5753,-4.5792,-4.6163,-4.63,-4.63,-4.63,-4.63,-4.63,-4.63,-4.63,-4.63,-4.63,-4.63,-4.63,-4.63,-4.63,-4.63,-4.63,-4.63,-4.63,-4.63,-4.63,-4.6436,-4.6944,-4.7705,-4.8662,-4.9872,-5.0106,-5.0223,-5.0575,-4.9677,-4.886,-4.8714,-4.8376,-4.8457,-4.9336,-4.9004,-4.9199,-5.0566,-5.0254,-4.9805,-4.9473,-4.9433,-4.9297,-4.8926,-4.8086,-4.7598,-4.7598,-4.6758,-4.6301,-4.6293,-4.6255,-4.6183,-4.6105,-4.6067,-4.5969,-4.58,-4.58,-4.5814,0.0,0.0,0.0,0.0,0.0,0.0,-2.6725,-2.7416,-2.7861,0.0,0.0,0.0,0.0,0.0,0.0,0.0,0.0,0.0,0.0,0.0,0.0,0.0,0.0,0.0,-3.4569,-3.5252,-3.5757,-3.5857,-3.5952,-3.5991,-3.5991,-3.5991,-3.5991,-3.5991,-3.5991,-3.5991,-3.5991,-3.5991,-3.6384,-3.7165,-3.8141,-3.8961,-3.9702,-4.0659,-4.1108,-4.1108,-4.1108,-4.1537,-4.2259,-4.2259,-4.2376,-4.2708,-4.425,-4.4914,-4.509,-4.587,-4.6222,-4.63,-4.63,-4.63,-4.63,-4.63,-4.63,-4.63,-4.63,-4.63,-4.63,-4.63,-4.63,-4.63,-4.63,-4.63,-4.63,-4.63,-4.63,-4.63,-4.63,-4.6983,-4.8037,-4.954,-4.9813,-5.0067,-5.0848,-4.9657,-4.8915,-4.9774,-4.9174,-4.9004,-5.0058,-5.0117,-5.0391,-5.1308,-5.1406,-5.1113,-5.0391,-5.0332,-5.0,-4.9238,-4.8379,-4.7851,-4.7754,-4.6914,-4.639,-4.6305,-4.6287,-4.6222,-4.6093,-4.6027,-4.593,-4.58,-4.58,-4.5827,0.0,0.0,0.0,0.0,0.0,0.0,-2.691,-2.7343,-2.7784,0.0,0.0,0.0,0.0,0.0,0.0,0.0,0.0,0.0,0.0,0.0,0.0,0.0,0.0,0.0,-3.3651,-3.3807,-3.4198,-3.4901,-3.5603,-3.5991,-3.5991,-3.5991,-3.5991,-3.5991,-3.5991,-3.5991,-3.5991,-3.5991,-3.6088,-3.6267,-3.7848,-3.869,-3.8882,-4.0405,-4.1108,-4.1108,-4.1108,-4.1205,-4.1342,-4.1342,-4.2181,-4.3489,-4.3821,-4.4387,-4.5012,-4.5187,-4.5695,-4.63,-4.63,-4.63,-4.63,-4.63,-4.63,-4.63,-4.63,-4.63,-4.63,-4.63,-4.63,-4.63,-4.63,-4.63,-4.63,-4.63,-4.63,-4.63,-4.63,-4.6983,-4.7705,-4.8017,-4.8096,-4.8135,-4.831,-4.749,-4.71,-4.7978,-4.7377,-4.7637,-4.9902,-4.959,-4.9726,-5.123,-5.1406,-5.1348,-5.1172,-5.1172,-5.1094,-5.0918,-5.0137,-4.9375,-4.8672,-4.7812,-4.7029,-4.6312,-4.6196,-4.6104,-4.6026,-4.6016,-4.593,-4.58,-4.58,-4.5814,0.0,0.0,0.0,-2.7255,0.0,0.0,0.0,-2.6734,-2.6663,0.0,0.0,0.0,0.0,0.0,0.0,0.0,0.0,0.0,0.0,0.0,0.0,0.0,0.0,0.0,-3.2753,-3.3144,-3.3573,-3.4022,-3.4861,-3.5349,-3.5349,-3.5759,-3.5991,-3.5991,-3.5991,-3.5991,-3.5991,-3.5991,-3.5991,-3.601,-3.777,-3.8593,-3.8671,-4.0346,-4.1108,-4.1108,-4.1108,-4.1108,-4.1108,-4.1108,-4.1615,-4.2494,-4.3352,-4.3977,-4.4465,-4.5324,-4.5929,-4.63,-4.63,-4.63,-4.63,-4.63,-4.63,-4.63,-4.63,-4.63,-4.63,-4.63,-4.63,-4.63,-4.63,-4.63,-4.63,-4.63,-4.63,-4.6417,-4.6846,-4.7295,-4.7725,-4.8154,-4.8252,-4.8255,-4.8242,-4.7536,-4.7243,-4.8118,-4.7889,-4.8066,-4.9375,-4.9551,-4.9863,-5.0703,-5.1152,-5.1406,-5.1406,-5.1406,-5.1406,-5.1406,-5.0234,-4.9551,-4.9551,-4.7871,-4.6758,-4.6308,-4.6203,-4.6122,-4.6057,-4.6028,-4.593,-4.58,-4.58,-4.58,0.0,0.0,0.0,0.0,0.0,-2.7277,0.0,0.0,0.0,-2.6155,0.0,0.0,0.0,0.0,0.0,0.0,0.0,0.0,0.0,0.0,0.0,0.0,0.0,0.0,0.0,-3.2636,-3.3144,-3.3144,-3.41,-3.4705,-3.4705,-3.5525,-3.5991,-3.5991,-3.5991,-3.5991,-3.5991,-3.5991,-3.5991,-3.601,-3.777,-3.8593,-3.8671,-4.0346,-4.1108,-4.1108,-4.1108,-4.1108,-4.1108,-4.1108,-4.1108,-4.1244,-4.265,-4.3391,-4.386,-4.5285,-4.6007,-4.63,-4.63,-4.63,-4.63,-4.63,-4.63,-4.63,-4.63,-4.63,-4.63,-4.63,-4.63,-4.63,-4.63,-4.63,-4.63,-4.63,-4.63,-4.6495,-4.7198,-4.7471,-4.7803,-4.8505,-4.8782,-4.8844,-4.868,-4.8072,-4.784,-4.8535,-4.8516,-4.8516,-4.8867,-4.9375,-4.9824,-5.0156,-5.0781,-5.123,-5.1387,-5.1406,-5.1406,-5.1406,-5.0137,-4.9629,-5.0176,-4.8008,-4.6797,-4.6797,-4.6567,-4.639,-4.6355,-4.6085,-4.591,-4.58,-4.58,-4.58,0.0,0.0,0.0,0.0,-2.9467,0.0,0.0,0.0,-2.8576,-2.7884,0.0,0.0,0.0,0.0,0.0,0.0,0.0,0.0,0.0,0.0,0.0,0.0,0.0,0.0,0.0,-3.1738,-3.2246,-3.2246,-3.3768,-3.4705,-3.4705,-3.5525,-3.5991,-3.5991,-3.5991,-3.5991,-3.5991,-3.5991,-3.5991,-3.601,-3.777,-3.8593,-3.8671,-4.0346,-4.1108,-4.1108,-4.1108,-4.1108,-4.1108,-4.1108,-4.1108,-4.1127,-4.1322,-4.2337,-4.3723,-4.3918,-4.4972,-4.63,-4.63,-4.63,-4.63,-4.63,-4.63,-4.63,-4.63,-4.63,-4.63,-4.63,-4.63,-4.63,-4.63,-4.63,-4.63,-4.63,-4.63,-4.6339,-4.6436,-4.7042,-4.7631,-4.7728,-4.8372,-4.8646,-4.7884,-4.767,-4.7636,-4.7734,-4.709,-4.7148,-4.8691,-4.8301,-4.8496,-5.0039,-5.0273,-5.0625,-5.1348,-5.1406,-5.1406,-5.1406,-5.1211,-5.084,-5.0234,-4.918,-4.8594,-4.8594,-4.7713,-4.7262,-4.724,-4.6297,-4.58,-4.58,-4.58,-4.58,0.0,0.0,0.0,0.0,0.0,0.0,-2.8926,0.0,-2.8412,0.0,0.0,0.0,0.0,0.0,0.0,0.0,0.0,0.0,0.0,0.0,0.0,0.0,0.0,0.0,0.0,0.0,0.0,0.0,-3.248,-3.3417,-3.3925,-3.4764,-3.5486,-3.5971,-3.5991,-3.5991,-3.5991,-3.5991,-3.5991,-3.601,-3.777,-3.8593,-3.8671,-4.0346,-4.1108,-4.1108,-4.1108,-4.1108,-4.1108,-4.1108,-4.1108,-4.1108,-4.1108,-4.1869,-4.3079,-4.4075,-4.4914,-4.5617,-4.6124,-4.63,-4.63,-4.63,-4.63,-4.63,-4.63,-4.63,-4.63,-4.63,-4.63,-4.63,-4.63,-4.63,-4.63,-4.63,-4.63,-4.6436,-4.6944,-4.7744,-4.849,-4.8967,-4.9742,-4.993,-4.8587,-4.8354,-4.8183,-4.7676,-4.7285,-4.7324,-4.8047,-4.8262,-4.8828,-5.0078,-5.0625,-5.1035,-5.1367,-5.1406,-5.1406,-5.1406,-5.1406,-5.0801,-4.9492,-4.9516,-4.9294,-4.8788,-4.828,-4.7798,-4.7284,-4.6786,-4.6283,-4.58,-4.58,-4.58,-3.4564,0.0,0.0,0.0,0.0,0.0,0.0,0.0,0.0,0.0,0.0,0.0,0.0,0.0,0.0,0.0,0.0,0.0,0.0,0.0,0.0,0.0,0.0,0.0,0.0,0.0,0.0,-3.0801,-3.1602,-3.2383,-3.3007,-3.41,-3.4998,-3.5623,-3.5876,-3.5991,-3.5991,-3.5991,-3.5991,-3.601,-3.777,-3.8593,-3.8671,-4.0346,-4.1108,-4.1108,-4.1108,-4.1108,-4.1108,-4.1108,-4.1108,-4.1108,-4.1108,-4.1635,-4.2572,-4.4094,-4.4797,-4.5129,-4.6007,-4.63,-4.63,-4.63,-4.63,-4.63,-4.63,-4.63,-4.63,-4.63,-4.63,-4.63,-4.63,-4.63,-4.63,-4.63,-4.63,-4.6475,-4.712,-4.8115,-4.9075,-4.9654,-5.0468,-5.0754,-4.9751,-4.9391,-4.8887,-4.7773,-4.7793,-4.7969,-4.7969,-4.8516,-4.9238,-5.0117,-5.0723,-5.1152,-5.1387,-5.1406,-5.1406,-5.1406,-5.1406,-5.0859,-4.9648,-5.0082,-5.0059,-4.9444,-4.9053,-4.8546,-4.7908,-4.7366,-4.6767,-4.6148,-4.5896,-4.58,0.0,0.0,0.0,-3.4122,0.0,0.0,0.0,0.0,-3.1333,0.0,0.0,0.0,0.0,0.0,-3.027,-2.9528,0.0,0.0,0.0,0.0,0.0,0.0,0.0,0.0,0.0,0.0,0.0,-3.0801,-3.1602,-3.2109,-3.2148,-3.3768,-3.4705,-3.4744,-3.5564,-3.5991,-3.5991,-3.5991,-3.5991,-3.601,-3.777,-3.8593,-3.8671,-4.0346,-4.1108,-4.1108,-4.1108,-4.1108,-4.1108,-4.1108,-4.1108,-4.1108,-4.1108,-4.1635,-4.2513,-4.3411,-4.4289,-4.5129,-4.6007,-4.63,-4.63,-4.63,-4.63,-4.63,-4.63,-4.63,-4.63,-4.63,-4.63,-4.63,-4.63,-4.63,-4.63,-4.63,-4.63,-4.63,-4.6339,-4.7689,-4.8919,-4.8939,-4.9638,-5.0468,-5.1191,-5.0664,-4.957,-4.7851,-4.832,-4.8867,-4.8867,-4.8887,-4.9238,-5.0117,-5.0215,-5.0547,-5.1328,-5.1406,-5.1406,-5.1406,-5.1406,-5.1387,-5.1328,-5.1278,-5.1254,-5.1215,-5.0264,-4.9741,-4.9722,-4.7947,-4.7096,-4.7038,-4.6187,-4.58,0.0,0.0,-3.4199,-3.4199,0.0,0.0,0.0,0.0,0.0,0.0,0.0,0.0,0.0,0.0,-3.0503,-3.0237,-3.0472,-3.0306,0.0,0.0,0.0,0.0,0.0,0.0,0.0,0.0,0.0,-3.0801,-3.1075,-3.1485,-3.207,-3.3202,-3.41,-3.4686,-3.5545,-3.5991,-3.5991,-3.5991,-3.5991,-3.601,-3.777,-3.8593,-3.8671,-4.0346,-4.1108,-4.1108,-4.1108,-4.1108,-4.1108,-4.1108,-4.1108,-4.1108,-4.1108,-4.1635,-4.2513,-4.3372,-4.425,-4.5129,-4.6007,-4.63,-4.63,-4.63,-4.63,-4.63,-4.63,-4.63,-4.63,-4.63,-4.63,-4.63,-4.63,-4.63,-4.63,-4.63,-4.63,-4.63,-4.63,-4.767,-4.8724,-4.8158,-4.9207,-5.0096,-4.9804,-5.0,-5.0,-4.9414,-4.957,-4.9766,-4.9766,-4.9766,-5.0078,-5.0918,-5.0996,-5.1094,-5.1387,-5.1406,-5.1406,-5.1406,-5.1406,-5.1406,-5.1406,-5.1343,-5.1295,-5.1308,-5.0887,-5.0384,-4.9807,-4.9146,-4.8237,-4.7096,-4.6806,-4.6341,-3.5493,-3.5084,0.0,-3.4661,-3.3853,0.0,-3.266,0.0,0.0,0.0,0.0,0.0,0.0,0.0,-3.0651,-3.0975,-3.08,-3.0458,0.0,-2.9928,0.0,0.0,0.0,0.0,0.0,0.0,-3.0801,-3.0801,-3.0801,-3.1172,0.0,0.0,-3.3807,-3.4666,-3.5545,-3.5991,-3.5991,-3.5991,-3.6169,-3.6482,-3.7926,-3.8746,-3.9078,-4.0464,-4.1108,-4.1108,-4.1108,-4.1108,-4.1108,-4.1108,-4.1108,-4.1108,-4.1108,-4.181,-4.2923,-4.3489,-4.4445,-4.5539,-4.6105,-4.63,-4.63,-4.63,-4.63,-4.63,-4.63,-4.63,-4.6358,-4.6671,-4.6534,-4.6378,-4.6671,-4.6534,-4.63,-4.63,-4.63,-4.63,-4.63,-4.7435,-4.8278,-4.7701,-4.8768,-4.9668,-4.9414,-4.9824,-5.0195,-5.0195,-5.0449,-5.0625,-5.0625,-5.0625,-5.082,-5.1348,-5.1406,-5.1406,-5.1406,-5.1406,-5.1406,-5.1406,-5.1406,-5.1406,-5.1406,-5.1348,-5.1444,-5.1755,-5.1346,-5.099,-5.0716,-5.0059,-4.8991,-4.756,-4.756,-4.6922]}]]